GFSGL_prec_cloud_003.txt.gz
Cloud_Cover
100 100 100 98 85 99 6 5 5 4 5 77 94 100 100 100 100 100 100 100 100 100 100 100 100 100 100 99 87 94 48 63 69 23 94 7 9 4 2 0 5 1 0
100 100 82 80 93 5 5 5 5 9 78 74 97 100 100 100 100 100 100 100 100 100 100 100 100 100 100 100 99 75 18 10 5 5 5 70 92 23 22 52 12 5 5
100 79 68 92 58 9 26 26 41 100 100 100 99 90 100 100 100 100 100 100 100 100 100 100 100 100 100 100 100 100 100 99 39 42 8 10 53 46 5 5 5 5 12
100 99 48 8 62 74 91 90 100 100 100 99 81 67 85 88 100 100 100 100 100 100 100 100 100 100 100 100 100 100 100 83 11 5 5 5 5 19 59 33 5 27 50
100 98 95 37 100 100 100 100 100 100 100 97 55 77 81 62 89 100 100 100 100 100 100 100 100 100 100 100 100 100 87 100 100 100 100 98 99 100 100 98 100 100 93
100 100 100 30 49 5 5 6 87 100 100 100 100 98 90 82 69 94 98 100 100 100 100 100 99 99 47 28 32 66 49 98 100 100 100 100 100 100 100 100 100 100 98
87 95 46 14 5 5 5 5 5 5 5 5 5 5 12 28 56 91 66 25 43 53 48 48 99 88 58 99 99 100 100 100 100 100 100 100 100 100 100 100 100 100 100
95 24 28 61 30 5 5 5 2 5 5 7 6 9 17 19 5 13 38 98 100 100 100 100 100 100 100 98 100 100 100 100 100 100 100 100 100 100 100 100 100 100 100
53 100 100 88 61 5 5 0 5 5 5 14 16 5 5 5 5 5 5 91 100 98 79 98 99 100 98 99 100 99 100 100 100 72 64 86 62 77 98 100 100 100 100
100 100 100 100 58 5 3 0 2 4 4 5 5 5 5 5 5 5 76 100 100 100 100 100 98 93 92 96 100 100 100 100 99 100 100 100 94 100 97 100 100 100 100
92 91 86 40 24 5 3 0 0 5 5 5 5 5 8 5 6 55 94 100 100 100 100 100 100 100 100 94 99 100 100 100 100 100 100 100 100 98 100 100 100 100 100
5 56 75 55 5 5 5 5 5 5 6 41 63 97 100 98 99 54 77 100 100 100 100 100 100 100 97 93 92 100 100 98 100 100 100 99 100 100 100 100 100 99 100
5 65 64 5 5 4 12 5 53 83 97 96 100 100 100 100 100 100 95 100 100 99 100 100 100 97 99 86 100 100 95 100 100 100 100 100 100 100 100 100 100 100 100
5 5 5 5 5 7 89 15 73 100 100 100 100 100 100 100 100 100 100 100 100 100 100 100 100 100 100 100 100 100 100 100 100 100 100 100 100 100 100 100 100 100 100
36 5 5 5 6 78 22 5 43 73 64 97 100 100 100 100 100 100 100 100 100 100 100 100 100 100 100 100 100 100 100 100 100 100 100 100 100 100 100 100 100 100 100
55 5 5 5 50 40 5 5 8 5 5 5 16 89 100 100 100 100 100 100 100 100 100 100 100 100 100 100 100 100 100 100 100 100 100 100 100 100 100 100 100 100 100
23 5 5 49 6 5 5 5 74 10 45 17 68 96 100 100 100 100 100 100 100 100 100 100 100 100 100 100 100 100 100 100 100 100 100 100 100 100 100 100 100 100 100
31 33 9 5 5 5 5 5 5 58 87 100 96 99 100 100 100 100 100 100 100 100 100 100 100 100 100 100 100 100 100 100 100 100 100 100 100 100 100 100 100 100 100
95 10 5 5 5 19 5 5 7 76 100 100 100 96 91 100 100 100 100 100 100 100 100 100 100 100 100 100 100 100 100 100 100 100 100 100 100 100 100 99 93 78 95
87 29 6 24 5 5 5 5 71 90 100 100 100 100 100 100 100 100 100 100 100 100 100 100 100 100 100 100 100 100 100 100 100 100 100 100 100 100 100 100 99 98 100
100 98 73 5 5 59 6 14 52 91 100 100 100 100 100 100 100 100 100 100 100 100 100 100 100 100 100 100 100 100 100 100 100 100 100 100 100 100 100 100 100 100 100
100 100 99 67 9 66 49 6 14 77 100 100 100 100 100 100 100 100 100 100 100 100 100 100 100 100 100 100 100 100 100 100 100 100 100 100 100 100 100 100 100 100 100
100 99 99 96 65 49 78 9 7 57 90 100 98 100 100 100 100 100 100 100 100 100 100 100 100 100 100 100 100 100 100 100 100 99 99 100 100 100 100 100 100 100 100
100 100 100 98 94 97 96 95 63 33 35 100 100 100 100 100 100 100 100 100 100 100 100 100 100 100 100 100 100 100 100 100 100 100 73 66 88 94 100 100 100 100 100
100 100 100 96 89 99 99 98 95 50 70 98 100 100 100 100 100 100 100 100 100 100 100 100 100 100 100 100 100 100 100 100 100 100 100 97 58 41 55 88 100 100 85
99 100 97 97 89 99 100 100 100 94 88 96 100 100 100 100 100 100 100 100 100 100 100 100 100 100 100 100 100 100 100 100 100 100 93 66 62 47 45 37 38 93 87

GFSGL_prec_cloud_006.txt.gz
Cloud_Cover
95 100 100 100 100 100 100 45 31 49 36 51 82 100 100 100 100 100 100 100 100 100 100 100 100 100 100 78 100 100 99 100 93 100 100 100 100 10 5 8 76 31 6
100 100 100 100 100 100 52 74 100 98 100 100 100 88 98 100 100 100 100 100 100 100 100 100 100 100 100 100 100 100 100 93 36 50 36 95 9 5 30 5 5 5 5
100 100 100 100 61 32 89 94 98 100 99 97 100 100 100 100 100 100 100 100 100 100 100 100 100 100 100 100 100 100 61 19 23 80 5 5 5 5 5 12 20 57 2
100 100 77 18 67 100 66 62 75 90 100 100 100 100 100 100 96 100 100 100 100 100 100 100 100 100 100 100 100 94 98 78 30 8 42 61 26 24 17 56 67 87 83
71 62 5 5 10 87 49 20 13 6 5 5 5 5 5 5 8 25 25 53 100 100 100 100 100 100 100 100 100 100 100 100 100 86 99 98 100 100 100 100 100 100 100
5 5 5 5 45 23 6 6 15 5 5 5 5 5 6 20 11 14 31 31 34 71 100 97 84 71 33 61 85 84 99 100 99 99 100 100 99 100 100 100 100 100 100
5 45 89 100 60 58 68 100 99 14 5 5 5 5 5 57 11 4 5 5 5 33 99 100 100 17 26 97 100 100 98 98 100 100 100 99 100 100 100 100 100 100 100
10 88 100 99 98 100 100 84 68 19 5 5 22 75 82 94 5 5 5 6 96 100 100 100 100 99 99 100 100 100 100 100 100 97 97 97 100 100 100 100 100 100 100
88 96 100 100 71 14 52 68 5 5 5 54 99 100 99 100 99 45 66 100 100 100 100 100 100 96 100 100 100 100 100 100 100 100 85 74 62 87 86 100 100 100 100
5 48 10 5 5 56 100 30 5 10 89 93 96 92 99 100 100 100 96 100 100 100 100 100 100 92 83 100 100 100 100 100 100 100 100 100 100 78 88 88 95 100 100
12 10 15 8 26 100 61 5 69 98 100 100 100 96 99 100 100 100 100 100 100 100 100 100 100 100 100 99 100 100 100 98 100 100 100 100 100 100 100 100 100 100 100
100 100 99 87 84 58 5 24 100 100 100 100 100 100 100 99 100 100 96 100 100 100 100 100 100 98 100 100 96 97 89 97 100 100 100 100 100 100 100 100 100 100 100
98 100 100 100 84 50 63 96 100 100 100 100 100 100 100 100 100 100 100 99 100 100 100 100 100 100 100 100 96 99 100 100 100 100 100 100 100 100 100 100 100 100 100
100 100 100 100 89 50 96 100 100 100 100 100 100 100 100 100 100 100 100 100 100 100 100 100 100 100 100 100 100 100 100 100 100 100 100 100 100 100 100 100 100 100 100
100 100 100 100 70 85 98 90 89 98 68 44 94 100 100 100 100 100 100 100 100 100 100 100 100 100 100 100 100 100 100 100 100 100 100 100 100 100 100 99 100 100 100
100 100 100 70 90 96 94 98 94 22 5 5 13 92 100 100 100 100 100 100 100 100 100 100 100 100 100 100 100 100 100 100 100 100 100 100 100 100 100 100 100 100 100
100 100 74 86 93 100 96 100 100 96 96 64 16 95 100 100 100 100 100 100 100 100 100 100 100 100 100 100 100 100 100 100 100 100 100 100 100 100 99 100 100 100 100
100 76 70 96 94 90 96 98 100 100 100 100 100 81 98 100 100 100 100 100 100 100 100 100 100 100 100 100 100 100 100 100 100 100 100 100 100 100 100 100 100 100 100
98 100 74 92 100 79 97 100 100 100 100 100 100 92 100 100 100 100 100 100 100 100 100 100 100 100 100 100 100 100 100 100 100 100 100 100 100 100 100 100 100 93 95
97 92 32 100 100 100 100 100 100 100 100 100 100 100 100 100 100 100 100 100 100 100 100 100 100 100 100 100 100 100 100 100 100 100 100 100 100 100 100 100 100 100 100
100 100 94 100 100 100 100 100 100 100 100 100 100 100 91 100 100 100 100 100 100 100 100 100 100 100 100 100 100 100 100 100 100 100 100 100 100 100 100 100 100 100 100
100 100 100 100 100 100 98 100 100 100 100 100 100 100 96 100 100 100 100 100 100 100 100 100 100 100 100 100 100 100 100 100 100 100 100 100 100 100 100 100 100 100 100
100 100 100 100 100 100 100 100 100 100 100 100 100 100 100 100 100 100 100 100 100 100 100 100 100 100 100 100 100 100 100 100 100 100 100 100 100 100 100 100 100 100 100
100 100 100 100 100 99 100 100 100 100 100 100 100 100 100 100 100 100 100 100 100 100 100 100 100 100 100 100 100 100 100 100 100 100 100 100 100 100 100 100 100 100 100
97 100 100 100 100 100 100 100 100 100 100 100 100 100 100 100 100 100 100 100 100 100 100 100 100 100 100 100 100 100 100 100 100 100 100 100 100 92 99 100 100 100 100
92 99 100 100 100 100 100 100 100 100 100 100 100 100 100 100 94 96 100 100 100 100 100 100 100 100 100 100 100 100 100 100 100 100 100 100 97 47 54 58 81 98 100

GFSGL_prec_cloud_009.txt.gz
Cloud_Cover
100 100 100 100 100 100 50 36 83 88 95 21 33 65 87 88 94 95 97 87 94 99 100 100 100 100 100 100 100 100 100 100 92 87 100 100 100 100 100 99 77 100 94
100 100 100 100 100 64 74 68 100 100 62 49 86 84 94 100 100 100 100 100 100 100 100 100 100 100 100 100 100 100 100 100 64 93 100 100 100 100 100 100 89 100 100
100 100 100 100 98 32 61 69 84 100 97 90 99 76 56 72 80 88 84 93 92 98 92 99 97 100 93 100 100 100 99 98 91 69 75 77 59 100 100 100 100 67 64
96 38 53 5 18 74 99 100 100 98 77 28 5 5 5 6 40 5 58 5 5 5 75 75 91 100 100 95 96 96 100 100 100 55 6 28 23 5 5 16 43 81 48
63 12 27 10 46 93 100 100 100 29 5 5 5 5 5 5 41 5 2 5 5 5 6 28 98 100 87 55 32 88 100 100 100 100 100 100 100 100 100 100 100 100 96
78 76 81 100 69 100 100 100 85 5 5 5 5 49 96 100 96 5 3 5 5 5 81 81 78 100 100 100 92 23 44 100 100 100 100 100 100 100 99 77 72 68 56
100 100 100 53 80 100 100 100 100 10 16 66 99 100 100 100 94 5 5 5 20 24 96 100 100 100 100 100 100 100 100 83 85 95 100 93 99 97 100 98 98 100 96
100 70 99 100 100 100 100 100 67 92 100 100 100 100 100 100 99 30 5 46 100 100 100 100 100 99 100 100 100 100 100 100 100 95 99 98 100 100 100 100 100 100 100
100 97 48 30 100 100 100 100 83 100 100 100 94 88 97 98 100 93 43 100 100 100 100 100 100 97 58 24 100 100 100 100 100 95 59 15 12 17 67 100 100 100 100
100 11 5 99 94 100 100 100 100 100 100 79 32 98 100 100 100 100 80 100 100 100 100 100 99 100 98 100 100 100 100 100 100 83 98 99 98 66 76 85 70 100 100
100 99 39 100 100 100 100 100 100 100 82 85 7 68 88 100 98 100 92 99 100 100 100 100 100 100 100 100 100 97 100 96 92 99 97 99 99 99 95 100 86 58 72
100 100 100 100 100 100 100 100 100 92 100 66 99 88 99 100 100 100 93 60 100 100 100 100 100 99 96 100 100 100 97 100 99 100 100 100 100 99 99 99 100 100 100
46 94 100 100 100 100 100 100 99 100 99 88 100 100 100 100 100 100 66 100 100 100 100 100 100 100 100 100 100 100 100 100 100 100 100 100 100 100 100 100 91 98 100
80 89 100 100 100 100 100 100 100 84 98 100 100 100 100 99 100 100 100 100 100 100 100 100 100 100 100 100 100 100 100 100 100 100 100 100 100 100 100 100 100 99 100
82 98 100 76 92 93 98 96 61 91 5 20 35 94 100 100 100 100 100 100 100 100 100 100 100 100 100 100 100 100 100 100 100 100 100 100 100 100 100 100 97 100 100
83 72 36 24 78 94 100 100 74 6 5 5 11 30 74 98 100 100 100 100 100 100 100 100 100 100 100 100 100 100 100 100 100 100 100 100 100 100 94 100 96 67 96
52 71 51 70 100 100 91 95 100 100 69 59 76 5 17 91 100 100 100 100 100 100 100 100 100 100 100 100 100 100 100 100 100 100 100 100 100 100 100 100 99 100 97
60 59 92 100 98 98 94 100 100 100 100 100 100 65 46 96 99 100 100 100 100 100 100 100 100 100 100 100 100 100 100 100 100 100 100 100 100 100 100 100 100 100 95
63 94 92 100 100 99 100 100 100 100 100 100 100 99 84 98 98 100 100 100 100 100 100 100 100 100 100 100 100 100 100 100 100 100 100 100 100 100 100 100 100 100 98
98 82 96 100 100 100 100 100 100 99 100 100 100 100 100 100 100 100 100 100 100 100 100 100 100 100 100 100 100 100 100 100 100 100 100 100 100 100 100 100 100 100 100
100 100 100 100 100 100 100 100 100 100 100 100 100 86 5 82 100 100 100 100 100 100 100 100 100 100 100 100 100 100 100 100 100 100 100 100 100 100 100 100 100 100 100
89 97 100 100 100 100 100 100 100 100 100 100 100 100 64 100 100 100 100 100 100 100 100 100 100 100 100 100 100 100 100 100 100 100 100 100 100 100 100 100 100 100 100
100 100 100 100 100 100 100 100 100 100 100 100 100 100 100 100 100 100 100 100 100 100 100 100 100 100 100 100 100 100 100 100 100 100 100 100 100 100 100 100 100 100 100
100 100 100 100 100 100 100 100 100 100 100 100 100 100 100 100 100 100 100 100 100 100 100 100 100 100 100 100 100 100 100 100 100 100 100 100 100 100 100 100 99 98 99
100 100 100 100 100 100 100 100 100 100 100 100 100 100 100 100 100 100 100 100 100 100 100 100 100 100 100 100 100 100 100 100 100 100 100 100 100 100 100 100 96 100 90
98 97 100 100 100 100 100 100 100 100 100 100 100 100 100 100 100 100 100 100 100 99 99 97 100 100 100 100 100 100 100 100 100 100 100 100 100 95 80 94 69 99 91

GFSGL_prec_cloud_012.txt.gz
Cloud_Cover
100 100 100 94 36 8 5 5 5 4 0 72 76 7 35 5 16 78 97 100 100 100 100 99 92 100 100 100 94 90 100 91 91 100 100 100 91 100 100 100 100 100 100
45 12 6 40 74 5 5 5 3 5 5 5 25 73 70 91 45 8 5 6 26 29 100 60 72 94 100 100 100 100 100 98 37 5 70 100 100 95 98 100 100 100 67
17 5 5 5 5 5 2 38 5 5 11 5 5 5 5 5 5 5 5 25 5 5 5 21 4 98 5 8 24 93 98 97 96 82 40 55 86 100 50 9 67 97 99
98 51 5 5 5 0 5 4 5 5 5 5 32 38 5 5 5 9 16 5 5 1 0 0 0 20 100 100 71 86 40 46 78 5 5 5 8 59 5 15 5 5 6
5 100 89 79 42 5 5 2 22 5 5 5 5 5 5 35 71 17 3 0 0 0 0 0 0 0 7 83 76 98 74 8 9 52 36 69 27 98 41 92 99 100 98
6 100 53 6 100 95 100 5 5 78 61 11 56 99 6 6 6 5 5 5 5 5 5 2 5 5 6 59 100 84 94 33 46 81 34 44 99 100 100 71 29 59 42
2 90 16 82 100 53 100 76 25 8 27 95 100 99 29 5 5 5 5 62 59 4 5 5 5 30 92 100 98 58 77 84 96 96 99 31 100 100 100 100 100 94 62
95 86 12 61 6 100 100 100 5 38 94 100 100 92 24 5 5 5 5 5 5 5 32 6 5 5 71 100 100 48 13 30 95 100 56 10 90 73 72 54 58 33 7
14 35 5 100 76 100 100 98 12 97 59 100 12 85 10 5 5 96 78 75 6 5 26 98 98 96 15 66 86 12 5 5 44 94 100 100 100 100 100 98 90 87 45
5 5 9 99 100 100 83 64 58 97 94 44 5 5 4 5 97 100 75 100 76 17 97 65 77 100 100 97 100 100 100 86 99 5 48 55 80 31 83 93 100 100 59
3 5 33 34 100 98 69 12 99 96 68 7 5 5 5 68 100 97 98 100 100 85 56 64 98 100 100 97 99 92 63 82 43 63 81 100 86 66 37 88 95 98 87
5 5 5 72 29 6 7 84 95 20 5 5 5 5 59 54 12 77 98 100 88 97 100 98 100 100 100 99 100 100 100 100 100 100 100 100 100 100 100 100 92 98 97
5 5 52 30 74 9 5 36 48 5 5 5 5 5 5 5 5 38 28 81 100 100 100 100 100 100 100 100 100 100 100 100 100 100 100 100 100 100 100 100 100 100 86
88 93 73 9 7 5 85 85 5 5 5 5 5 5 5 5 5 8 54 100 100 100 100 100 100 100 100 100 100 100 100 100 100 100 100 100 100 100 100 88 100 99 88
97 28 5 5 5 5 5 12 43 5 5 5 5 5 5 5 46 100 100 100 100 100 100 100 100 100 100 100 100 100 100 100 100 100 100 100 100 100 100 93 98 94 100
22 5 5 5 5 10 5 13 5 5 5 5 12 5 5 44 100 100 100 100 100 100 100 100 100 100 100 100 100 100 100 100 100 100 98 100 100 100 100 82 93 99 90
6 5 5 5 65 10 7 28 93 85 64 5 72 23 34 76 100 100 100 100 100 100 100 100 100 100 100 100 100 100 100 100 100 100 99 100 100 100 93 99 82 57 100
5 5 5 74 71 62 93 100 100 100 97 96 99 79 90 71 26 99 100 88 100 100 100 100 100 100 100 100 100 100 100 100 100 100 100 94 92 90 97 91 96 99 100
13 75 5 22 100 100 100 100 100 100 99 100 100 98 56 4 38 97 100 100 100 100 100 100 100 100 100 100 100 100 100 100 100 100 100 100 100 99 91 100 100 100 99
29 93 42 81 100 100 100 100 100 100 100 100 100 93 32 5 14 71 96 100 90 100 100 100 100 100 100 100 100 100 100 100 100 100 100 100 100 100 99 100 100 100 100
97 44 85 100 100 100 100 100 100 100 100 98 100 97 48 5 40 81 100 100 98 92 100 100 100 100 100 100 100 100 100 100 100 100 100 100 100 100 100 100 100 100 99
19 42 90 96 100 100 100 100 100 100 100 100 100 100 67 76 97 7 93 98 99 98 84 100 100 100 100 100 100 100 100 100 100 100 100 100 100 100 100 100 100 100 100
76 100 100 92 100 100 100 100 100 100 100 100 98 100 100 100 98 76 93 100 94 100 97 64 100 100 100 100 100 100 100 100 100 100 100 100 100 100 100 100 100 100 90
39 98 99 100 100 100 100 100 100 100 100 100 100 100 100 100 100 100 66 87 71 76 100 60 55 91 100 100 100 100 100 100 100 100 100 100 100 100 100 100 100 100 96
5 34 94 95 100 100 100 100 100 100 100 100 100 100 100 100 97 98 100 90 42 5 58 42 41 96 99 82 98 100 100 100 100 100 100 100 100 100 100 100 100 92 96
5 80 89 91 100 100 100 100 100 100 100 100 100 100 100 100 100 100 96 69 18 85 5 70 36 66 64 95 100 99 100 100 100 100 100 100 100 100 100 100 100 100 100

GFSGL_prec_cloud_015.txt.gz
Cloud_Cover
16 6 20 5 5 5 5 0 0 0 0 0 0 1 5 5 68 59 60 5 3 5 4 11 17 71 89 93 100 100 100 100 96 5 5 5 81 100 100 100 95 100 100
5 5 5 22 41 77 5 5 72 1 18 43 6 5 0 0 5 0 5 5 5 5 5 19 80 37 40 27 22 90 86 100 92 5 44 100 56 100 100 100 100 100 100
63 95 39 53 6 76 100 94 100 81 100 97 70 68 3 0 1 5 16 90 6 5 5 5 2 1 0 0 59 34 5 18 8 5 5 91 91 43 63 59 5 26 100
34 40 27 16 5 5 48 93 100 100 100 100 63 82 3 5 5 5 13 5 4 0 0 2 0 0 0 0 5 53 20 5 5 18 48 44 100 100 84 39 5 2 100
1 5 5 5 34 66 46 50 100 100 100 37 84 100 1 5 4 5 5 5 0 0 5 5 1 4 61 27 84 96 44 94 62 72 8 5 93 100 94 74 5 5 50
0 0 0 54 83 85 86 100 100 100 100 99 100 39 13 2 5 87 64 5 3 3 2 0 0 5 54 79 89 100 100 100 88 88 6 27 67 99 21 34 6 6 18
5 0 0 5 6 81 64 100 100 100 95 96 98 59 5 59 55 99 31 5 5 5 5 5 5 5 5 6 79 97 93 100 100 100 99 30 56 99 8 21 18 60 37
0 0 1 4 2 4 49 100 100 100 100 95 95 5 69 91 23 5 5 6 7 53 76 64 6 5 86 90 61 58 5 5 52 100 95 5 33 100 57 57 49 87 99
0 0 5 0 5 42 95 100 90 100 100 100 5 5 5 5 5 5 6 6 5 31 45 43 46 18 26 100 100 92 85 42 77 49 75 100 100 84 88 100 100 96 100
1 5 1 4 5 8 48 99 100 100 99 8 5 5 5 5 5 55 73 98 100 64 98 100 100 94 100 100 97 56 84 21 24 6 9 31 5 5 8 66 10 15 97
5 1 4 4 5 16 90 93 100 91 6 5 5 5 5 4 5 17 99 100 99 100 100 100 100 100 100 100 99 84 73 75 83 8 5 9 65 63 100 100 82 20 30
0 2 5 5 21 97 100 100 37 5 5 5 5 5 5 5 1 7 63 89 100 97 100 100 100 100 100 100 100 100 100 100 100 100 100 100 100 100 99 99 100 94 85
0 5 5 5 18 73 80 5 5 5 5 5 5 5 5 5 5 5 5 64 58 94 100 100 100 100 100 100 100 100 95 100 100 100 100 100 100 100 100 100 100 96 89
2 5 5 5 5 5 5 5 5 5 5 5 5 5 26 5 5 47 19 50 83 100 100 100 100 100 100 100 100 100 100 100 100 100 100 100 100 100 100 100 100 100 100
5 5 5 5 5 5 5 5 5 5 5 5 5 5 57 64 28 100 100 100 100 100 100 100 100 100 100 100 100 100 100 100 100 100 100 100 100 100 100 100 98 93 92
5 5 5 5 5 92 81 20 5 5 5 5 5 5 15 5 87 100 100 100 100 75 100 100 100 100 100 100 100 100 100 100 100 100 99 100 93 100 92 83 98 87 97
5 5 5 5 5 5 50 94 77 5 67 5 8 95 23 55 100 100 99 66 17 43 99 100 100 100 100 100 100 100 100 100 100 100 100 100 99 92 100 88 78 97 100
75 5 55 86 65 11 87 100 100 99 80 60 54 81 14 88 56 54 96 5 10 14 58 100 100 100 100 100 100 100 100 100 100 100 100 100 100 99 80 80 94 98 94
9 5 77 100 98 80 100 100 100 100 100 100 100 63 95 100 5 5 17 22 10 10 27 69 100 100 100 100 100 100 100 100 100 100 100 100 100 100 93 84 71 66 87
16 35 76 94 87 84 100 100 100 100 100 100 100 78 75 77 30 69 61 66 43 9 52 43 74 100 100 100 100 100 100 100 100 100 100 100 100 100 100 100 92 92 66
91 97 98 75 95 80 100 100 100 100 100 100 100 94 69 18 11 77 68 74 64 48 21 19 60 69 100 100 100 100 100 100 100 100 100 100 100 100 100 99 100 96 86
96 96 92 46 69 100 100 100 100 100 98 100 100 100 66 52 89 93 69 68 67 59 58 8 26 54 71 100 100 100 100 100 100 100 100 100 100 100 100 99 92 82 93
6 5 5 99 100 92 100 100 100 100 100 99 100 100 73 72 72 78 76 66 74 59 62 5 5 8 44 66 100 100 100 100 100 100 100 100 100 100 100 100 98 80 82
5 5 5 10 94 86 94 100 100 100 100 100 82 100 90 76 60 55 45 55 69 58 70 6 5 5 16 54 79 100 100 100 100 100 100 100 100 100 100 100 100 100 78
74 71 8 54 79 17 99 96 100 100 100 100 85 97 100 88 69 54 73 47 52 52 19 25 5 20 5 16 87 97 100 100 100 100 100 100 100 100 100 100 100 100 98
88 74 5 5 96 79 95 100 100 100 100 100 98 96 84 85 69 76 55 34 60 38 20 53 15 30 6 5 48 88 100 100 100 100 100 100 100 100 100 100 100 100 94

GFSGL_prec_cloud_018.txt.gz
Cloud_Cover
5 5 4 2 5 5 5 13 80 60 99 100 100 100 100 100 77 63 100 5 0 4 5 31 54 70 90 90 60 61 52 52 91 11 100 71 75 100 98 38 100 5 100
5 5 5 5 5 5 5 0 11 55 41 100 100 94 24 100 83 99 86 0 5 90 98 44 42 10 5 5 0 0 3 37 17 14 54 8 100 100 100 100 45 5 100
5 5 5 5 5 4 2 2 72 99 100 93 100 100 100 78 98 74 0 1 5 5 3 2 0 0 0 0 0 1 0 0 28 98 17 5 5 39 79 56 80 5 100
5 6 5 5 5 5 4 5 31 59 100 100 95 100 100 9 25 0 5 5 5 5 5 3 0 0 0 5 5 46 89 89 5 5 48 51 5 3 62 56 66 5 36
57 6 5 68 0 0 3 18 38 76 51 100 100 100 100 67 1 66 79 5 5 4 4 4 2 2 5 5 99 98 100 70 70 97 92 99 29 2 3 42 50 35 5
5 5 1 0 0 0 0 5 23 57 100 100 100 100 100 31 77 82 5 5 5 5 5 5 5 5 5 5 5 22 87 100 100 100 99 100 29 5 5 5 5 50 10
0 1 2 0 0 0 4 33 68 78 100 100 100 100 71 16 14 5 5 9 43 5 5 5 5 5 5 5 5 51 86 77 93 100 94 68 16 5 5 5 5 5 8
5 2 0 0 1 0 5 13 76 55 100 100 98 36 55 5 5 9 51 5 5 5 5 5 5 59 100 84 84 99 90 100 100 36 36 5 5 5 5 5 14 86 78
0 0 0 0 5 2 7 66 34 72 10 86 84 77 5 5 5 6 35 9 5 5 5 68 96 82 100 100 96 96 87 99 100 99 88 100 83 98 99 100 99 100 96
0 1 5 5 5 5 11 100 96 36 95 100 89 34 5 5 1 5 67 92 36 79 43 97 100 100 100 100 100 100 99 100 76 42 6 5 12 59 93 65 31 37 37
5 5 5 5 5 47 98 98 68 76 53 65 65 5 5 3 4 5 82 100 100 96 73 99 100 100 100 100 100 100 100 100 99 88 34 30 30 22 8 12 40 33 48
32 14 10 5 5 16 59 37 78 25 73 34 5 5 5 5 0 5 49 100 100 100 100 91 100 100 100 100 100 100 100 100 100 100 99 100 100 98 98 100 98 95 92
30 7 5 5 5 5 5 32 61 8 5 5 5 6 5 5 5 5 6 31 40 99 72 100 100 100 100 100 100 100 100 100 100 100 100 100 100 100 100 100 100 100 100
5 5 5 5 5 5 5 5 5 5 5 5 5 5 52 5 5 12 57 40 99 51 48 85 100 100 100 100 100 100 100 100 100 100 100 100 100 100 100 100 100 100 100
12 23 5 5 5 5 44 100 72 14 5 5 5 5 54 64 5 100 100 99 100 52 5 68 100 100 100 100 100 100 100 100 100 100 100 100 100 100 100 100 99 98 91
93 100 48 6 12 5 82 99 99 64 5 5 5 5 23 18 88 100 100 91 63 25 26 68 83 100 100 100 100 100 100 100 100 100 100 100 100 100 99 97 100 100 98
98 100 100 6 50 100 100 76 98 12 5 5 5 5 5 13 92 83 100 22 5 4 57 66 84 88 100 100 100 100 100 100 100 100 100 100 100 100 99 93 72 83 91
100 100 100 97 65 100 100 94 99 98 82 47 5 10 58 64 77 6 5 5 5 8 61 75 99 100 94 100 100 100 100 100 100 100 100 99 100 100 100 98 99 98 92
100 100 96 52 48 100 100 15 100 99 92 82 53 27 5 67 66 5 5 36 21 24 58 65 82 82 63 97 100 100 100 100 100 100 100 100 100 100 100 100 94 83 50
100 100 93 84 100 99 100 50 100 100 99 99 80 71 45 62 64 83 81 99 64 55 68 56 66 76 74 78 98 100 100 100 100 100 100 100 100 100 100 100 100 93 90
100 100 100 100 100 100 100 100 100 100 100 100 86 99 53 10 10 70 75 98 88 70 63 53 57 68 67 63 74 100 100 100 100 100 100 100 100 100 100 100 100 100 94
100 100 100 100 68 75 92 100 100 100 100 100 85 80 82 64 90 75 85 66 67 66 33 41 51 56 63 23 67 62 100 100 100 100 100 100 100 100 100 100 99 99 88
96 89 32 15 11 38 90 89 100 100 99 100 100 83 82 87 76 73 64 6 71 82 75 64 55 40 34 36 56 43 63 99 100 100 100 100 100 100 100 100 93 75 78
96 70 5 5 70 80 94 72 100 99 100 100 99 100 82 77 100 85 66 78 73 95 97 66 39 5 6 8 56 50 54 63 100 100 100 100 100 100 100 100 100 100 97
98 97 75 77 88 77 72 77 62 100 100 100 100 99 93 92 83 99 77 59 56 87 67 91 49 24 5 5 17 5 5 31 100 100 100 100 100 100 100 100 100 100 100
90 100 100 99 99 97 85 88 84 92 100 100 100 100 100 100 88 84 69 74 58 48 54 51 49 16 5 9 12 15 5 5 28 98 100 100 100 100 100 100 100 100 100

GFSGL_prec_cloud_021.txt.gz
Cloud_Cover
1 5 5 5 5 5 5 2 14 62 100 88 54 91 100 100 100 100 100 100 100 100 94 5 5 4 5 3 2 2 5 5 5 5 5 11 91 100 99 71 22 5 28
5 5 0 4 5 2 2 5 16 4 5 5 5 56 100 100 100 100 79 100 92 35 5 5 5 5 5 5 2 1 5 5 5 5 5 19 47 6 95 100 52 5 14
6 6 5 4 1 5 5 0 0 0 0 5 95 49 98 99 100 93 60 3 7 66 8 64 5 5 5 3 4 5 5 20 87 99 46 5 20 30 5 3 43 5 5
7 5 5 5 5 4 0 0 0 1 15 100 13 12 98 99 99 100 88 27 61 5 31 5 5 5 5 8 6 5 32 88 100 100 77 62 18 19 5 4 3 3 2
5 5 5 5 5 0 0 0 1 70 100 32 63 100 22 99 100 100 47 6 5 5 5 5 5 15 73 87 68 42 82 87 72 100 99 100 100 89 75 10 5 5 4
6 6 5 5 0 0 0 0 5 12 40 100 96 87 100 100 100 61 5 5 5 5 60 40 5 5 5 13 60 100 99 100 100 100 90 100 100 99 59 5 5 5 5
5 5 5 5 2 0 5 5 16 95 92 77 36 81 94 97 5 10 6 5 6 13 58 50 9 7 25 43 73 100 100 99 100 100 100 100 99 95 100 58 5 5 5
5 5 5 5 1 6 39 5 5 27 51 6 35 99 65 5 5 5 14 5 5 5 5 5 43 64 56 97 100 100 100 100 100 100 100 100 70 5 12 9 79 58 53
29 5 5 5 10 54 8 12 62 56 68 82 52 9 46 27 3 5 8 7 5 5 5 5 98 100 96 100 100 100 100 100 100 81 78 96 99 100 100 98 93 100 99
5 5 4 6 100 88 5 59 54 100 98 10 90 98 24 5 2 5 47 32 26 86 9 5 70 100 100 100 100 100 100 100 96 99 88 6 5 5 7 71 62 100 96
0 0 6 100 100 17 5 11 81 87 93 100 93 13 5 5 4 5 74 59 97 83 95 79 77 100 100 100 100 100 100 100 100 93 100 89 76 67 8 5 5 5 55
3 5 90 100 77 5 5 5 13 94 96 25 5 5 5 5 5 5 77 100 98 92 71 71 100 100 100 100 100 100 100 100 100 100 100 100 100 96 85 78 80 93 90
5 78 100 100 5 5 5 5 5 5 5 10 7 51 5 5 5 5 5 98 22 57 5 93 100 87 100 100 100 100 100 100 100 100 100 100 100 100 100 100 100 100 100
99 100 100 70 5 5 5 5 25 97 98 7 14 33 56 5 5 6 98 58 10 6 5 5 5 56 100 100 100 100 100 100 100 100 100 100 100 100 100 100 100 100 100
100 100 100 92 78 5 7 93 100 100 87 80 60 5 64 70 17 86 98 91 38 20 5 37 48 86 94 100 100 100 100 100 100 100 100 100 100 100 100 100 100 100 97
100 100 100 100 100 43 54 74 98 99 87 100 47 12 50 18 17 98 89 40 31 2 5 81 95 82 91 100 100 100 100 100 100 100 100 100 100 100 100 100 100 100 100
100 100 100 100 100 100 100 100 99 61 76 66 44 5 5 12 45 5 18 5 5 5 60 74 100 100 92 100 100 100 100 100 100 100 100 100 100 100 100 100 100 96 100
100 100 100 100 100 100 100 100 98 98 100 72 44 5 8 8 58 5 5 5 5 8 66 77 100 100 89 87 100 100 100 100 100 100 100 100 98 99 97 99 100 100 99
100 100 100 100 100 100 100 99 100 100 100 100 87 14 64 19 17 14 56 34 25 35 56 62 75 98 80 76 95 95 100 100 100 100 100 100 100 100 98 97 90 86 82
100 100 100 100 100 100 100 100 100 100 100 100 92 76 70 79 6 29 99 100 95 60 64 57 16 72 72 72 90 100 81 100 100 100 100 100 100 100 100 100 100 100 99
100 100 100 100 100 100 100 83 100 97 100 94 61 82 69 89 31 82 81 98 100 80 67 31 53 61 66 64 68 68 65 67 100 100 100 100 100 100 100 100 100 100 100
100 100 100 100 100 99 60 85 99 81 90 100 27 83 98 100 87 73 61 66 64 39 58 49 35 26 58 42 54 87 63 58 57 100 100 100 100 100 100 100 100 100 100
100 100 100 100 69 51 72 61 82 65 94 100 96 84 94 100 90 84 68 59 70 57 50 80 76 38 48 49 58 58 65 54 60 73 100 100 100 100 100 100 100 100 100
100 100 100 100 87 63 88 71 74 73 60 71 100 98 100 100 100 100 92 66 62 62 90 95 70 11 5 43 58 72 65 56 68 61 75 100 100 100 100 100 100 100 100
100 100 100 100 100 96 100 89 74 84 93 100 100 100 100 100 100 100 100 83 62 65 70 91 94 45 5 5 16 17 33 5 5 5 61 74 93 100 100 100 100 100 100
100 100 100 100 100 100 99 99 95 90 100 100 100 100 100 100 100 100 100 100 99 64 74 71 63 24 5 5 12 22 5 5 5 6 66 63 52 84 100 100 100 100 100

GFSGL_prec_cloud_024.txt.gz
Cloud_Cover
93 7 57 20 13 23 41 9 0 0 0 0 2 71 89 88 100 99 70 85 89 14 25 0 5 5 5 5 5 4 4 4 5 4 5 1 0 0 6 51 71 88 5
84 99 19 5 5 5 5 0 0 0 0 0 5 100 100 98 23 98 22 59 86 87 72 5 5 5 5 3 5 5 5 5 9 84 5 5 5 0 88 64 1 16 80
100 52 5 5 5 5 4 5 5 5 5 5 73 75 100 6 80 32 87 78 99 18 5 5 5 5 5 5 5 5 5 5 13 100 62 24 5 5 16 95 12 0 0
42 5 5 5 5 5 7 5 5 2 2 4 72 100 100 100 100 100 96 80 5 5 5 5 5 5 5 8 46 77 79 32 80 97 76 27 96 5 95 92 65 5 2
5 5 6 19 8 47 5 5 5 4 6 98 54 94 95 100 100 88 16 5 5 5 5 25 43 52 98 100 100 100 100 100 100 100 96 87 80 99 100 100 100 77 5
5 20 47 39 33 48 32 5 0 12 100 100 100 99 57 17 6 46 5 5 5 5 6 5 5 5 17 100 76 100 100 100 100 100 89 99 45 84 100 100 100 98 67
31 49 16 48 100 5 5 3 5 9 98 75 89 5 5 6 14 5 6 5 5 5 5 5 22 71 30 50 48 93 100 100 100 98 100 100 97 100 100 100 100 100 10
72 83 99 100 27 5 5 2 9 98 83 16 38 45 34 5 5 5 5 5 5 5 5 8 71 80 47 99 98 100 100 100 100 100 100 90 70 100 100 100 75 99 59
99 100 80 37 5 5 0 5 100 66 98 99 99 7 5 26 5 5 5 5 5 5 5 5 99 100 74 100 100 100 100 100 100 100 100 100 84 100 100 100 99 100 78
100 71 68 29 0 4 5 78 100 7 53 9 81 48 51 5 3 5 44 36 30 46 14 33 24 100 100 100 100 100 100 100 100 100 100 98 83 86 66 29 5 100 100
100 45 5 5 5 5 49 100 5 5 8 63 71 24 5 5 5 5 79 100 87 95 51 9 45 99 100 100 100 100 100 100 99 98 100 97 99 100 96 20 5 5 23
41 5 5 7 39 17 100 6 5 5 9 20 5 5 5 5 5 5 86 99 100 76 7 5 86 100 91 96 100 100 100 100 100 100 100 100 100 100 100 100 83 44 39
97 5 5 42 93 97 9 5 5 5 29 86 85 62 5 5 5 5 6 92 12 5 5 6 25 6 50 75 95 100 100 100 100 100 100 100 100 100 100 100 100 100 100
54 5 5 6 86 88 69 56 5 54 100 100 100 45 59 5 5 5 74 67 5 5 5 8 5 5 8 14 76 100 100 100 100 100 100 100 100 100 100 100 100 100 100
23 24 31 97 95 100 92 65 18 72 96 96 100 50 71 88 18 16 100 74 5 5 27 33 16 13 10 94 78 100 100 100 100 100 100 100 100 100 100 100 100 100 100
79 61 98 100 100 100 97 70 48 25 16 96 88 33 55 16 5 66 80 22 5 2 5 79 100 100 87 88 100 88 100 100 100 100 100 100 100 100 100 88 100 100 100
65 98 100 100 100 100 100 82 98 68 52 69 76 22 5 8 5 86 5 5 5 5 13 46 100 100 99 56 94 75 100 100 100 100 100 100 100 100 100 100 86 100 100
88 100 100 100 100 100 100 99 100 100 65 88 98 90 56 65 82 65 8 5 5 5 34 62 81 99 91 54 81 95 54 100 100 100 100 95 99 100 98 98 98 96 76
100 100 100 100 99 98 99 100 100 95 72 99 89 95 66 61 86 82 57 38 36 53 10 5 52 48 70 10 87 100 81 61 100 100 100 100 96 100 100 100 90 72 40
99 100 100 93 97 89 100 97 87 96 100 100 100 98 88 91 85 48 87 100 97 70 56 6 5 9 63 49 83 100 85 68 67 100 100 100 100 100 100 100 100 100 100
92 100 100 99 100 100 97 100 85 87 82 100 97 96 76 76 76 81 60 83 99 88 65 51 56 47 29 56 24 89 72 98 15 46 100 100 100 100 100 100 100 100 100
99 100 100 100 97 100 98 72 83 77 51 34 88 100 93 100 99 100 89 64 60 84 68 48 44 14 5 9 8 98 95 98 64 59 50 95 100 100 100 100 100 100 100
100 99 100 100 100 98 95 80 59 68 79 88 86 86 95 100 98 100 99 99 95 68 66 67 78 65 47 26 40 7 75 13 5 93 99 98 99 100 100 100 100 100 100
100 100 100 100 100 100 96 97 75 80 98 93 72 74 100 100 100 100 100 100 100 100 71 70 69 56 45 40 60 61 5 47 42 10 56 100 100 81 100 100 100 100 100
100 100 100 100 100 95 89 88 94 100 96 100 100 100 100 100 100 100 100 100 100 100 92 77 75 61 22 14 15 5 34 58 8 5 5 98 100 77 51 100 100 100 100
100 100 100 100 100 100 95 96 98 100 100 100 100 100 100 100 100 100 100 100 100 100 100 100 100 100 75 12 21 6 12 9 5 5 74 66 69 5 5 23 94 100 100

GFSGL_prec_cloud_027.txt.gz
Cloud_Cover
48 98 69 5 6 12 5 5 5 5 5 5 5 5 3 5 41 14 21 13 63 48 5 5 5 5 23 98 100 96 95 96 93 5 73 50 10 44 26 7 5 5 5
100 93 41 16 6 5 5 5 5 5 3 5 5 5 5 78 25 44 5 52 99 15 5 5 5 67 87 100 100 100 100 100 100 100 90 100 100 100 100 100 98 93 99
99 29 44 5 5 5 5 5 5 5 5 5 10 46 52 55 99 83 94 99 66 59 5 5 5 72 60 66 100 100 100 100 100 100 100 100 100 100 100 100 100 100 100
19 43 5 5 23 72 66 37 25 88 31 35 28 92 8 98 87 100 100 66 22 5 5 5 5 11 25 92 100 100 100 100 100 100 100 100 100 100 100 100 100 100 100
7 5 9 80 100 100 100 94 100 23 16 44 98 100 98 100 54 37 5 5 5 4 5 3 5 8 69 99 100 100 100 100 100 100 100 100 100 100 100 100 100 100 87
25 37 33 86 100 100 100 100 24 21 27 66 43 76 95 69 64 5 5 5 5 3 0 5 5 6 96 100 100 98 96 100 100 100 100 100 100 100 100 100 100 100 99
47 92 100 100 100 100 100 24 14 38 5 5 71 6 62 18 5 5 5 5 5 4 5 10 42 100 100 100 100 99 99 100 100 100 100 100 100 100 100 100 100 100 100
100 100 100 100 100 100 41 45 100 16 5 5 16 35 5 5 5 5 5 5 5 5 9 84 100 100 100 100 100 100 100 100 100 100 100 100 100 100 100 100 100 100 100
100 100 100 100 35 7 64 90 16 5 5 5 5 5 14 5 5 5 5 5 24 35 93 100 100 100 100 100 100 100 100 100 100 97 71 67 100 95 100 100 100 100 100
100 100 100 27 14 100 55 42 4 0 5 5 5 7 27 5 4 5 5 90 100 94 100 40 86 100 100 100 100 100 100 100 100 95 100 99 100 100 100 99 100 100 100
100 97 86 65 92 40 63 6 5 5 5 5 17 56 7 5 5 5 5 97 99 100 94 5 5 100 100 93 100 100 100 99 100 100 100 100 100 100 100 100 100 100 100
96 96 94 79 5 27 7 5 5 5 5 5 5 10 12 5 5 5 5 86 85 100 100 8 39 67 32 18 80 100 100 100 100 100 100 100 100 100 100 100 100 100 97
100 99 100 100 5 5 5 18 38 5 5 29 93 65 6 5 5 5 5 6 77 13 85 5 5 5 5 5 21 87 100 100 100 100 100 100 100 100 100 100 100 100 100
100 100 100 14 5 21 71 94 32 5 5 62 80 77 86 5 26 5 49 94 70 37 6 3 4 5 0 16 9 16 98 100 100 100 100 100 100 100 100 100 100 100 100
100 100 94 13 7 79 97 73 76 10 5 83 88 77 83 84 29 5 47 99 90 55 5 5 5 5 0 4 5 6 88 98 100 100 100 100 100 100 100 100 100 100 100
100 65 5 38 40 100 94 52 23 66 81 57 5 6 14 5 5 13 50 64 5 5 5 5 5 5 5 0 5 5 37 96 100 100 100 100 100 100 100 100 100 100 100
13 6 24 40 100 79 84 94 72 60 81 77 5 5 5 5 5 73 92 77 5 5 5 8 77 53 5 4 1 5 5 8 100 100 100 100 100 100 100 100 100 100 100
5 6 84 100 96 99 96 90 95 94 100 84 5 21 5 78 95 96 96 97 91 72 14 8 17 69 24 5 5 2 5 5 46 100 99 100 100 100 100 100 100 100 100
69 100 100 99 100 95 100 100 82 99 92 18 38 36 6 46 65 95 99 97 96 99 100 74 74 42 52 20 6 5 40 5 5 66 97 99 100 100 100 100 100 100 84
100 100 80 82 100 96 99 100 98 71 70 81 82 78 70 50 60 83 92 95 98 95 96 96 71 54 78 72 66 48 7 7 5 8 70 100 100 100 100 100 100 100 100
66 98 66 60 100 98 98 100 99 99 83 90 91 68 26 66 89 92 94 95 87 86 98 90 94 91 82 89 67 39 5 5 5 5 6 65 89 100 100 100 100 100 100
82 92 93 89 88 100 100 100 100 90 36 86 69 66 10 79 66 80 92 97 93 96 83 90 81 87 81 68 85 98 19 7 5 5 5 12 60 80 100 100 100 100 100
94 99 94 99 100 100 100 100 100 91 37 52 79 100 64 74 79 80 84 88 98 96 98 93 92 80 85 76 86 57 57 55 86 7 5 5 18 28 60 95 100 100 100
100 100 82 100 100 100 100 100 100 90 96 73 71 82 72 74 50 63 58 64 99 100 100 100 100 76 73 78 94 76 32 47 94 9 5 8 48 40 6 48 61 100 100
100 100 99 100 100 98 100 97 100 100 97 96 90 82 83 80 96 100 91 91 100 100 100 100 100 99 93 78 66 21 5 54 31 11 5 36 70 90 32 5 71 53 94
100 100 100 96 100 100 97 99 100 100 100 99 100 100 100 100 100 100 100 100 100 100 100 100 100 94 100 97 90 67 6 23 14 5 5 5 5 5 5 5 74 72 17

GFSGL_prec_cloud_030.txt.gz
Cloud_Cover
100 97 51 82 96 79 51 27 5 5 5 5 5 5 5 13 90 99 85 82 100 100 100 100 100 100 100 100 100 100 100 100 99 9 100 100 100 100 100 100 99 100 100
96 27 90 95 50 5 5 5 5 5 10 5 5 5 38 100 98 92 86 100 99 100 100 100 100 99 100 99 100 100 100 100 100 100 100 100 100 100 100 100 100 100 100
41 94 86 57 9 5 5 5 48 44 8 32 85 75 98 100 52 96 92 99 100 96 100 96 73 21 5 5 25 96 100 100 100 100 100 100 100 100 100 100 95 100 100
87 100 65 100 15 5 20 54 6 14 34 6 28 13 10 80 98 89 86 80 100 99 79 8 5 5 5 5 26 100 100 100 100 100 100 100 100 100 100 100 100 98 100
98 95 100 38 11 62 49 68 46 52 44 10 69 73 41 84 73 85 89 100 78 35 5 4 4 4 5 55 95 98 100 100 100 100 100 100 100 100 100 100 100 100 100
100 100 82 60 65 63 73 9 61 65 61 84 80 86 85 82 5 5 5 5 5 5 5 0 5 5 93 74 100 96 88 100 100 100 100 100 100 100 100 100 100 100 100
100 95 88 88 94 76 75 95 56 97 93 91 100 99 91 99 5 5 5 5 5 5 5 5 5 44 100 100 100 100 100 100 100 100 100 100 100 100 100 100 100 100 100
100 98 99 99 100 100 100 75 100 100 100 100 100 93 91 75 5 5 3 4 6 5 9 16 74 68 99 72 100 100 100 100 100 100 100 100 100 100 100 100 100 100 100
100 100 100 100 100 100 100 100 100 100 100 98 100 94 85 99 5 5 0 6 89 82 74 88 52 5 78 88 100 100 100 100 100 100 96 100 36 9 70 88 100 100 100
100 100 100 100 98 100 100 100 56 98 71 73 90 70 31 34 6 5 5 24 95 97 83 96 73 5 6 100 98 100 100 100 100 100 100 100 100 100 75 99 100 100 100
100 100 100 100 100 100 100 100 36 90 85 62 6 13 67 25 46 5 5 9 94 95 81 98 89 6 36 62 52 99 96 98 100 100 100 100 100 100 100 100 100 100 100
100 100 100 100 100 100 100 100 100 94 88 96 89 30 94 91 71 35 5 5 6 93 96 100 71 3 5 5 25 7 66 94 100 100 100 100 100 100 100 100 100 100 100
100 100 100 100 100 100 100 100 100 100 100 100 100 100 100 100 100 91 5 5 25 88 97 12 5 5 5 0 4 8 5 95 100 100 100 100 100 100 100 100 100 100 100
100 100 100 100 100 100 100 100 100 100 100 100 100 100 100 100 100 100 100 100 100 100 99 14 10 5 5 2 5 5 5 10 98 100 100 100 100 100 100 100 100 100 100
100 100 100 100 100 100 86 100 100 100 95 99 100 100 100 96 100 98 41 90 100 82 5 92 100 97 57 5 5 5 5 5 36 100 100 100 100 100 100 100 100 100 100
100 100 100 100 76 80 100 100 99 84 25 5 5 5 8 16 9 5 5 16 76 5 45 98 100 100 100 81 33 5 5 5 5 53 100 100 100 100 100 100 100 100 100
100 100 100 100 91 100 98 100 100 92 99 70 24 66 5 6 6 5 31 80 90 53 90 100 100 100 98 92 46 5 5 5 5 5 86 100 100 100 100 100 100 100 100
100 100 100 100 100 100 98 99 100 100 97 99 91 77 58 5 5 27 45 82 100 100 92 100 100 100 99 91 24 5 5 6 5 5 15 69 100 100 100 100 100 100 100
100 92 93 98 100 99 93 100 98 100 100 100 95 100 92 39 5 5 69 100 100 100 100 100 100 100 100 100 99 100 96 94 18 12 42 71 100 97 100 100 100 100 99
41 85 100 99 100 100 93 100 100 100 100 100 100 100 100 100 93 99 96 100 100 100 100 100 100 100 100 100 100 100 98 100 100 28 5 67 98 100 89 100 100 100 100
100 100 100 100 100 100 86 100 100 100 100 100 100 100 100 84 100 100 100 100 98 100 100 100 100 100 100 100 100 100 100 100 100 80 6 5 72 100 71 80 100 100 86
100 100 100 100 100 100 88 92 100 100 100 100 100 100 100 77 84 94 98 100 100 96 96 100 100 100 100 100 100 100 100 100 100 100 92 13 100 100 91 78 57 85 100
100 100 100 99 100 94 100 100 100 100 100 100 100 100 95 93 98 97 76 78 89 95 87 100 100 100 100 100 99 100 100 100 100 100 12 19 92 100 99 98 79 34 72
100 100 100 100 100 100 100 100 100 100 100 100 100 100 100 98 99 88 90 100 100 98 92 94 100 100 98 100 100 100 100 96 100 98 42 5 22 83 66 6 94 77 62
100 100 100 94 100 100 100 100 100 100 100 100 100 100 100 100 100 100 100 100 100 99 100 100 100 100 90 90 96 100 100 50 44 90 59 5 34 8 59 5 29 84 60
100 100 95 97 100 100 100 100 100 100 100 100 100 100 100 100 100 100 100 100 100 100 100 100 100 100 97 92 100 97 100 69 38 5 46 15 12 47 67 36 26 56 85

GFSGL_prec_cloud_033.txt.gz
Cloud_Cover
5 10 32 90 100 44 14 97 60 5 5 5 5 5 5 5 5 5 5 21 36 78 100 45 91 100 79 95 96 95 100 100 73 1 23 97 100 92 83 81 87 74 29
92 62 94 100 37 15 62 87 5 5 5 5 5 5 5 7 5 55 95 100 78 83 98 81 100 100 97 21 48 16 5 5 78 93 11 100 100 100 89 100 100 100 69
100 64 100 100 99 74 29 15 6 5 5 5 5 5 6 16 74 83 99 84 92 95 96 59 98 25 9 14 27 5 10 64 100 85 40 91 97 100 99 100 97 98 100
88 91 100 85 53 57 88 64 9 6 9 8 5 39 47 83 96 100 100 100 96 88 97 49 21 40 25 6 5 23 81 100 100 100 90 100 100 87 100 97 95 68 100
99 100 91 96 98 94 95 99 45 77 92 5 66 70 99 100 100 100 74 98 67 15 15 5 40 10 0 3 5 92 100 100 100 100 100 99 98 99 94 99 100 100 90
100 100 100 100 100 100 99 100 100 98 56 100 97 99 100 94 39 21 24 5 5 5 5 5 43 31 86 23 80 95 67 100 100 100 100 100 100 100 100 100 100 100 92
100 100 100 100 100 100 100 100 100 100 100 100 100 100 100 100 80 99 80 5 5 18 53 59 36 38 100 72 59 63 100 98 81 76 93 100 100 100 98 97 100 100 100
100 100 98 100 100 100 100 100 100 100 100 100 100 100 100 95 100 38 5 3 5 62 92 86 79 85 93 5 5 95 99 99 100 91 100 98 97 100 100 96 82 53 76
100 100 100 100 100 100 100 100 100 100 100 100 100 100 100 100 54 5 5 5 22 75 95 86 68 67 34 0 5 51 61 92 100 97 27 39 5 16 37 90 99 100 100
100 100 100 100 100 100 100 100 100 100 100 100 100 100 99 98 5 5 5 5 62 92 93 79 100 5 5 5 5 54 84 94 30 61 90 99 100 100 99 100 100 100 100
100 100 100 100 100 100 98 100 100 100 100 100 100 89 98 78 91 87 5 5 58 92 82 90 100 41 5 4 5 37 77 5 58 100 100 100 100 100 98 99 100 100 98
100 100 100 100 100 100 100 100 100 100 100 100 100 90 47 100 99 13 5 5 5 37 98 98 95 6 5 5 4 4 1 16 97 100 100 100 100 96 100 100 100 99 100
100 100 100 100 100 100 100 100 100 100 100 100 100 81 100 98 96 90 5 5 5 38 98 69 6 5 5 5 5 4 5 93 81 100 100 100 100 100 99 100 100 100 100
100 100 100 100 100 100 100 100 100 100 100 100 97 100 100 100 94 98 78 44 67 96 91 98 27 9 10 22 79 100 100 95 43 93 100 100 100 100 100 100 100 100 100
100 100 100 100 100 100 100 100 100 100 61 97 100 100 99 100 80 39 77 100 100 100 31 36 98 98 98 100 100 100 100 100 100 6 78 100 100 100 100 100 100 100 100
100 100 100 100 100 100 100 100 100 76 12 45 91 100 81 28 5 5 5 5 5 7 61 99 98 99 100 100 100 100 100 100 91 83 93 100 100 100 100 100 100 100 100
100 100 100 100 100 100 100 100 88 53 61 94 82 10 74 49 54 22 5 5 31 98 87 98 97 100 100 100 100 100 100 100 24 100 100 100 100 100 100 100 100 100 100
100 100 100 100 100 100 100 85 79 97 100 100 100 94 66 42 41 53 66 77 98 100 100 100 100 100 100 100 100 100 100 99 100 100 100 100 100 100 100 100 100 98 100
100 100 87 54 92 72 20 64 100 99 100 100 100 100 89 98 67 67 89 88 98 100 100 100 91 100 96 95 100 100 100 100 85 96 100 100 100 100 100 100 100 100 100
72 100 100 80 61 77 81 96 90 100 100 100 100 100 100 100 93 89 93 99 100 100 100 100 100 100 100 94 98 98 100 100 100 100 100 100 100 100 100 100 100 100 100
77 99 89 83 98 99 100 100 100 100 100 100 100 100 100 100 100 93 100 100 96 96 95 100 100 100 100 100 100 100 100 97 100 100 100 100 100 97 100 100 100 95 99
7 67 100 40 73 92 88 96 100 100 100 100 100 100 100 99 94 98 89 100 99 99 98 100 100 94 100 99 100 100 100 100 100 100 99 100 100 99 100 100 100 100 97
99 100 100 84 88 82 72 75 100 100 100 100 100 100 100 100 100 100 100 97 94 100 91 95 99 100 100 100 100 99 100 100 100 100 100 100 100 100 100 100 100 100 95
100 100 100 100 100 91 42 81 100 100 100 100 100 100 100 100 100 100 100 100 100 99 100 100 100 100 100 100 100 99 100 100 93 100 99 98 90 100 100 100 99 100 100
93 100 100 100 100 87 71 99 100 100 100 100 100 100 100 100 100 100 100 100 100 100 100 100 100 100 100 100 100 100 100 100 93 99 100 96 80 84 32 84 94 80 97
100 96 100 100 100 88 96 97 100 100 100 100 100 100 100 100 100 100 100 100 100 100 100 100 100 100 100 100 100 100 100 100 100 100 57 100 100 100 100 100 85 88 100

GFSGL_prec_cloud_036.txt.gz
Cloud_Cover
5 8 5 5 45 84 98 100 100 99 69 39 99 100 100 100 51 20 78 5 5 31 90 100 100 80 68 70 15 80 53 21 5 0 0 0 5 3 0 0 0 0 0
5 5 19 100 100 100 100 100 100 85 94 100 100 100 100 98 79 100 64 62 74 100 100 36 45 82 81 65 7 0 0 0 0 3 5 5 5 2 5 5 9 4 4
6 11 89 100 100 100 100 100 93 89 100 100 100 69 98 100 100 88 32 9 93 100 80 5 27 41 5 0 3 5 0 2 5 5 5 5 5 5 6 55 9 5 10
17 73 100 100 100 100 100 100 99 100 100 100 93 97 100 100 88 87 88 100 100 60 100 99 52 2 4 5 4 0 1 5 5 5 5 5 5 22 75 13 39 5 5
23 97 100 100 100 100 100 100 100 100 100 100 100 100 83 83 88 100 100 100 51 98 60 5 5 5 5 4 4 4 5 5 5 5 5 8 5 5 5 50 46 91 5
61 100 100 100 100 100 100 100 100 100 100 100 98 71 100 87 100 100 100 42 99 5 0 5 5 5 56 56 5 5 5 27 5 6 10 76 44 99 82 55 5 5 31
98 100 100 100 100 100 100 100 100 100 100 100 100 100 100 99 100 100 100 96 22 60 5 5 5 8 5 5 4 0 0 4 73 100 100 100 95 98 36 5 5 5 5
100 100 100 100 100 100 100 100 100 100 100 100 100 100 100 99 100 100 100 53 97 0 5 5 5 14 5 1 0 0 0 5 5 39 92 62 31 5 5 63 8 26 5
100 100 100 100 100 100 100 100 100 100 100 100 100 100 100 100 100 100 95 100 5 4 5 5 30 6 5 5 5 3 5 4 4 15 5 5 5 59 91 98 75 98 83
98 100 100 100 100 100 100 100 100 100 100 100 100 100 100 100 100 100 55 7 5 5 5 5 5 5 5 5 4 5 5 5 4 1 5 5 11 89 99 97 86 92 96
100 100 100 100 100 100 100 100 100 100 100 100 100 100 100 100 100 91 98 5 5 5 5 5 33 27 5 4 4 4 5 4 1 5 37 19 100 99 84 19 63 100 100
100 100 100 100 100 100 100 100 100 100 100 100 100 100 100 100 100 100 15 5 5 5 5 5 5 5 2 5 3 0 5 5 6 9 5 11 100 99 99 90 88 88 94
100 100 100 100 100 100 100 100 100 100 100 100 100 100 100 100 98 44 27 91 15 5 5 5 5 5 5 5 5 5 18 5 45 5 5 5 5 95 100 99 42 100 100
100 100 100 100 100 100 100 100 100 100 100 100 100 100 100 100 90 56 10 5 56 29 5 29 42 5 8 14 60 66 49 5 5 36 33 5 5 46 86 96 93 99 100
100 100 100 100 100 100 100 100 100 100 100 100 100 80 99 94 99 100 90 65 62 97 88 68 5 5 100 86 38 69 16 17 13 42 5 23 20 5 71 100 100 100 100
100 100 100 100 100 100 100 100 100 100 93 73 61 28 9 56 87 100 100 100 37 99 79 5 5 7 71 94 25 20 12 5 26 5 23 17 99 62 41 100 100 100 100
100 100 99 100 100 100 73 68 75 5 5 52 73 98 100 100 100 94 98 100 94 15 15 5 14 62 98 100 65 59 23 20 5 16 80 20 79 97 78 60 100 100 76
62 33 7 5 5 8 60 42 76 5 5 5 6 74 92 100 100 100 96 100 99 97 100 74 82 100 100 100 100 96 73 6 6 52 5 70 98 95 99 96 74 100 100
3 5 5 5 90 79 90 27 12 7 7 5 65 57 99 89 100 100 100 94 96 100 83 87 84 88 100 100 100 100 93 62 53 5 9 88 83 100 63 100 89 81 100
5 5 8 72 99 100 96 75 82 94 79 77 86 98 100 99 100 100 100 99 73 61 28 99 98 97 100 100 100 100 100 99 63 72 94 39 82 46 14 100 100 91 78
5 5 5 5 44 78 100 100 100 100 100 91 70 80 100 100 100 100 99 100 100 100 99 79 83 91 89 100 100 94 98 100 99 94 73 76 54 5 49 99 100 100 26
9 61 46 17 57 86 94 76 58 48 69 95 90 95 100 100 100 100 100 100 97 91 99 100 94 62 90 97 100 100 100 100 83 72 16 45 31 5 58 50 66 97 97
42 84 80 86 71 63 93 73 93 100 27 82 100 100 100 100 100 100 100 100 100 100 100 100 100 99 89 100 100 100 96 100 98 78 32 47 12 5 96 7 55 44 55
8 5 66 58 99 99 94 86 100 87 82 94 100 100 100 100 100 100 100 100 100 100 100 100 100 100 100 100 98 100 100 97 100 88 41 36 27 5 72 63 6 76 53
55 65 81 88 80 86 100 100 100 99 95 100 100 100 100 100 100 100 100 100 100 100 100 100 100 100 100 100 100 100 100 100 100 100 100 47 63 5 35 27 14 6 52
83 90 100 100 100 100 100 100 100 100 96 100 100 100 100 100 100 100 100 100 100 100 100 100 100 100 100 100 100 100 100 100 100 100 100 100 69 83 54 59 97 21 5

GFSGL_prec_cloud_039.txt.gz
Cloud_Cover
10 5 28 6 27 100 100 99 100 100 100 100 100 100 90 88 100 36 98 91 86 42 81 97 96 97 100 100 95 27 23 27 5 0 0 0 0 0 0 0 0 0 1
100 97 81 69 92 100 100 98 100 100 100 100 97 97 98 70 100 72 81 100 100 100 100 79 75 97 91 99 66 88 0 0 0 0 0 0 0 0 0 0 0 1 5
96 100 100 100 100 100 80 100 100 100 100 100 99 100 97 40 100 87 90 100 100 100 100 100 100 100 100 100 75 0 0 0 0 3 1 0 0 0 0 0 1 2 5
100 100 100 100 99 100 89 98 100 90 94 86 100 100 91 99 100 100 100 100 100 100 100 100 99 100 100 23 0 0 0 0 3 5 5 4 5 2 5 5 25 5 2
100 100 100 100 100 88 100 69 100 99 79 98 95 100 100 100 100 100 100 100 98 95 99 100 100 55 14 5 0 0 0 5 5 5 5 5 5 5 97 94 14 4 5
100 100 100 100 100 100 100 100 100 100 100 100 100 100 100 69 100 100 100 96 39 99 100 83 15 7 0 1 5 5 5 5 5 5 64 20 7 99 84 5 5 5 61
100 100 100 100 49 100 100 100 100 100 100 100 100 100 100 100 100 100 100 100 100 100 100 76 7 16 33 5 5 5 0 0 0 4 5 78 100 97 54 5 5 28 92
100 100 100 100 100 100 100 100 100 100 100 100 100 100 100 100 100 100 100 100 100 100 100 34 75 7 5 5 5 2 0 0 0 3 83 23 18 45 89 98 80 97 48
100 100 100 100 100 100 100 100 100 100 100 100 100 100 100 100 100 100 100 100 100 100 24 43 3 5 5 5 5 5 4 0 0 3 0 5 5 11 85 100 100 88 78
100 100 100 100 100 100 100 100 100 100 100 100 100 100 100 100 100 100 100 100 73 98 93 3 5 5 5 5 5 5 7 1 2 2 0 3 5 5 23 69 97 98 100
100 100 100 100 100 100 100 100 99 100 100 100 100 100 100 100 100 100 100 83 84 75 5 5 5 5 5 5 5 5 4 2 3 5 5 4 5 5 5 28 81 100 100
100 84 78 93 99 100 100 100 100 100 100 100 100 100 100 100 100 100 99 86 5 5 5 5 5 10 36 5 5 5 5 5 5 5 5 5 5 5 5 5 19 18 88
83 96 97 99 100 100 100 100 100 100 100 100 100 100 100 100 47 82 100 100 84 80 5 5 5 5 5 5 5 5 5 5 5 41 8 5 5 5 5 56 55 28 71
97 97 98 77 72 87 91 57 83 56 25 7 23 56 41 11 6 98 98 82 94 65 81 10 5 8 5 5 5 64 73 38 5 34 5 5 5 5 5 6 67 35 20
5 4 0 0 0 0 0 0 0 5 5 5 5 41 42 23 34 84 93 100 100 96 94 70 66 79 17 8 44 97 92 54 33 5 5 5 5 5 5 5 47 73 54
0 0 0 0 0 0 0 0 5 5 5 5 5 5 9 58 98 100 97 90 87 96 100 84 93 90 54 86 100 100 100 94 90 32 5 5 16 23 5 5 5 62 88
0 0 0 0 0 0 1 5 5 5 5 5 5 5 5 5 83 100 100 100 100 100 88 66 80 31 73 98 100 100 100 100 100 83 38 5 45 6 18 7 5 16 84
4 4 13 22 14 16 32 78 18 64 55 5 5 5 5 5 82 100 86 100 100 100 80 59 70 69 52 66 83 98 100 100 100 100 75 26 64 55 63 14 6 46 47
5 5 5 10 86 100 100 99 96 93 100 46 5 6 8 86 17 100 100 100 93 100 100 100 96 60 33 14 77 81 100 100 100 100 95 62 70 69 22 52 58 23 32
5 6 29 14 6 8 7 87 100 98 100 98 87 47 5 90 71 97 100 100 100 100 100 100 100 100 80 68 72 99 100 100 97 90 100 86 88 53 13 51 69 69 9
5 5 5 5 47 76 92 84 49 100 90 100 96 27 5 97 99 95 100 100 100 100 100 100 100 91 86 74 100 70 95 100 100 92 99 66 71 5 5 56 66 73 64
72 14 5 5 5 27 26 56 100 100 100 76 30 6 5 70 100 100 100 100 100 100 100 100 100 100 84 59 89 100 68 60 69 80 14 49 31 37 28 69 52 6 12
5 10 74 100 97 93 82 39 86 100 100 78 93 74 76 98 100 100 100 100 100 100 100 100 100 100 100 100 87 77 80 98 84 100 94 36 66 24 55 63 10 5 5
100 100 100 100 99 100 100 99 92 61 98 99 97 94 68 100 100 100 100 100 100 100 100 100 100 100 100 100 100 100 96 98 99 100 100 75 98 95 63 6 6 5 5
99 100 99 100 100 100 100 100 100 100 100 100 100 100 72 93 100 100 100 100 100 100 100 100 100 100 100 100 100 100 99 100 100 99 100 96 98 98 84 65 5 5 5
63 100 73 100 100 100 100 100 100 100 100 100 100 92 100 100 100 100 100 100 100 100 100 100 100 100 100 100 100 100 100 100 100 100 100 99 100 92 84 80 85 51 9

GFSGL_prec_cloud_042.txt.gz
Cloud_Cover
87 83 71 88 84 97 100 100 100 92 100 100 100 94 84 67 44 94 86 88 65 46 97 100 82 93 100 100 100 100 100 100 50 5 0 0 0 0 0 0 0 0 0
5 49 70 95 99 100 100 100 100 100 100 100 100 95 95 99 100 98 99 68 100 100 100 99 100 100 100 100 100 100 100 96 8 0 0 0 0 0 0 2 0 0 0
19 93 100 100 100 100 100 93 29 6 54 69 46 92 88 95 100 100 100 84 90 97 99 100 100 100 100 100 100 100 100 24 2 3 2 0 0 0 0 1 5 5 0
51 85 83 97 100 99 92 99 30 17 71 73 99 84 89 95 100 100 100 95 100 100 100 100 100 100 100 100 100 100 31 2 0 5 3 4 5 4 5 5 36 5 0
14 56 93 96 100 90 76 72 79 93 89 100 96 100 100 100 100 100 100 100 100 100 100 100 100 100 100 100 100 66 14 3 5 5 5 5 5 5 24 5 33 5 2
100 100 100 39 5 16 90 46 100 100 100 100 100 100 100 100 100 100 100 100 100 100 100 100 100 100 100 100 74 5 5 5 5 5 5 5 5 96 5 5 6 45 86
100 97 100 100 88 100 100 99 100 100 100 100 100 100 100 100 100 100 100 100 100 100 100 100 100 100 5 5 5 5 5 4 0 5 7 5 41 4 29 63 81 97 98
84 100 100 100 85 99 100 100 100 100 100 100 99 100 100 100 100 100 100 100 100 100 100 99 94 6 1 5 5 5 5 5 0 0 5 4 2 67 96 100 100 98 41
46 74 67 90 100 100 100 100 100 99 81 23 46 81 100 100 100 100 100 100 100 99 26 97 94 5 0 5 5 5 33 11 2 0 4 5 5 5 30 98 72 94 89
47 96 100 100 100 91 87 83 96 80 16 98 100 99 83 34 5 5 86 14 44 82 69 20 5 1 5 5 5 5 100 43 5 1 0 0 0 3 4 19 94 100 100
100 100 100 96 100 100 75 32 5 2 4 2 0 0 1 5 7 97 100 84 69 100 62 19 5 6 5 5 5 85 58 64 18 5 5 5 5 5 0 5 5 77 94
100 100 99 86 46 72 39 6 0 0 0 0 0 1 2 5 54 96 100 86 70 88 11 100 81 49 5 6 55 100 91 58 45 5 5 5 5 5 4 5 5 5 90
53 99 73 60 48 11 5 1 0 0 0 0 1 5 4 5 19 61 17 49 99 67 80 100 100 87 5 20 53 67 23 42 29 90 49 5 5 5 5 5 5 5 5
100 86 26 6 25 10 5 5 5 0 0 0 5 5 5 5 5 5 11 32 15 100 93 99 98 99 66 21 60 50 92 59 84 100 99 21 14 5 5 6 6 5 66
91 27 11 27 6 5 5 5 0 0 0 1 5 5 4 5 2 5 33 92 100 84 100 100 100 100 80 28 62 82 93 100 100 100 100 68 44 49 6 5 7 5 31
52 52 11 5 5 5 5 4 2 4 5 5 11 68 11 17 5 3 5 64 87 100 100 82 75 100 95 78 95 100 98 100 100 100 99 80 67 65 60 5 5 9 5
26 5 5 5 8 13 24 40 51 5 5 6 91 99 100 100 57 18 5 54 100 100 100 62 82 100 100 100 100 97 100 100 100 100 100 100 58 57 61 57 29 5 5
5 5 5 13 5 6 47 98 82 91 73 54 48 96 100 100 100 64 5 46 100 100 100 100 100 100 100 100 100 74 98 100 100 100 100 81 95 68 68 56 49 94 28
6 6 6 23 23 5 5 13 96 100 100 100 99 39 87 100 98 18 10 68 100 92 98 100 100 100 100 100 100 92 84 100 100 100 100 84 68 64 65 42 71 78 71
32 17 6 5 5 6 65 81 69 21 35 94 100 80 46 98 76 90 6 69 100 100 100 100 100 100 100 100 100 91 88 100 88 100 100 94 89 76 60 51 57 99 93
5 6 8 82 100 100 100 100 100 100 89 70 89 100 100 60 31 86 100 81 95 100 100 100 100 100 100 100 100 100 98 99 77 96 100 85 90 75 47 53 73 67 68
99 100 100 100 100 100 100 100 100 100 100 98 97 100 100 100 100 100 100 99 100 100 100 100 100 100 100 100 100 100 100 100 100 76 60 87 62 50 33 62 67 57 37
44 100 93 33 87 81 100 100 100 100 100 100 100 100 100 100 100 83 100 100 99 100 100 100 100 100 100 100 100 100 100 100 100 97 100 88 88 79 56 64 42 28 13
36 100 20 90 100 100 100 100 100 100 100 100 100 100 100 100 99 100 100 97 99 100 100 100 100 100 100 100 100 100 100 100 100 100 100 100 100 99 98 80 49 39 6
9 100 65 100 100 100 100 100 100 100 100 100 100 100 100 100 100 100 100 100 96 97 100 100 100 100 100 100 100 100 100 100 100 100 100 100 99 100 100 98 82 69 26
54 88 92 97 100 100 100 100 100 100 100 100 100 100 100 100 100 100 100 100 100 100 100 100 100 100 100 100 100 100 100 100 100 100 100 100 100 100 100 93 99 74 100

GFSGL_prec_cloud_045.txt.gz
Cloud_Cover
0 0 0 3 26 82 76 54 51 94 90 93 100 100 100 100 92 94 100 99 100 100 100 100 100 100 100 100 100 100 100 100 100 93 92 98 22 2 0 0 0 0 1
5 14 54 69 11 41 92 99 100 100 96 30 98 97 99 100 99 100 89 100 100 86 92 100 100 100 99 100 100 100 98 100 99 96 100 7 0 0 0 5 0 0 0
5 19 96 54 99 100 100 100 100 94 98 100 100 100 100 100 100 100 100 86 83 81 72 87 100 100 100 100 100 100 100 100 100 82 3 0 4 0 0 2 5 1 3
26 7 22 60 91 100 100 100 87 100 100 84 82 93 100 100 98 100 100 100 100 81 77 99 100 100 100 100 100 100 71 36 0 5 5 1 2 1 5 5 5 5 5
6 68 84 99 98 100 100 100 100 95 100 100 100 100 100 100 100 89 70 76 98 82 79 84 97 99 45 11 5 1 1 4 5 5 5 2 5 4 5 5 5 5 5
91 52 56 100 100 100 100 94 100 100 100 100 100 100 100 100 100 91 10 5 5 5 18 20 5 6 100 93 14 1 5 5 5 5 5 5 5 5 5 13 29 98 99
5 61 100 100 100 100 100 100 100 100 100 100 94 92 28 80 63 28 5 5 5 5 5 49 98 52 99 100 96 8 5 5 5 5 5 5 5 5 26 88 94 100 99
32 92 89 60 76 100 100 100 100 100 100 100 98 5 19 5 5 5 4 5 5 5 87 72 90 42 96 90 59 5 5 5 5 4 4 5 5 5 38 88 99 73 46
100 100 100 100 100 100 100 100 100 100 100 91 29 12 5 56 98 6 0 5 5 39 14 5 21 90 16 19 5 5 5 42 5 5 5 5 5 4 4 5 5 92 95
98 100 100 100 100 100 100 91 100 99 92 98 5 27 100 58 43 1 2 5 5 5 95 66 83 94 43 5 5 5 11 72 5 5 5 5 5 5 5 4 5 97 100
100 100 100 100 97 95 100 100 100 96 88 42 98 75 43 45 34 0 2 13 100 82 72 24 70 100 74 62 8 43 11 32 36 5 6 63 16 6 5 4 5 5 92
90 98 73 93 100 100 100 100 84 79 93 95 26 64 90 99 2 0 0 5 18 72 5 48 79 100 82 92 95 84 55 5 54 23 69 98 93 55 8 5 5 5 12
30 94 100 100 100 100 83 99 96 86 44 34 88 77 59 34 0 0 5 5 55 75 86 78 97 100 100 84 100 76 99 63 97 90 89 73 86 62 23 5 5 5 5
28 40 48 88 81 83 74 24 5 57 91 100 99 75 20 1 1 5 12 5 5 88 65 30 17 100 100 98 100 99 100 55 78 68 84 47 55 68 42 33 63 5 7
5 7 61 16 54 53 6 19 65 100 100 100 89 72 53 8 5 28 100 100 95 94 95 100 100 99 100 100 100 100 100 98 94 76 83 70 59 74 70 41 42 23 65
5 5 20 37 25 26 31 96 100 100 100 100 28 42 91 77 99 99 100 100 100 100 100 100 97 100 100 100 100 100 100 98 64 57 99 97 88 93 62 49 60 78 78
6 55 46 78 94 97 100 98 35 99 100 18 5 5 10 37 43 99 100 100 100 82 100 100 96 93 100 100 100 100 99 100 89 95 100 94 99 92 75 65 64 79 62
64 93 46 62 65 80 62 72 99 99 85 14 5 5 5 52 98 100 100 100 100 100 100 100 100 100 100 100 100 100 100 100 100 88 81 86 90 91 74 68 55 99 89
98 61 96 100 100 83 80 97 100 100 100 100 57 14 26 19 100 63 20 100 90 100 100 100 100 100 100 100 100 100 100 100 100 91 99 94 98 100 96 69 56 72 98
99 100 100 91 94 99 63 60 99 100 79 100 100 85 81 96 82 100 98 100 92 99 100 100 100 98 100 100 100 100 100 100 100 98 71 63 100 100 80 63 74 97 70
100 91 36 55 51 69 99 100 100 100 100 98 100 100 99 100 100 100 100 100 100 100 100 100 100 100 100 100 100 100 100 100 100 100 92 67 100 99 91 50 59 69 68
50 97 58 13 96 100 100 100 100 100 100 100 99 87 95 100 100 100 100 100 100 100 100 100 100 100 100 100 100 100 100 100 100 100 100 80 85 98 95 60 76 70 53
46 88 5 5 82 95 100 100 100 100 100 100 100 100 100 100 100 100 100 100 100 100 100 100 100 100 100 100 100 100 100 100 100 100 100 100 100 100 100 92 92 62 54
42 97 19 36 91 100 100 100 100 100 100 100 100 100 100 100 100 100 100 100 100 100 100 100 100 100 100 100 100 100 100 100 100 100 100 100 100 100 100 100 100 100 71
70 74 94 94 98 99 100 100 99 100 100 100 100 100 100 100 100 100 100 100 100 100 100 100 100 100 100 100 100 100 100 100 100 100 100 100 100 100 100 100 100 100 100
45 33 52 90 93 88 78 100 100 100 100 100 100 100 100 100 100 100 100 100 100 100 100 93 93 100 100 100 100 100 100 100 100 100 100 100 100 100 100 100 99 96 98

GFSGL_prec_cloud_048.txt.gz
Cloud_Cover
76 100 100 98 98 71 88 100 100 100 95 100 84 100 100 100 100 100 68 100 89 86 72 9 60 74 5 6 74 83 69 40 21 64 94 21 2 0 0 0 0 0 0
100 100 100 99 100 100 99 99 100 100 100 94 100 100 100 100 99 81 100 100 95 65 12 32 45 5 6 4 0 3 5 0 0 0 0 0 0 0 0 0 0 0 0
100 78 92 69 79 100 100 96 100 100 100 100 100 100 100 100 100 98 97 39 36 78 20 4 5 5 5 13 7 5 5 5 0 0 0 1 0 0 0 0 2 5 2
38 58 75 76 44 77 95 100 98 96 100 100 78 100 100 93 100 100 82 93 98 21 5 5 7 5 11 5 22 63 83 5 4 1 5 3 0 0 4 5 5 1 4
29 60 61 49 96 100 100 83 100 74 100 100 88 100 100 100 100 100 100 77 39 5 5 12 65 52 44 13 92 5 94 99 28 5 5 3 0 0 4 5 5 5 5
9 75 74 95 100 98 80 82 100 97 100 100 100 100 100 100 100 100 100 24 5 5 59 100 75 81 60 100 79 97 100 94 53 5 5 5 4 5 5 5 22 100 95
100 96 100 100 100 100 100 93 100 100 100 100 100 100 100 99 100 73 92 13 11 97 100 95 51 73 86 96 87 100 99 57 5 5 5 5 5 5 5 16 99 100 99
72 96 100 100 100 100 100 100 100 100 100 100 100 100 100 100 100 100 23 70 100 100 92 16 40 74 81 78 83 38 5 5 5 5 5 5 5 5 28 5 9 33 17
86 100 100 100 100 100 100 100 100 100 100 100 100 100 100 100 81 47 100 100 100 83 7 49 12 82 88 87 82 40 5 5 5 5 5 32 5 37 10 5 5 43 72
100 100 97 100 100 100 94 100 100 100 100 100 100 100 100 83 100 100 100 96 6 5 5 80 100 51 91 88 99 99 32 68 6 43 19 38 5 5 5 5 5 44 96
99 91 100 99 100 100 55 35 78 99 100 99 93 96 98 100 98 99 78 6 5 5 5 5 5 14 96 81 100 60 68 41 86 94 72 97 39 5 5 5 5 5 68
100 100 100 100 75 62 7 5 22 70 78 89 85 100 100 64 36 17 5 0 3 5 5 5 5 66 25 100 98 42 100 50 84 100 100 100 73 27 9 40 5 5 5
43 62 61 12 5 5 5 41 53 30 55 91 74 17 5 5 5 7 0 5 14 51 12 6 8 98 99 91 100 100 100 82 32 100 100 99 99 100 97 97 42 5 5
73 62 5 5 6 5 5 5 13 63 55 7 9 33 33 13 10 5 5 59 100 97 94 98 84 100 100 100 100 100 100 100 56 98 100 100 100 100 90 82 52 93 40
57 5 6 5 5 5 5 5 58 45 9 8 8 17 76 92 86 91 88 94 66 97 100 94 100 100 100 100 100 96 100 100 98 100 100 100 100 100 92 83 44 96 74
5 5 8 5 5 5 5 9 96 85 100 91 91 36 5 5 5 5 29 100 100 100 100 100 100 100 100 94 100 100 100 100 100 96 100 100 100 100 100 80 50 57 80
5 5 5 5 5 70 62 89 98 70 90 100 97 77 86 75 19 7 10 100 100 100 100 100 100 100 100 100 97 99 100 100 100 98 100 97 76 93 100 100 90 65 62
5 5 5 45 40 77 88 95 29 69 93 62 47 16 57 44 65 94 22 98 100 99 100 100 100 98 100 100 100 100 100 100 100 100 99 89 92 99 100 100 64 72 79
5 24 50 42 83 69 65 45 94 100 100 100 43 13 69 14 62 88 100 100 100 100 100 100 100 96 100 100 100 100 100 100 100 100 100 92 99 100 88 80 57 54 75
36 66 45 38 91 80 69 100 100 100 100 100 100 100 100 91 72 61 90 100 100 100 100 100 100 100 100 100 100 100 100 100 100 100 100 100 100 100 92 93 63 42 63
100 100 100 74 58 88 97 100 100 100 100 100 100 100 100 100 100 100 100 100 100 100 100 100 100 100 100 100 100 100 100 100 100 100 100 100 100 100 100 96 56 75 39
89 90 80 61 60 93 91 94 100 100 100 100 100 100 97 100 100 100 100 100 100 100 100 100 100 100 100 100 100 100 100 100 100 100 100 100 100 100 100 93 66 61 52
100 98 50 27 52 47 10 43 100 99 100 100 100 100 100 100 100 100 100 100 100 100 100 100 100 100 100 100 100 100 100 100 100 100 100 100 100 100 100 99 66 84 69
100 98 84 25 46 26 30 52 98 40 78 100 100 100 100 100 100 100 100 100 100 100 100 100 100 100 100 100 100 100 100 100 100 100 100 100 100 100 100 100 92 100 100
100 97 90 100 95 100 86 28 88 8 42 84 100 100 100 100 100 100 100 100 100 100 100 100 100 100 100 100 100 100 100 100 100 100 100 100 100 100 100 100 100 97 99
100 98 38 97 66 37 42 54 67 32 56 88 97 100 100 100 100 100 100 100 100 100 100 100 100 100 100 100 100 100 100 100 100 100 100 100 100 100 100 100 100 100 100

GFSGL_prec_cloud_051.txt.gz
Cloud_Cover
6 42 100 100 100 100 100 100 100 100 100 100 100 100 100 100 100 100 100 100 84 94 92 90 85 94 80 5 5 5 5 33 80 5 5 3 0 0 0 0 0 0 0
23 72 100 100 100 100 100 100 100 100 100 100 100 100 100 100 100 100 100 100 100 100 100 98 80 51 34 5 5 5 5 5 5 5 5 4 4 0 4 0 0 0 0
75 100 100 100 100 100 100 100 100 100 100 100 100 99 100 100 100 97 81 100 100 100 56 62 6 5 5 5 5 5 5 5 13 5 5 5 5 5 5 1 0 0 0
100 100 100 100 100 100 96 75 100 100 100 93 92 100 100 100 100 100 100 94 67 100 63 11 7 5 5 5 5 5 5 80 95 5 34 5 5 5 5 0 1 5 5
100 100 100 100 100 100 74 70 100 100 71 99 100 100 100 100 100 100 100 94 100 82 66 7 5 8 14 5 13 5 62 80 73 81 94 64 12 5 5 1 5 7 57
60 100 100 91 100 64 100 100 100 31 100 100 100 100 100 100 100 100 100 100 68 13 5 43 18 14 5 38 100 99 100 100 33 100 99 97 6 5 5 5 5 5 5
21 49 85 100 100 100 100 100 97 95 100 100 100 100 100 100 95 90 74 5 5 5 50 7 15 22 5 46 83 81 30 13 95 81 70 52 87 23 5 19 5 54 59
52 99 100 86 92 94 90 100 100 100 100 100 99 100 99 97 68 26 6 5 5 55 78 20 32 5 5 20 89 88 47 37 5 5 5 5 54 8 5 54 99 97 94
96 97 84 91 99 94 100 100 100 93 98 100 72 32 5 68 20 5 5 8 60 58 53 65 9 5 5 59 76 58 99 81 100 61 5 5 5 5 5 81 100 100 99
19 70 77 90 98 100 98 100 100 98 100 85 5 5 5 5 5 5 57 6 5 47 5 5 5 2 5 66 96 70 100 28 94 5 5 5 5 5 5 7 92 100 100
78 67 74 100 99 88 87 91 5 5 5 5 5 5 5 5 5 5 40 48 27 5 5 5 5 1 5 84 100 62 68 74 92 72 73 5 21 5 21 83 78 98 100
65 69 67 55 28 26 5 5 5 6 5 5 5 9 5 5 8 64 57 24 14 94 42 5 5 5 52 87 99 95 100 100 100 74 73 96 57 18 52 98 98 48 85
8 5 5 5 5 8 21 39 19 5 5 5 5 5 46 71 50 5 5 31 5 8 56 97 92 64 64 98 100 100 100 100 100 100 100 100 80 60 100 94 100 70 87
40 5 7 24 51 55 57 59 33 5 5 5 5 8 81 6 5 40 33 9 48 44 20 95 99 99 100 100 93 99 100 100 100 100 100 100 100 96 100 100 100 100 98
5 6 25 60 84 52 49 41 5 5 5 13 59 71 50 84 100 100 90 96 82 62 76 100 100 100 100 100 100 100 100 100 100 100 100 100 100 100 100 100 100 100 98
22 35 18 18 5 5 26 59 53 67 37 53 50 74 98 58 50 74 95 60 46 93 97 100 100 100 100 100 100 100 100 100 100 100 100 100 100 100 100 100 100 100 97
65 71 52 21 5 23 54 87 100 76 11 70 58 63 75 97 90 99 100 81 8 46 93 100 100 86 100 100 100 100 100 100 100 100 100 100 100 100 100 100 100 100 98
71 34 7 35 26 22 57 28 10 5 37 5 5 34 58 69 73 100 100 48 20 65 100 100 100 100 100 95 96 100 100 100 100 100 100 100 100 100 100 100 100 98 100
82 64 43 29 25 6 5 5 5 11 12 5 5 5 31 61 57 96 100 99 100 100 100 100 100 100 100 100 100 100 100 100 100 100 100 100 100 100 100 100 99 100 89
88 85 87 37 8 34 30 16 5 61 14 62 35 75 95 69 96 100 100 100 100 100 100 100 100 100 100 100 100 100 100 100 100 100 100 100 100 100 100 100 100 100 98
88 81 93 73 72 60 41 55 78 91 80 86 99 100 98 100 100 100 100 100 100 100 100 100 100 100 100 100 100 100 100 100 100 100 100 100 100 100 100 100 100 100 100
90 89 96 100 98 75 84 42 88 90 71 96 95 88 89 100 100 100 100 100 100 100 100 100 100 100 100 100 100 100 100 100 100 100 100 100 100 100 100 100 100 100 100
99 100 100 99 80 100 100 100 85 90 79 99 97 100 100 100 100 100 100 100 100 100 100 100 100 100 100 100 100 100 100 100 100 100 100 100 100 100 100 100 100 100 100
98 100 100 99 100 100 100 98 62 21 42 77 98 100 100 100 100 100 100 100 100 100 100 100 100 100 100 100 100 100 100 100 100 100 100 100 100 100 100 100 100 100 100
100 100 100 100 100 100 80 64 45 71 76 98 100 100 100 100 100 100 100 100 100 100 100 100 100 100 100 100 100 100 100 100 100 100 100 100 100 100 100 100 100 100 100
100 100 100 100 97 95 92 68 70 85 97 100 100 100 100 100 100 100 100 100 100 100 100 100 100 100 100 100 100 100 100 100 100 100 100 100 100 100 100 100 100 100 100

GFSGL_prec_cloud_054.txt.gz
Cloud_Cover
13 54 99 99 100 100 100 100 100 100 100 100 100 100 100 100 100 100 100 100 100 100 100 98 99 95 100 100 97 100 55 64 41 5 88 99 89 93 90 60 5 3 0
19 50 97 100 100 100 100 100 100 100 100 100 100 100 100 100 100 100 100 100 100 100 100 75 100 100 100 100 100 100 98 100 99 75 90 100 100 100 100 98 5 0 0
22 86 100 100 100 100 100 100 100 100 100 100 100 100 100 100 100 100 100 100 100 100 100 100 100 100 100 100 92 100 100 100 100 100 94 100 100 100 100 100 53 4 0
85 100 100 100 100 100 100 100 100 100 100 100 100 100 100 100 100 100 100 100 100 100 100 100 100 100 82 57 81 96 100 100 100 100 100 100 100 100 100 100 89 2 0
100 100 100 100 100 100 100 99 94 100 100 100 100 100 100 100 100 100 100 100 100 100 100 100 91 18 25 46 9 29 98 100 100 100 99 100 100 100 100 100 70 2 1
100 100 100 100 100 100 83 78 60 85 51 100 100 100 100 100 100 100 95 85 32 53 78 44 5 5 11 7 5 5 5 47 97 94 100 100 100 100 100 100 79 5 4
85 98 65 31 43 14 18 28 76 100 70 100 94 100 100 100 100 100 60 6 5 5 5 5 5 5 5 7 7 5 5 5 5 57 96 99 100 100 100 100 19 5 5
5 9 11 31 23 83 79 75 26 87 98 97 100 100 100 100 76 60 5 5 5 5 5 5 5 5 5 15 49 65 71 68 45 74 22 71 100 100 100 95 39 21 61
5 13 50 74 69 76 64 56 86 98 100 100 100 100 87 57 11 26 5 5 5 12 5 5 5 5 5 5 5 5 42 82 100 35 100 97 26 20 96 28 38 94 90
88 100 96 78 88 100 100 100 100 97 100 100 77 38 5 5 5 9 5 5 5 7 5 5 5 5 6 5 5 5 89 30 97 100 81 30 100 54 70 5 38 83 91
59 69 92 100 96 78 62 73 100 78 41 57 8 8 33 5 5 32 9 5 5 5 5 5 5 18 94 33 92 60 51 57 100 99 100 100 97 99 93 72 96 100 100
70 97 90 69 72 92 81 31 29 9 26 28 28 27 8 5 5 5 12 25 26 39 5 5 6 5 20 95 100 65 46 77 100 100 100 100 100 100 96 100 100 100 100
92 85 81 78 75 52 54 12 5 42 53 88 48 5 5 5 5 5 5 5 5 18 57 5 5 5 55 99 100 100 100 100 100 100 100 100 100 100 100 100 100 100 100
66 62 27 30 24 5 5 5 61 86 45 5 5 5 5 5 10 56 46 57 56 29 40 8 5 5 6 89 100 100 100 100 100 99 100 100 100 99 100 100 100 100 100
86 60 10 28 34 14 25 26 44 16 5 5 5 5 14 16 30 76 94 79 87 95 84 19 81 16 46 100 100 100 100 100 98 100 100 100 100 100 100 100 100 100 100
46 58 92 100 98 66 76 75 36 5 5 13 31 36 12 78 72 81 81 71 79 64 63 100 98 64 61 76 97 100 100 100 100 100 100 100 100 100 100 100 100 100 100
100 100 100 88 75 87 100 81 51 6 5 5 6 7 63 62 49 62 65 47 41 62 99 100 100 94 96 100 100 100 100 100 100 100 100 100 100 100 100 100 100 100 100
70 65 62 86 100 88 9 29 27 6 8 5 15 10 5 34 58 76 89 53 44 36 100 100 100 100 99 97 100 100 100 100 100 100 100 100 100 100 100 100 100 100 100
87 67 68 77 67 10 24 9 5 5 27 53 51 5 24 21 90 100 100 100 100 100 100 100 100 100 100 100 100 100 98 64 74 100 100 100 100 100 100 100 100 100 100
99 92 87 78 67 51 21 8 40 76 76 44 32 86 86 8 96 100 100 100 100 100 100 100 100 100 100 100 100 100 98 99 99 99 100 100 100 100 100 100 100 100 100
90 100 92 100 98 80 72 86 94 81 66 59 92 100 56 92 100 100 100 100 100 100 100 100 100 100 100 100 100 100 100 100 100 100 100 100 100 100 100 100 100 100 100
100 100 100 87 83 97 89 90 68 78 84 82 78 68 80 100 100 100 100 100 100 100 100 100 100 100 100 100 100 100 100 100 100 100 100 100 100 100 100 100 100 100 100
100 100 100 100 96 99 100 80 85 99 80 91 86 96 100 100 100 100 100 100 100 100 100 100 100 100 100 100 100 100 100 100 100 100 100 100 100 100 100 100 100 100 100
100 100 100 100 100 100 100 100 100 74 100 99 100 100 100 100 100 100 100 100 100 100 100 100 100 100 100 100 100 100 100 100 100 100 100 100 100 100 100 100 100 100 100
100 100 100 100 100 100 100 100 100 100 100 100 100 100 100 100 100 100 100 100 100 100 100 100 100 100 100 100 100 100 100 100 100 100 100 100 100 100 100 100 100 100 100
100 100 100 100 100 100 100 100 100 100 100 100 100 100 100 100 100 100 100 100 100 100 100 100 100 100 100 100 100 100 100 100 100 100 100 100 100 100 100 100 100 100 100

GFSGL_prec_cloud_057.txt.gz
Cloud_Cover
27 100 100 100 99 64 98 100 100 100 100 100 100 100 100 100 100 100 100 100 100 100 100 100 100 100 100 100 100 88 100 100 90 24 53 29 35 100 59 29 54 25 10
72 100 100 100 100 100 100 100 100 100 100 100 100 100 100 100 100 100 100 100 100 100 100 90 73 99 99 90 100 100 100 66 66 5 5 6 73 55 12 70 24 50 57
98 92 91 100 100 100 100 100 100 100 100 100 100 100 100 100 100 100 100 100 100 100 100 100 100 100 98 93 100 80 65 52 77 98 50 42 76 99 100 96 99 15 65
38 51 100 100 100 100 100 100 100 100 100 100 100 100 100 100 100 100 100 100 100 100 100 100 100 100 71 100 74 56 18 19 5 37 39 5 89 61 100 100 61 100 98
66 94 100 100 100 100 100 100 100 100 100 100 100 100 100 100 100 100 100 100 100 100 100 100 62 66 75 74 58 22 18 5 5 5 5 42 32 84 96 99 69 92 92
100 100 100 100 95 85 91 83 66 59 66 51 94 100 100 100 98 100 100 100 100 72 81 65 26 12 5 45 61 42 5 5 4 5 5 5 35 99 100 90 100 100 95
83 60 42 38 33 34 21 52 65 85 98 100 100 100 100 100 100 100 86 34 53 95 21 35 12 5 5 5 5 5 6 89 77 2 18 5 5 42 100 67 100 100 87
5 5 6 45 76 91 90 89 100 100 100 100 100 100 100 96 48 14 69 100 69 98 55 5 5 5 5 12 93 76 5 8 18 28 6 93 99 95 34 94 100 78 7
5 49 72 83 98 100 100 100 100 100 100 100 100 88 71 80 99 87 31 68 68 5 5 5 5 5 5 5 6 9 5 5 3 33 100 100 100 100 96 100 99 98 5
6 40 87 98 92 95 100 100 98 74 28 30 29 49 21 5 9 10 54 13 5 5 6 36 5 5 5 3 17 63 8 5 5 5 70 100 100 75 68 100 100 100 85
35 35 32 74 97 76 36 50 61 55 28 28 20 5 6 11 80 100 27 5 5 11 7 8 5 5 5 5 5 6 30 42 42 6 9 98 94 59 87 100 100 100 100
82 85 63 73 97 100 100 100 86 60 50 54 99 100 100 100 28 17 5 16 14 5 5 5 5 5 5 5 5 5 8 79 100 99 82 82 93 100 97 96 83 72 54
65 88 93 69 88 81 30 11 8 87 100 31 78 71 30 5 5 13 66 18 5 5 5 5 5 5 5 5 5 5 13 79 100 100 100 100 100 100 85 100 100 100 94
30 38 59 10 18 5 5 5 5 5 5 5 7 32 39 59 51 12 5 5 5 5 5 5 5 36 22 18 12 8 51 77 100 100 100 100 100 100 100 100 100 100 99
100 99 45 7 28 5 35 5 5 20 8 21 21 18 13 5 33 31 55 34 27 35 20 5 52 22 62 46 15 99 100 100 100 100 100 100 99 88 99 100 100 100 100
76 51 8 5 11 25 7 5 30 5 5 5 5 5 5 36 74 62 70 76 70 34 13 24 53 99 100 100 98 77 100 97 100 100 100 100 100 100 90 100 98 100 100
65 5 5 5 5 5 5 5 5 7 50 5 5 5 5 5 32 65 86 45 13 13 68 76 98 100 100 100 100 94 100 100 100 100 100 100 100 100 100 100 100 100 100
100 96 96 90 74 8 8 25 38 5 5 54 66 8 5 5 5 63 91 56 87 78 100 100 100 100 100 100 100 100 100 99 100 100 100 100 94 93 94 100 100 100 100
98 95 82 100 100 100 89 60 45 40 37 5 8 35 79 33 5 83 91 100 100 100 100 100 100 100 100 100 100 100 100 90 100 100 100 86 100 96 100 100 100 100 100
98 92 85 87 100 100 100 99 97 79 62 73 96 99 100 36 12 86 100 100 100 100 100 100 100 100 100 100 100 100 100 100 100 100 100 100 100 100 100 100 100 100 100
100 100 100 100 100 100 100 100 100 100 100 100 100 100 84 43 100 100 100 100 100 100 100 100 100 100 100 100 100 100 100 100 100 100 100 100 100 100 100 100 100 100 100
100 100 100 100 100 100 100 100 100 100 100 100 100 100 100 100 100 100 100 100 100 100 100 100 100 100 100 100 100 100 100 100 100 100 100 100 99 100 100 100 100 100 100
100 100 100 100 100 100 100 100 100 100 100 100 100 100 100 100 100 100 100 100 100 100 100 100 100 100 100 100 100 100 100 100 100 100 100 100 100 100 100 100 100 100 100
100 100 100 100 100 100 100 100 100 100 100 100 100 100 100 100 100 100 100 100 100 100 100 100 100 100 100 100 100 100 100 100 100 100 100 100 100 100 100 100 100 100 100
100 100 100 100 100 100 100 100 100 100 100 100 100 100 100 100 100 100 100 100 100 100 100 100 100 100 100 100 100 100 100 100 100 100 100 100 100 100 100 100 100 100 100
100 100 100 100 100 100 100 100 100 100 100 100 100 100 100 100 100 100 100 100 100 100 100 100 100 100 100 100 100 100 100 100 100 100 100 100 100 100 100 100 100 100 100

GFSGL_prec_cloud_060.txt.gz
Cloud_Cover
79 99 70 33 22 100 100 100 95 89 100 100 100 100 100 100 100 100 100 100 100 100 100 100 100 100 94 58 82 95 88 90 58 20 11 90 10 5 6 77 100 61 5
100 100 100 100 100 100 87 52 100 99 100 100 100 100 100 100 100 100 100 100 100 100 100 100 98 100 98 100 97 81 75 48 59 5 42 5 5 5 5 5 17 88 61
98 98 94 100 99 74 100 100 100 100 100 100 100 100 100 100 100 100 100 100 100 100 100 100 100 100 96 100 100 98 71 39 5 13 6 5 5 98 100 100 57 100 61
77 66 100 100 76 100 100 100 100 100 100 100 100 100 100 100 100 100 100 100 100 100 100 100 100 75 100 96 18 5 5 5 34 89 73 80 96 51 66 100 73 100 67
65 100 88 73 100 100 100 100 100 100 100 100 100 100 100 100 100 100 100 100 100 100 100 95 20 5 5 48 38 33 61 5 27 17 6 5 4 4 22 77 97 100 71
21 44 60 100 100 100 97 100 100 100 100 99 72 23 98 90 100 100 100 100 100 91 11 14 5 6 26 5 5 42 84 99 91 100 73 85 6 99 99 100 100 100 95
16 76 100 100 98 100 97 100 52 45 26 77 100 97 87 90 83 76 53 5 5 8 51 100 99 85 5 5 5 5 53 41 6 88 100 59 20 46 100 100 100 100 100
76 84 58 31 28 49 22 11 67 99 52 73 15 5 5 61 9 6 34 95 62 19 35 83 66 48 39 5 6 37 50 5 5 38 100 28 5 22 91 100 100 100 100
64 4 4 5 5 90 100 79 100 98 28 15 21 31 5 28 71 9 37 96 67 90 100 72 17 11 22 22 15 5 5 5 5 5 8 5 29 100 74 100 100 100 66
5 18 5 22 78 100 100 58 36 46 70 92 12 5 5 5 28 9 5 5 5 6 82 74 42 6 30 10 5 11 72 5 5 5 5 5 4 49 100 100 100 99 5
5 5 22 87 88 51 35 21 11 94 26 15 9 34 60 5 39 6 5 5 5 5 5 5 15 5 5 5 5 6 8 5 5 42 77 86 20 11 87 100 100 59 97
5 5 5 5 5 6 41 58 100 71 31 82 12 7 5 5 17 8 5 2 4 5 5 5 5 5 5 5 5 7 54 98 100 99 66 100 100 26 100 100 94 100 92
48 7 62 44 7 5 92 100 99 72 41 22 6 5 6 5 5 4 0 3 5 5 5 5 5 5 5 5 22 13 15 63 87 77 98 100 100 100 100 100 100 91 62
5 10 91 98 81 74 94 63 76 12 5 5 5 5 5 5 5 5 5 5 5 5 5 5 5 5 5 5 5 5 10 66 90 100 100 99 85 100 100 100 100 100 97
20 64 56 92 90 57 99 90 9 5 5 5 5 16 5 5 5 5 9 5 11 5 5 5 5 5 5 5 5 5 53 67 91 99 100 100 100 100 100 100 100 100 91
100 100 100 100 67 25 97 60 18 56 82 24 28 6 5 5 9 90 100 61 51 5 10 14 16 5 5 5 11 20 41 48 99 100 100 97 100 100 100 100 100 98 85
100 100 100 100 100 94 100 100 100 78 82 78 53 5 10 25 100 100 76 38 5 21 97 74 40 5 23 12 70 97 100 99 100 100 100 100 100 100 100 100 100 98 84
100 100 100 100 100 100 100 91 76 76 97 100 99 75 98 100 100 86 82 18 24 70 49 12 5 5 7 88 92 100 100 100 99 100 100 100 100 100 98 100 90 100 86
100 100 100 100 100 100 100 100 100 98 98 90 79 100 100 100 100 87 74 96 87 95 76 53 5 5 24 70 100 100 93 100 99 100 100 100 100 100 100 100 100 100 100
100 100 100 100 100 100 100 100 100 100 100 100 100 100 100 100 100 100 100 100 100 100 63 6 32 74 81 100 100 100 100 100 100 100 100 100 100 100 100 100 100 100 100
100 100 100 100 100 100 100 100 100 100 100 100 100 100 100 100 100 100 100 100 100 85 7 100 100 89 96 100 100 99 100 100 96 100 100 100 100 100 100 100 100 100 100
100 100 100 100 100 100 100 100 100 100 100 100 100 100 100 100 100 100 100 99 59 48 100 96 89 100 100 100 93 82 100 100 100 100 100 100 100 100 100 100 100 100 100
100 100 100 100 100 100 100 100 100 100 100 100 100 100 100 100 100 100 100 77 83 98 71 95 100 100 59 21 95 100 100 100 100 99 100 100 100 100 100 100 100 100 100
100 100 100 100 100 100 100 100 100 100 100 100 100 100 100 100 100 100 100 96 49 22 20 100 67 5 80 100 100 100 100 100 100 100 100 100 100 100 100 100 100 100 100
100 100 100 100 100 100 100 100 100 100 100 100 100 100 100 100 100 100 97 93 62 80 97 5 42 100 99 86 66 98 100 100 100 100 86 100 100 100 100 100 100 100 100
100 100 100 100 100 100 100 100 100 100 100 100 100 100 100 100 100 100 100 84 99 88 5 94 69 75 84 97 93 100 100 100 100 100 100 100 100 100 100 100 100 100 100

GFSGL_prec_cloud_063.txt.gz
Cloud_Cover
100 47 93 100 98 98 100 100 100 100 100 100 100 100 100 100 100 98 94 100 100 100 100 100 100 100 100 100 98 73 77 100 98 50 5 5 5 5 4 4 5 5 5
100 100 100 100 100 100 100 100 100 100 100 100 100 100 100 100 100 100 100 100 100 100 100 100 100 100 100 96 100 77 100 100 100 98 5 5 5 4 6 94 99 79 36
100 100 100 100 100 100 100 100 100 100 100 100 100 100 100 100 100 100 100 100 100 100 100 100 100 100 97 71 80 99 96 100 86 66 5 5 5 5 37 78 11 72 85
100 100 100 100 100 100 100 100 100 100 100 100 100 100 100 100 100 100 100 100 100 100 100 97 96 88 5 5 9 14 5 5 5 5 7 17 47 35 76 61 29 12 52
100 100 100 100 100 100 100 99 100 100 100 100 100 100 100 100 100 100 100 100 100 100 100 99 25 5 5 5 27 26 5 16 64 8 6 5 5 5 17 5 5 58 100
100 99 87 100 70 54 72 75 100 100 100 100 100 100 100 99 78 83 84 96 100 96 84 19 4 3 4 5 0 0 4 5 5 5 5 83 72 100 100 93 29 100 87
51 60 96 71 45 92 92 100 100 100 100 100 78 33 12 63 49 80 42 38 5 5 5 5 5 5 5 4 0 0 5 5 5 5 5 5 55 89 92 72 41 92 95
100 100 86 72 78 100 100 100 100 62 8 2 4 31 36 28 38 13 22 5 5 14 5 5 5 5 5 5 5 5 5 13 23 5 5 5 5 10 41 82 86 7 47
100 99 90 74 46 41 84 71 14 0 4 5 5 89 89 58 50 5 5 5 6 5 8 17 5 7 8 5 5 5 16 5 5 5 3 5 4 5 5 5 91 100 100
21 2 5 5 5 93 100 100 96 5 5 5 5 5 91 92 5 5 4 6 17 5 5 24 37 27 56 10 58 22 78 16 33 38 34 16 47 99 100 27 40 100 100
5 5 5 11 22 100 86 5 6 6 5 71 5 45 62 22 5 5 5 5 5 13 65 87 55 43 40 73 100 78 72 57 82 100 100 95 52 77 98 92 35 100 100
86 62 5 29 41 8 5 5 7 5 14 5 32 40 79 24 22 33 5 6 22 99 69 69 17 35 94 100 95 100 87 51 62 86 74 100 100 99 94 96 99 100 100
100 100 100 100 52 5 5 26 5 5 46 72 80 43 88 99 92 25 56 82 18 100 64 12 24 30 100 100 100 85 36 12 65 100 100 86 95 98 99 97 99 100 100
100 100 100 47 14 99 87 48 92 99 100 100 87 60 98 100 95 100 100 84 100 96 20 72 55 100 100 100 97 100 66 96 67 100 98 100 87 96 100 100 100 100 98
100 100 98 12 80 100 100 100 100 100 100 100 100 100 100 100 100 96 99 100 100 22 90 100 100 100 100 100 96 100 100 95 91 97 100 100 97 98 100 100 100 100 100
100 100 80 89 100 100 100 100 100 100 100 100 100 100 100 100 88 92 100 95 88 85 100 100 100 100 100 95 100 100 100 48 74 98 96 100 100 100 100 100 100 94 80
100 100 99 100 100 100 100 100 100 100 100 100 100 100 100 100 69 63 97 100 100 100 100 100 100 100 100 100 100 99 100 84 40 100 100 100 100 100 100 100 100 100 100
100 100 100 100 100 100 100 100 100 100 100 100 100 100 100 100 95 95 100 100 100 100 100 100 100 100 100 100 96 89 92 97 98 100 100 100 100 100 100 99 100 100 90
100 100 100 100 100 100 100 100 100 100 100 100 100 100 100 100 100 100 100 100 100 100 100 100 100 100 100 100 62 7 67 81 58 96 75 100 100 100 100 100 100 100 100
100 100 100 100 100 100 100 100 100 100 100 100 100 100 100 100 100 100 100 100 100 100 100 100 100 100 100 38 57 83 98 7 95 100 95 100 100 100 100 100 100 100 100
100 100 100 100 100 100 100 100 100 100 100 100 100 100 100 100 100 100 100 100 100 100 100 100 100 100 58 49 94 70 5 50 100 90 100 100 100 100 100 100 100 100 100
100 100 100 100 100 100 100 100 100 100 100 100 100 100 100 100 100 100 100 100 100 100 100 100 97 61 76 77 19 34 99 100 100 100 100 100 100 100 100 100 100 100 100
100 100 100 100 100 100 100 100 100 100 100 100 100 100 100 100 100 100 100 100 100 100 100 79 89 73 18 8 70 100 100 100 100 100 100 100 100 100 100 100 100 100 100
100 100 100 100 100 100 100 100 100 100 100 100 100 100 100 100 100 100 100 100 100 100 57 60 27 6 68 48 6 28 99 100 100 100 100 100 100 100 100 100 100 100 100
100 100 100 100 100 100 100 100 100 100 100 100 100 100 100 100 100 100 100 100 66 96 14 5 6 22 5 5 5 51 94 100 100 100 100 100 100 100 100 100 100 100 100
100 100 100 100 100 100 100 100 100 100 100 100 100 100 100 100 100 100 86 45 84 71 43 5 5 5 5 69 99 100 100 100 100 100 100 100 100 100 100 100 100 100 100

GFSGL_prec_cloud_066.txt.gz
Cloud_Cover
100 100 100 100 100 100 99 100 100 100 100 100 100 100 100 100 100 100 100 100 100 100 100 100 100 100 100 90 100 100 100 62 55 53 100 48 16 5 5 5 5 5 2
100 100 100 100 100 100 100 100 100 100 100 100 100 100 100 100 100 100 100 100 100 100 100 100 100 100 100 100 100 83 100 94 17 94 91 14 5 5 5 5 5 5 5
100 100 100 100 100 100 100 100 100 100 100 100 100 100 100 100 100 100 100 100 100 100 100 100 100 100 100 100 84 82 7 17 94 43 5 5 5 4 5 5 38 95 95
100 100 100 100 100 100 100 100 100 100 100 100 100 100 100 100 100 100 100 100 100 100 100 100 100 100 100 19 5 9 5 5 5 5 5 3 4 5 5 5 5 5 5
100 100 100 100 100 100 100 100 100 100 100 100 100 100 100 100 100 100 100 100 100 100 100 100 100 66 72 8 5 5 5 26 5 5 5 5 5 5 9 5 49 66 6
100 100 100 100 100 100 100 100 100 100 100 100 100 100 100 100 100 100 100 100 100 100 100 66 71 43 1 3 5 5 5 5 5 5 5 5 5 87 5 5 41 71 86
100 100 100 100 100 100 100 100 100 100 100 100 100 100 100 100 99 97 100 100 100 76 53 8 5 5 5 5 5 5 5 5 5 5 5 5 66 48 5 6 5 23 83
100 100 100 100 100 100 100 100 100 100 100 100 100 100 57 26 100 100 96 33 5 5 5 5 5 5 5 5 5 5 12 5 5 50 86 83 100 96 100 69 87 85 59
100 100 100 100 100 100 100 100 100 100 100 98 16 4 4 47 66 15 5 5 5 5 5 5 74 68 5 5 5 6 96 60 24 92 66 100 100 100 100 100 100 100 100
96 62 100 100 98 100 100 100 86 40 10 33 11 22 7 57 100 8 5 5 7 38 50 10 67 18 5 5 5 16 99 79 89 49 94 100 100 100 100 100 94 100 100
23 95 100 100 100 83 38 4 2 2 37 69 59 100 78 8 35 5 5 48 92 74 64 68 40 21 5 5 26 100 84 100 100 85 100 100 78 99 98 96 100 100 100
72 100 85 75 43 97 100 64 5 5 17 28 26 5 5 22 76 6 92 100 100 100 100 96 93 99 63 52 79 99 100 100 100 100 100 97 100 88 98 100 99 100 97
28 40 100 99 78 100 52 22 5 11 54 50 5 52 99 100 42 95 100 99 100 100 100 100 100 100 100 100 100 100 100 100 100 100 100 99 100 90 88 42 91 100 100
46 6 45 76 76 59 56 70 100 87 67 47 83 100 91 28 100 98 84 86 100 100 100 100 100 100 100 100 100 100 100 100 100 100 100 99 96 100 97 71 100 87 100
94 40 84 100 86 88 99 89 100 100 82 75 82 90 93 100 99 96 100 100 100 100 100 100 100 100 100 100 100 100 100 100 100 100 100 100 98 100 100 97 100 100 100
71 88 100 100 100 100 100 100 100 100 100 100 100 100 100 100 100 100 100 100 100 100 100 100 100 100 100 100 100 100 100 100 100 100 100 100 100 100 100 81 100 100 100
99 97 100 100 100 100 100 100 100 100 100 100 100 100 100 100 100 100 100 100 100 100 100 100 100 100 100 100 100 100 100 100 100 100 97 99 100 100 100 100 92 100 100
100 100 100 100 100 100 100 100 100 100 100 100 100 100 100 100 100 100 100 100 100 100 100 100 100 100 100 100 100 100 100 100 100 93 100 6 86 100 100 100 100 100 99
100 100 100 100 100 100 100 100 100 100 100 100 100 100 100 100 100 100 100 100 100 100 100 100 100 100 100 100 100 100 100 100 78 18 90 55 99 99 100 100 100 100 100
100 100 100 100 100 100 100 100 100 100 100 100 100 100 100 100 100 100 100 100 100 100 100 100 100 100 100 100 100 100 100 67 42 93 99 95 67 59 100 100 100 100 100
100 100 100 100 100 100 100 100 100 100 100 100 100 100 100 100 100 100 100 100 100 100 100 100 100 100 100 100 100 100 46 83 70 99 100 100 99 100 100 100 100 100 100
100 100 100 100 100 100 100 100 100 100 100 100 100 100 100 100 100 100 100 100 100 100 100 100 100 100 100 100 73 100 100 99 65 65 100 100 100 100 100 100 100 100 100
100 100 100 100 100 100 100 100 100 100 100 100 100 100 100 100 100 100 100 100 100 100 100 100 100 100 100 44 50 86 100 100 100 100 100 100 100 100 100 100 100 100 100
100 100 100 100 100 100 100 100 100 100 100 100 100 100 100 100 100 100 100 100 100 100 100 100 100 98 29 24 5 23 79 100 100 100 100 100 100 100 100 100 100 100 100
100 100 100 100 100 100 100 100 100 100 100 100 100 100 100 100 100 100 100 100 100 100 100 100 100 60 5 5 5 8 71 100 98 100 100 100 100 100 100 100 100 100 100
100 100 100 100 100 100 100 100 100 100 100 100 100 100 97 100 100 100 95 71 32 44 53 5 14 5 5 26 88 100 72 72 100 100 100 100 100 100 100 100 100 100 100

GFSGL_prec_cloud_069.txt.gz
Cloud_Cover
95 100 100 100 100 100 100 100 100 100 100 100 100 100 100 100 100 100 100 100 100 100 100 100 100 100 100 100 98 100 100 100 100 96 94 99 65 5 5 40 27 6 5
100 100 100 100 100 100 100 100 100 100 100 100 100 100 100 100 100 100 100 100 100 100 100 100 100 100 100 100 100 89 100 100 100 100 19 5 5 24 7 5 6 14 5
100 100 100 100 100 100 100 100 100 100 100 100 100 100 100 100 100 100 100 100 100 100 100 100 100 100 100 100 77 100 100 77 97 19 5 5 5 5 29 31 47 58 5
100 100 100 100 60 100 100 100 100 100 100 100 100 100 100 100 100 100 100 100 100 100 100 100 100 100 100 100 98 100 6 5 5 5 5 5 5 5 5 5 32 17 48
100 100 100 100 96 100 100 100 100 100 100 100 100 100 100 100 100 100 100 100 100 100 100 100 100 100 100 100 98 64 5 5 5 13 5 5 5 5 6 8 6 5 54
100 92 100 100 65 100 100 100 100 100 100 100 100 100 100 100 100 100 100 100 100 100 100 100 100 100 100 99 15 5 5 5 7 76 5 5 5 5 5 7 5 6 28
87 77 100 100 100 100 100 100 100 100 100 100 100 100 100 100 100 100 100 100 100 100 100 100 100 100 9 5 5 6 100 64 67 32 6 78 35 5 8 34 90 100 100
100 100 100 100 100 100 100 100 100 100 100 100 100 100 100 100 100 100 100 100 100 100 100 100 77 5 7 5 14 100 100 100 100 100 100 100 97 97 100 100 100 100 100
100 100 100 100 100 100 100 100 100 100 100 100 100 100 100 100 100 100 100 100 100 100 54 9 61 26 44 24 100 100 100 100 100 100 100 100 100 100 100 100 100 100 100
100 100 100 100 100 100 100 100 100 100 100 100 100 100 100 100 100 100 100 100 32 4 1 14 99 87 100 98 100 97 100 100 100 100 100 100 100 100 100 99 100 100 100
100 100 100 100 100 100 100 100 100 100 100 100 100 100 100 100 100 100 66 6 25 71 53 86 100 99 100 100 100 100 100 100 100 100 100 100 97 100 100 100 100 100 100
100 100 100 100 100 100 100 100 100 100 100 98 76 100 100 100 100 100 75 54 53 100 100 100 93 100 100 100 100 100 100 100 98 92 76 49 51 100 100 100 100 100 100
100 100 100 100 100 100 100 100 100 100 96 100 100 100 100 100 52 98 100 100 100 100 100 100 100 100 100 99 99 100 98 99 93 83 91 98 100 100 100 100 100 100 100
63 100 100 100 100 100 100 100 100 88 100 100 100 99 88 100 100 100 100 100 100 100 100 100 100 100 100 100 100 100 100 100 100 96 100 100 100 100 100 100 100 100 91
89 100 100 100 100 100 100 100 99 92 93 94 91 100 100 100 100 100 100 100 100 100 100 100 100 100 100 100 100 100 100 100 100 98 100 100 100 100 100 100 100 99 100
86 99 100 100 100 100 100 100 100 100 100 100 100 100 100 100 100 100 100 100 100 100 100 100 100 100 100 100 100 100 100 100 100 100 100 100 100 100 100 100 100 100 100
100 100 100 100 100 100 100 100 100 100 100 100 100 100 100 100 100 100 100 100 100 100 100 100 100 100 100 100 100 100 100 100 100 100 100 100 100 100 100 100 100 100 100
100 100 100 100 100 100 100 100 100 100 100 100 100 100 100 100 100 100 100 100 100 100 100 100 100 100 100 100 100 100 100 100 100 100 100 100 100 100 100 96 100 100 100
100 100 100 100 100 100 100 100 100 100 100 100 100 100 100 100 100 100 100 100 100 100 100 100 100 100 100 100 100 100 100 100 100 100 100 100 98 99 100 100 100 100 100
100 100 100 100 100 100 100 100 100 100 100 100 100 100 100 100 100 100 100 100 100 100 100 100 100 100 100 100 100 100 100 100 100 100 100 100 70 99 100 100 100 100 100
100 100 100 100 100 100 100 100 100 100 100 100 100 100 100 100 100 100 100 100 100 100 100 100 100 100 100 100 100 100 100 100 100 85 97 99 97 100 100 100 100 100 100
100 100 100 100 100 100 99 100 100 100 100 100 99 100 100 100 100 100 100 100 100 100 100 100 100 100 100 100 100 100 100 100 92 70 96 98 100 100 100 100 100 100 100
100 100 100 100 100 100 100 100 100 93 92 97 100 100 100 100 100 100 100 100 100 100 100 100 100 100 100 100 100 100 100 100 96 100 100 100 100 100 100 100 100 100 100
100 100 100 100 100 99 90 95 100 99 100 100 100 100 100 100 98 100 100 100 100 100 100 100 100 100 100 100 100 94 59 85 100 100 100 100 100 100 100 100 100 100 100
100 100 100 100 100 99 98 100 100 100 99 100 100 100 100 100 100 100 100 100 88 48 28 61 73 54 5 5 5 6 89 100 89 99 100 100 100 100 100 100 100 100 100
100 100 100 100 100 100 100 100 100 100 100 100 100 100 100 100 96 83 96 75 15 5 8 5 16 5 5 5 15 98 52 57 74 100 100 100 100 100 100 100 100 100 100

GFSGL_prec_cloud_072.txt.gz
Cloud_Cover
27 9 77 100 100 100 100 100 77 100 100 100 100 100 100 100 100 100 100 100 100 100 100 100 100 100 100 100 100 100 100 100 100 100 64 48 29 10 64 99 58 79 98
99 44 75 100 99 100 100 100 77 94 99 100 100 100 100 100 100 100 100 100 100 100 100 100 100 100 100 100 100 100 100 100 100 43 100 100 100 7 6 96 79 41 7
8 100 100 100 88 94 99 80 84 97 100 97 100 100 100 100 99 100 100 100 100 100 100 100 100 100 100 100 100 98 100 100 100 100 100 92 8 88 100 96 99 100 100
100 100 100 100 87 100 100 100 100 100 100 100 100 100 100 100 100 100 100 100 100 100 100 100 100 100 100 100 100 100 100 99 98 72 76 12 87 100 100 95 99 100 100
0 19 100 100 100 55 78 58 100 100 100 100 100 100 100 100 100 100 100 100 100 100 100 100 100 100 100 100 100 100 100 100 96 100 26 21 18 100 100 100 100 62 100
0 0 0 33 99 100 100 100 100 100 100 100 100 100 100 100 100 100 100 100 100 100 100 100 100 100 100 100 100 100 100 64 80 56 82 100 96 100 100 85 78 100 18
0 0 2 5 71 96 96 89 100 100 100 100 100 100 100 100 100 100 100 100 100 100 100 100 100 100 100 100 100 100 7 68 43 90 100 100 100 92 93 89 67 84 92
0 4 2 6 53 94 100 100 100 100 100 100 100 100 100 100 100 100 100 100 100 100 100 100 100 100 100 100 100 97 72 66 93 100 100 100 100 100 34 26 84 96 87
89 34 98 100 100 100 100 100 100 100 100 100 100 100 100 100 100 100 100 100 100 100 100 100 100 100 100 100 89 68 100 100 100 100 100 98 93 80 49 75 98 98 77
100 100 100 100 100 100 100 100 100 100 100 100 100 100 100 100 100 100 100 100 100 100 100 100 100 100 99 100 100 100 100 100 100 100 100 100 100 97 99 83 80 100 100
100 100 100 100 100 100 100 100 100 100 100 100 100 100 100 100 100 100 100 100 100 100 100 100 100 99 100 100 100 100 100 100 100 100 100 100 100 100 100 100 100 96 100
100 100 100 100 100 100 100 100 100 100 100 100 100 100 100 100 100 100 100 100 100 100 100 100 100 100 100 100 100 100 100 100 100 100 100 100 100 100 100 100 100 100 100
100 100 100 100 100 100 100 100 100 100 100 100 100 100 100 100 100 100 100 100 100 100 98 80 100 100 100 100 100 100 100 100 100 100 100 100 100 100 100 100 100 100 100
100 100 100 100 100 100 100 100 100 100 100 100 100 100 100 100 100 100 100 100 97 90 95 100 100 100 100 100 100 100 100 100 100 100 100 100 100 100 100 100 87 100 100
100 100 100 100 100 100 100 100 100 100 100 100 100 100 100 100 100 100 100 100 100 100 100 100 100 100 100 100 100 100 100 100 100 100 100 90 100 100 100 100 100 100 100
81 100 100 100 100 100 100 100 100 100 100 100 100 100 100 100 100 100 100 100 100 100 100 100 100 100 100 100 100 100 100 100 100 100 100 100 100 100 100 100 100 100 100
100 100 100 100 100 100 100 100 100 100 100 100 100 100 100 100 100 100 100 100 100 100 100 100 100 95 99 100 100 100 100 100 100 100 100 100 100 100 100 100 100 100 100
100 100 100 100 100 100 100 100 100 100 100 100 100 100 100 100 100 100 100 100 100 100 100 100 100 100 100 100 100 100 100 100 100 100 100 100 100 100 100 100 100 100 100
100 100 100 100 100 100 100 100 100 100 100 100 100 100 100 100 100 100 100 100 100 100 100 100 100 100 100 100 100 100 100 100 100 100 100 100 100 100 100 100 100 96 94
100 100 100 100 100 100 100 100 100 100 100 100 100 100 100 100 100 100 100 100 100 100 100 100 100 100 100 100 100 100 100 100 100 100 100 100 100 100 100 100 100 100 100
100 100 100 100 100 100 100 100 100 100 100 100 100 100 100 100 100 100 100 100 100 100 100 100 100 100 100 100 100 100 100 100 100 100 100 100 99 100 100 100 100 100 100
100 100 100 100 100 100 100 100 100 100 100 100 100 100 100 100 100 100 100 100 100 100 100 100 100 100 100 100 100 100 100 100 100 100 100 91 100 100 100 100 100 100 100
100 100 100 100 100 100 100 100 100 100 100 100 100 100 100 100 100 100 100 100 100 100 100 100 100 100 100 100 100 88 100 100 98 100 100 100 100 100 100 100 100 100 100
100 100 100 100 100 100 100 100 100 100 100 100 100 99 99 100 100 100 100 95 87 85 99 97 95 58 21 12 5 7 63 45 98 100 100 100 100 100 100 100 100 100 100
100 100 100 100 100 100 100 100 100 100 97 83 91 98 100 99 97 68 74 59 66 58 25 5 25 5 5 5 5 5 34 100 100 100 100 100 100 100 100 100 100 100 100
100 100 100 100 100 100 99 87 96 100 100 100 100 98 100 94 82 98 93 88 44 7 8 5 13 5 5 5 5 54 78 45 93 100 100 100 100 100 100 100 100 100 100

GFSGL_prec_cloud_075.txt.gz
Cloud_Cover
5 49 56 34 47 65 100 100 100 100 100 48 55 100 98 100 99 100 100 100 99 100 100 100 100 100 100 100 100 100 100 100 100 100 100 100 95 88 21 74 94 100 100
100 100 98 67 98 82 100 99 66 63 58 79 9 84 100 67 93 100 100 100 100 100 100 100 100 100 100 100 100 100 100 100 100 100 100 100 100 64 42 61 100 100 100
0 79 100 100 98 36 69 87 74 33 99 43 94 93 100 100 94 100 100 100 100 100 100 100 100 100 100 100 100 100 100 100 100 100 100 100 100 75 96 100 100 100 100
0 0 4 93 81 77 6 11 39 99 100 100 100 96 98 98 82 100 100 100 100 100 100 100 100 100 100 100 100 100 100 100 100 100 100 100 99 72 100 100 100 100 100
5 2 0 8 100 88 56 38 44 5 71 26 32 100 100 100 100 100 100 100 100 100 100 100 100 100 100 100 90 100 100 83 100 100 100 100 97 100 100 100 100 100 100
5 16 5 0 0 68 100 100 100 61 87 100 100 49 100 100 100 100 100 100 100 100 100 100 100 100 100 100 100 96 100 100 100 100 100 100 97 100 100 94 100 99 100
5 7 5 5 4 0 0 0 11 85 100 98 94 100 100 100 100 100 100 100 100 100 100 100 100 100 100 100 100 100 100 100 100 100 100 95 100 100 95 97 87 76 90
97 79 83 21 2 4 7 9 20 100 100 100 100 100 100 100 100 100 100 100 100 100 100 100 100 100 100 100 100 100 100 100 100 100 100 94 87 98 98 63 84 27 69
100 100 100 100 99 54 80 100 100 100 100 100 100 100 100 100 100 100 100 100 100 100 100 100 100 100 100 100 100 100 100 100 100 99 100 100 100 93 84 97 20 68 94
94 100 96 100 100 100 100 100 100 100 100 100 100 100 100 100 100 100 100 100 100 100 100 100 100 100 100 100 100 100 100 99 86 100 100 96 93 98 89 79 84 42 97
98 100 100 100 100 100 100 100 100 100 100 100 100 100 100 100 100 100 100 100 100 100 100 100 100 100 100 100 100 100 100 100 100 100 100 100 100 85 100 96 74 99 96
100 100 100 100 100 100 100 100 100 100 100 100 100 100 100 100 100 100 100 100 100 100 100 100 100 100 100 100 100 100 100 100 100 100 100 99 100 100 100 100 100 97 72
100 100 100 100 100 100 100 100 100 100 100 100 100 100 100 100 100 100 100 100 100 100 100 100 100 100 100 100 100 100 100 100 100 100 100 100 100 100 100 100 100 100 100
100 100 100 100 100 100 100 100 100 100 100 100 100 100 100 100 100 100 100 100 100 100 100 100 100 100 100 98 99 100 100 100 100 100 100 100 100 100 100 100 100 100 100
100 100 100 100 100 100 100 100 100 100 100 100 100 100 100 100 100 100 100 100 100 100 100 100 100 100 100 100 100 100 100 100 100 100 100 100 100 100 100 100 100 100 100
100 100 100 100 100 100 100 100 100 100 100 100 100 100 100 100 100 100 100 100 100 100 100 100 100 100 100 100 100 100 100 100 99 100 100 100 100 100 100 100 100 100 100
100 100 100 100 100 100 100 100 100 100 100 100 100 100 100 100 100 100 100 100 100 100 100 100 100 100 100 100 100 100 100 100 100 100 100 100 100 100 100 100 100 100 100
100 100 100 100 100 100 100 100 100 100 100 100 100 100 100 100 100 100 100 100 100 100 100 100 100 100 100 100 100 100 100 100 100 100 100 100 100 100 100 100 100 100 100
100 100 100 100 100 100 100 100 100 100 100 100 100 100 100 100 100 100 100 100 100 100 100 100 100 100 100 100 100 100 100 100 100 100 100 100 100 100 100 100 100 100 100
100 100 100 100 100 100 100 100 100 100 100 100 100 100 100 100 100 100 100 100 100 100 100 100 100 100 100 100 100 100 100 100 100 100 100 100 100 100 100 100 100 100 100
100 100 100 100 100 100 100 100 100 100 100 100 100 100 100 100 100 100 100 100 100 100 100 100 100 100 100 100 100 100 100 100 100 100 100 100 100 100 100 100 100 100 100
100 100 100 100 100 100 100 100 100 100 100 100 100 100 100 100 100 100 100 100 100 100 100 100 100 100 100 100 100 100 100 100 100 100 100 100 100 100 100 100 100 100 100
100 100 100 100 100 100 100 100 100 100 100 100 100 100 100 100 100 100 100 100 100 100 99 100 100 96 100 100 100 100 100 100 100 100 100 100 100 100 100 100 100 100 100
100 100 100 100 100 100 100 100 100 100 100 100 100 100 100 100 100 100 100 100 100 100 96 72 40 38 29 79 100 100 100 100 100 100 100 100 100 100 100 100 100 100 100
100 100 100 100 100 100 100 100 100 100 100 100 100 100 100 100 100 100 100 100 74 79 65 64 93 88 97 91 23 51 98 100 100 100 100 100 100 100 100 100 100 100 100
100 100 100 100 100 100 100 100 100 100 100 100 100 100 100 100 100 100 100 100 99 97 99 100 100 91 72 60 86 100 89 43 42 100 100 100 100 100 100 100 100 100 100

GFSGL_prec_cloud_078.txt.gz
Cloud_Cover
0 5 1 1 21 36 98 100 100 100 100 100 100 100 100 62 50 38 30 22 56 100 100 100 84 84 100 100 100 100 100 100 100 100 100 100 100 100 89 97 92 55 23
0 0 76 37 25 14 10 42 100 100 100 100 83 49 8 35 95 6 72 85 100 100 100 97 90 100 100 100 100 100 100 100 100 100 100 100 100 59 92 100 94 72 49
9 0 8 96 100 98 5 37 25 12 88 67 44 63 5 8 88 70 94 90 97 91 76 77 100 100 100 100 100 100 100 100 100 100 99 98 100 100 100 100 100 97 97
86 5 1 0 8 72 97 65 31 32 28 23 78 86 100 100 100 100 100 100 100 100 100 100 100 100 100 100 100 100 100 100 100 100 100 99 100 99 90 100 99 92 100
100 77 5 4 0 0 0 2 5 5 28 6 19 53 79 100 100 100 100 100 100 94 100 100 100 100 100 100 100 100 100 100 100 100 100 100 100 100 100 100 100 98 100
86 100 100 77 5 5 0 0 0 2 31 5 27 44 100 100 100 96 100 100 100 100 100 100 100 100 100 100 100 100 100 100 100 100 100 100 100 100 100 80 100 100 100
27 90 100 88 72 78 70 25 0 0 12 11 35 27 86 79 100 100 100 60 100 100 100 100 100 100 100 100 100 100 100 100 100 100 100 100 100 100 100 100 100 100 90
10 58 78 100 100 100 96 93 100 26 15 31 36 67 100 100 100 100 100 100 100 100 100 100 100 100 100 100 100 100 100 100 100 100 100 100 100 100 100 92 99 100 100
90 100 100 100 100 100 100 100 100 100 92 96 100 47 100 100 100 100 100 100 100 100 100 100 100 100 100 100 100 100 100 100 100 100 100 100 100 100 87 99 100 100 99
100 100 100 100 100 100 100 100 100 100 100 100 100 100 100 100 100 100 100 100 100 100 100 100 100 100 100 100 100 100 100 100 100 100 100 100 98 100 100 100 100 100 100
100 100 61 98 100 100 94 100 100 100 100 100 100 100 100 100 100 100 100 100 100 100 100 100 100 100 100 100 100 100 100 100 100 100 100 100 100 100 100 100 100 100 100
100 100 100 100 96 98 100 100 100 100 100 100 100 100 100 100 100 100 100 100 100 100 100 100 100 100 100 100 100 100 100 100 100 100 100 100 100 100 94 99 100 97 100
100 100 100 100 100 100 100 100 100 100 100 100 100 100 100 100 100 100 100 100 100 100 100 100 100 100 100 100 100 100 100 100 100 100 100 100 95 100 100 99 100 100 100
100 100 100 100 100 100 100 100 100 100 100 100 100 100 100 100 100 100 100 100 100 100 100 100 100 100 100 100 100 100 100 100 100 100 99 100 100 100 100 100 100 100 100
100 100 100 100 100 100 100 100 100 100 100 100 100 100 100 100 100 100 100 100 100 100 100 100 100 100 100 100 100 100 100 100 100 100 100 100 100 100 100 100 100 100 100
100 100 100 100 100 100 100 100 100 100 100 100 100 100 100 100 100 100 100 100 100 100 100 100 100 100 100 100 100 100 100 100 100 100 100 100 100 100 100 100 100 100 100
100 100 100 100 100 100 100 100 100 100 100 100 100 100 100 100 100 100 100 100 100 100 100 100 100 100 100 100 100 100 100 100 100 100 100 100 100 100 100 100 100 100 100
100 100 100 100 100 100 100 100 100 100 100 100 100 100 100 100 100 100 100 100 100 100 100 100 100 100 100 100 100 100 100 100 100 100 100 100 100 100 100 100 100 100 100
100 100 100 100 100 100 100 100 100 100 100 100 100 100 100 100 100 100 100 100 100 100 100 100 100 100 100 100 100 100 100 100 100 100 100 100 100 100 100 100 100 100 100
100 100 100 100 100 100 100 100 100 100 100 100 100 100 100 100 100 100 100 100 100 100 100 100 100 100 100 100 100 100 100 100 100 100 100 100 100 100 100 100 100 100 100
100 100 100 100 100 100 100 100 100 100 100 100 100 100 100 100 100 100 100 100 100 100 100 100 100 100 100 100 100 100 100 100 100 100 100 100 100 100 100 100 100 100 100
100 100 100 100 100 100 100 100 100 100 100 100 100 100 100 100 100 100 100 100 100 100 100 100 100 100 100 100 100 100 100 100 100 100 100 100 100 100 100 100 100 100 100
100 100 100 100 100 100 100 100 100 100 100 100 100 100 100 100 100 100 100 100 100 100 100 100 100 100 100 100 100 100 100 100 100 100 100 100 100 100 100 100 100 100 100
100 100 100 100 100 100 100 100 100 100 100 100 100 100 100 100 100 100 100 100 100 100 100 100 100 100 100 100 100 100 100 100 100 100 100 100 100 100 100 100 100 100 100
100 100 100 100 100 100 100 100 100 100 100 100 100 100 100 100 100 100 100 100 100 100 100 100 100 100 100 100 100 100 100 100 100 100 100 100 100 100 100 100 100 100 100
100 100 100 100 100 100 100 100 100 100 100 100 100 100 100 100 100 100 100 100 100 100 100 100 100 100 100 100 100 100 100 100 100 100 100 100 100 100 100 100 100 100 100

GFSGL_prec_cloud_081.txt.gz
Cloud_Cover
5 31 43 38 57 99 23 23 100 100 100 100 80 75 65 99 100 100 100 100 100 86 81 81 49 99 97 100 100 100 99 100 100 100 100 100 100 81 100 100 100 36 5
5 3 0 20 29 20 3 15 12 100 100 100 100 100 100 100 84 6 5 5 5 20 88 91 92 65 74 98 93 100 100 100 100 100 100 100 100 100 100 100 97 44 74
5 49 7 2 0 0 8 11 26 45 38 88 100 100 100 100 100 99 5 21 5 5 10 6 70 100 87 81 100 100 100 100 100 100 100 100 100 100 99 89 87 99 100
35 40 94 24 4 0 0 3 20 20 4 7 25 66 37 46 58 54 40 42 78 95 55 52 68 98 100 100 100 98 98 100 100 100 100 100 100 100 100 100 100 100 100
100 42 10 53 98 49 2 4 2 0 1 4 5 5 5 6 61 53 27 72 85 96 43 89 100 100 100 100 100 100 100 100 100 100 100 100 100 100 100 98 100 100 100
82 100 85 5 15 100 100 67 14 72 80 4 2 4 5 3 5 5 74 95 33 100 79 92 100 100 100 99 100 100 100 100 100 100 100 100 100 100 100 100 100 100 100
83 66 29 100 73 68 68 9 26 22 45 94 100 99 50 8 5 75 38 100 100 100 100 79 100 100 100 100 100 100 100 100 100 100 100 100 100 100 100 100 100 100 100
100 46 73 100 51 41 98 100 100 100 100 100 27 94 100 100 10 5 93 32 98 94 95 100 100 100 100 100 100 100 100 100 100 100 100 100 100 100 100 100 100 100 100
100 100 85 98 93 99 100 100 100 100 93 80 100 100 95 67 100 100 100 94 98 100 100 100 100 100 100 100 100 100 100 100 100 100 100 100 100 100 100 100 100 100 100
100 100 97 44 97 100 100 100 100 91 89 100 100 100 100 100 100 100 100 100 100 100 100 100 100 100 100 100 100 100 100 100 100 100 100 100 100 100 100 100 100 100 100
65 41 100 100 100 100 100 100 100 100 100 100 100 100 100 100 100 100 100 100 100 100 100 100 100 100 100 100 100 100 100 100 100 100 100 100 100 100 100 100 100 100 100
100 100 96 100 92 97 100 100 100 100 100 100 100 100 100 100 100 100 100 100 100 100 100 100 100 100 100 100 100 100 100 100 100 100 100 100 100 100 100 100 100 100 100
100 100 100 100 100 100 100 100 100 100 100 100 100 100 100 100 100 100 100 100 100 100 100 100 100 100 100 100 100 100 100 100 100 100 100 100 100 100 100 100 100 100 100
100 100 100 100 100 100 100 100 100 100 100 100 100 100 100 100 100 100 100 100 100 100 100 100 100 100 100 100 100 100 100 100 100 100 100 100 100 100 100 100 100 100 100
100 100 100 100 100 100 100 100 100 100 100 100 100 100 100 100 100 100 100 100 100 100 100 100 100 100 100 100 100 100 100 100 100 100 100 100 100 100 100 100 100 100 100
100 100 100 100 100 100 100 100 100 100 100 100 100 100 100 100 100 100 100 100 100 100 100 100 100 100 100 100 100 100 100 100 100 100 100 100 100 100 100 100 100 100 100
100 100 100 100 100 100 100 100 100 100 100 100 100 100 100 100 100 100 100 100 100 100 100 100 100 100 100 100 100 100 100 100 100 100 100 100 100 100 100 100 100 100 100
100 100 100 100 100 100 100 100 100 100 100 100 100 100 100 100 100 100 100 100 100 100 100 100 100 100 100 100 100 100 100 100 100 100 100 100 100 100 100 100 100 100 100
100 100 100 100 100 100 100 100 100 100 100 100 100 100 100 100 100 100 100 100 100 100 100 100 100 100 100 100 100 100 100 100 100 100 100 100 100 100 100 100 100 100 100
100 100 100 100 100 100 100 100 100 100 100 100 100 100 100 100 100 100 100 100 100 100 100 100 100 100 100 100 100 100 100 100 100 100 100 100 100 100 100 100 100 100 100
100 100 100 100 100 100 100 100 100 100 100 100 100 100 100 100 100 100 100 100 100 100 100 100 100 100 100 100 100 100 100 100 100 100 100 100 100 100 100 100 100 100 100
100 100 100 100 100 100 100 100 100 100 100 100 100 100 100 100 100 100 100 100 100 100 100 100 100 100 100 100 100 100 100 100 100 100 100 100 100 100 100 100 100 100 100
100 100 100 100 100 100 100 100 100 100 100 100 100 100 100 100 100 100 100 100 100 100 100 100 100 100 100 100 100 100 100 100 100 100 100 100 100 100 100 100 100 100 100
100 100 100 100 100 100 100 100 100 100 100 100 100 100 100 100 100 100 100 100 100 100 100 100 100 100 100 100 100 100 100 100 100 100 100 100 100 100 100 100 100 100 100
100 100 100 100 100 100 100 100 100 100 100 100 100 100 100 100 100 100 100 100 100 100 100 100 100 100 100 100 100 100 100 100 100 100 100 100 100 100 100 100 100 100 100
100 100 100 100 100 100 100 100 100 100 100 100 100 100 100 100 100 100 100 100 100 100 100 100 100 100 100 100 100 100 92 100 100 100 100 100 100 100 100 100 100 100 100

GFSGL_prec_cloud_084.txt.gz
Cloud_Cover
1 91 100 98 100 100 100 98 42 6 34 98 100 100 100 100 100 100 100 100 100 100 100 100 100 100 100 100 100 100 100 98 99 88 91 97 89 100 98 81 20 29 90
0 0 36 100 100 100 100 100 82 8 3 21 80 88 77 100 100 100 100 100 100 100 100 100 100 100 100 100 100 100 99 24 98 100 100 100 100 100 100 100 95 31 68
0 0 0 47 43 62 79 100 67 5 3 14 79 82 100 63 13 52 92 100 97 94 72 90 84 90 38 98 97 84 100 100 100 100 100 100 100 100 100 100 100 98 100
2 0 2 33 100 29 5 21 38 53 16 23 18 3 9 26 79 99 67 15 27 18 35 17 85 74 32 100 100 92 93 100 100 100 100 100 77 69 100 82 99 100 100
5 2 0 5 6 81 93 43 88 99 64 14 24 6 5 11 5 5 5 6 5 5 100 87 68 92 80 98 96 100 100 100 100 100 100 100 100 100 100 100 100 100 100
5 5 5 5 6 92 31 67 99 100 100 33 28 22 35 10 5 5 5 5 5 5 6 34 93 78 67 100 100 100 100 100 100 100 100 100 100 100 100 100 100 100 100
100 98 92 5 5 6 34 8 100 96 92 66 23 100 100 100 100 100 97 85 97 82 68 50 97 100 100 100 100 100 100 100 100 100 100 100 100 100 100 100 100 100 100
100 100 98 28 54 7 7 61 100 100 52 76 80 88 77 95 96 100 100 100 96 21 46 64 59 88 96 100 100 100 100 100 100 100 100 100 100 100 100 100 100 100 100
100 100 99 99 69 54 34 93 65 42 57 100 100 100 54 77 95 98 52 75 99 100 100 100 94 100 100 100 100 100 100 100 100 100 100 100 100 100 100 100 100 100 100
100 83 43 78 80 50 49 72 93 99 100 100 100 100 100 100 100 99 99 100 100 100 100 100 100 100 100 100 100 100 100 100 100 100 100 100 100 100 100 100 100 100 100
60 15 46 98 15 84 18 99 94 95 96 100 100 100 100 100 100 100 100 100 100 100 100 100 100 100 100 100 100 100 100 100 100 100 100 100 100 100 100 100 100 100 100
100 100 90 38 78 100 68 73 81 100 100 100 100 100 100 100 100 100 100 100 100 100 100 100 100 100 100 100 100 100 100 100 100 100 100 100 100 100 100 100 100 100 100
100 100 100 100 100 100 100 100 100 100 100 100 100 100 100 100 100 100 100 100 100 100 100 100 100 100 100 100 100 100 100 100 100 100 100 100 100 100 100 100 100 100 100
94 100 100 100 100 100 100 100 100 100 100 100 100 100 100 100 100 100 100 100 100 100 100 100 100 100 100 100 100 100 100 100 100 100 100 100 100 100 100 100 100 100 100
86 100 100 100 100 100 100 100 100 100 100 100 100 100 100 100 100 100 100 100 100 100 100 100 100 100 100 100 100 100 100 100 100 100 100 100 100 100 100 100 100 98 96
100 100 100 100 100 100 100 100 100 100 100 100 100 100 100 100 100 100 100 100 100 100 100 100 100 100 100 100 100 100 100 100 100 100 100 100 100 100 100 100 100 100 100
100 100 100 100 100 100 100 100 100 100 100 100 100 100 100 100 100 100 100 100 100 100 100 100 100 100 100 100 100 100 100 100 100 100 100 100 100 100 100 100 100 100 100
100 100 100 100 100 100 100 100 100 100 100 100 100 100 100 100 100 100 100 100 100 100 100 100 100 100 100 100 100 100 100 100 100 100 100 100 100 96 100 100 100 100 87
100 100 100 100 100 100 100 100 100 100 100 100 100 100 100 100 100 100 100 100 100 100 100 100 100 100 100 100 100 100 100 100 100 100 100 100 98 100 96 85 99 75 88
100 100 100 100 100 100 100 100 100 100 100 100 100 100 100 100 100 100 100 100 100 100 100 100 100 100 100 100 100 100 100 100 100 100 100 100 100 100 100 76 100 100 97
100 100 100 100 100 100 100 100 100 100 100 100 100 100 100 100 100 100 100 100 100 100 100 100 100 100 100 100 100 100 100 100 100 100 100 100 100 99 48 59 99 100 100
100 100 100 100 100 100 100 100 100 100 100 100 100 100 100 100 100 100 100 100 100 100 100 100 100 100 100 100 100 100 100 96 99 98 48 40 28 37 84 100 89 31 17
100 100 100 100 100 99 100 100 100 100 100 100 100 100 100 100 100 100 100 100 100 100 100 100 100 100 92 71 91 100 100 100 96 44 21 24 56 97 35 28 43 38 74
100 100 100 100 100 100 98 99 100 100 100 100 100 100 100 100 100 100 100 100 100 100 100 100 100 88 93 98 56 93 97 97 71 13 59 42 6 7 47 5 5 28 94
100 100 100 100 91 75 92 82 90 90 73 100 100 98 100 94 99 99 100 100 96 98 100 100 90 97 79 95 100 100 82 37 5 5 21 88 76 5 6 69 100 100 86
100 100 93 83 89 98 97 99 97 92 94 94 94 97 90 90 99 94 99 23 48 100 84 85 98 37 72 100 100 82 5 20 74 100 98 91 61 58 96 80 40 74 88

GFSGL_prec_cloud_087.txt.gz
Cloud_Cover
5 98 100 100 100 49 2 27 36 1 83 100 100 100 100 100 100 100 100 100 100 100 100 100 100 100 100 100 100 100 100 100 100 100 100 100 100 100 88 100 100 100 100
0 1 99 100 100 60 99 4 24 17 1 8 70 100 100 100 100 100 100 100 100 100 100 100 100 100 100 100 100 100 100 100 100 100 100 95 16 77 98 100 100 100 100
0 0 1 91 100 100 64 40 40 3 26 0 1 5 6 54 82 88 97 100 93 99 100 100 100 100 100 100 100 100 100 100 97 100 100 100 100 100 100 100 100 99 97
6 5 21 4 16 98 91 69 62 82 41 7 1 0 1 5 5 5 4 5 6 6 10 71 99 96 96 47 62 88 100 69 88 100 100 100 84 100 100 100 100 96 100
5 99 100 100 2 5 4 4 23 96 68 28 31 12 1 0 3 5 5 5 10 74 19 30 32 26 99 96 93 94 99 76 100 100 100 100 100 100 98 100 100 100 100
44 100 100 98 5 3 3 5 5 5 15 20 52 8 5 1 0 4 5 5 65 82 94 99 54 6 5 25 31 79 89 53 92 100 100 100 99 82 100 100 100 100 100
100 98 100 51 5 5 24 11 10 20 5 38 54 93 84 21 22 15 99 38 92 98 70 41 100 85 76 91 100 100 100 100 100 100 100 100 100 100 100 100 100 100 100
100 100 100 78 15 96 100 100 100 52 56 17 18 44 78 62 100 63 20 66 49 24 19 7 47 83 100 100 100 100 100 100 100 100 100 100 100 100 100 100 100 100 100
65 100 100 100 100 100 100 100 100 41 42 35 51 66 35 79 100 100 86 90 98 90 94 89 96 96 100 100 100 100 100 100 100 100 100 100 100 100 100 100 100 100 100
71 61 91 100 100 100 100 100 100 100 12 98 100 100 100 100 100 100 100 100 100 100 100 100 100 100 100 100 100 100 100 100 100 100 100 100 100 100 100 100 100 100 100
100 100 100 100 100 100 100 100 100 100 99 100 100 100 100 100 100 100 100 100 100 100 100 100 100 100 100 100 100 100 100 100 100 100 100 100 100 100 100 100 100 100 100
100 100 100 100 100 100 100 100 100 99 100 100 100 100 100 100 100 100 100 100 100 100 100 100 100 100 100 100 100 100 100 100 100 100 100 100 100 100 100 100 100 100 100
100 100 100 100 100 100 100 100 100 100 100 100 100 100 100 100 100 100 100 100 100 100 100 100 100 100 100 100 100 100 100 100 100 100 100 100 100 100 100 100 100 100 100
100 100 100 100 100 100 100 100 100 100 100 100 100 100 100 100 100 100 100 100 100 100 100 100 100 100 100 100 100 100 100 100 100 100 100 100 100 100 100 100 100 100 100
100 98 99 83 85 100 100 100 100 100 100 100 100 100 100 100 100 100 100 100 100 100 100 100 100 100 100 100 100 100 100 100 100 100 100 100 100 100 100 100 100 100 100
100 100 100 100 92 89 99 100 100 100 100 100 100 100 100 100 100 100 100 100 100 100 100 100 100 100 100 100 100 100 100 100 100 100 100 100 100 100 100 100 100 100 100
100 100 100 100 99 86 92 100 100 100 100 100 100 100 100 100 100 100 100 100 100 100 100 100 100 100 100 100 100 100 100 100 100 100 100 100 100 100 100 100 100 100 100
100 100 100 100 100 100 100 94 100 100 100 100 100 100 100 100 100 100 100 100 100 100 100 100 100 100 100 100 100 100 100 100 100 100 100 100 100 100 100 100 100 100 100
100 100 100 100 100 100 95 80 92 100 100 100 100 100 100 100 100 100 99 100 100 100 100 100 100 100 100 100 100 100 100 100 100 100 100 100 100 100 100 100 96 97 100
100 100 100 100 99 98 100 100 100 100 100 100 100 100 100 100 100 100 100 100 100 100 100 100 100 100 100 100 100 100 100 100 100 100 100 100 100 100 100 100 100 100 100
100 100 100 100 100 99 98 100 100 100 100 100 100 100 100 100 100 100 100 100 100 100 100 100 100 100 100 100 100 99 100 100 100 100 100 100 100 100 100 100 99 6 33
100 100 100 100 100 99 100 100 100 99 100 100 100 100 100 100 100 100 100 100 100 100 100 100 82 95 100 100 100 100 100 100 100 100 94 65 34 24 30 18 27 34 24
100 100 100 100 100 100 100 100 100 100 100 100 98 100 100 100 100 100 100 100 78 90 100 96 65 90 100 100 100 100 100 100 98 95 52 34 7 43 65 61 40 7 19
100 100 100 100 100 100 100 100 100 100 100 98 97 100 100 100 96 100 100 100 100 100 100 100 93 87 97 98 85 100 96 99 100 73 18 22 84 75 41 9 6 55 97
100 100 100 100 100 100 100 100 100 100 100 100 100 100 99 100 94 53 73 7 57 94 88 100 100 100 100 100 99 68 5 11 5 5 5 5 21 54 21 87 97 32 5
100 100 100 100 100 100 100 100 98 95 100 98 100 99 97 99 92 23 5 18 84 93 85 80 82 71 97 100 94 8 23 81 49 6 70 92 100 92 66 56 16 68 80

GFSGL_prec_cloud_090.txt.gz
Cloud_Cover
76 94 34 99 100 100 18 0 0 0 0 2 61 100 100 100 100 100 100 100 100 100 100 100 100 100 100 100 100 100 100 100 100 100 100 100 100 100 100 100 100 100 100
77 92 6 80 100 100 65 0 0 0 0 0 0 2 21 100 100 100 100 100 100 100 100 100 100 100 100 100 86 100 100 100 100 100 100 100 100 100 100 100 100 99 36
5 35 7 41 85 100 100 42 5 0 0 5 0 0 0 2 51 98 100 100 100 100 100 100 100 100 100 100 100 100 100 100 100 100 100 100 100 100 100 100 100 100 58
53 32 17 5 8 50 100 100 6 5 5 3 2 3 1 1 0 4 2 18 27 28 26 36 80 100 99 100 100 78 94 92 86 86 94 100 98 100 100 100 97 78 86
98 99 74 8 5 100 100 55 100 48 12 28 5 5 5 4 3 2 4 5 5 5 5 5 19 46 14 26 48 53 87 94 59 84 100 100 100 100 98 27 94 100 100
100 100 100 100 83 88 100 100 100 17 54 38 84 18 5 70 84 5 5 3 4 5 47 36 6 70 5 6 8 5 79 40 51 94 100 100 100 100 100 97 80 100 100
100 100 100 100 100 99 100 100 100 100 88 100 100 100 100 100 11 30 5 43 4 5 24 99 82 58 61 93 100 100 100 94 85 56 95 100 100 100 100 100 100 100 100
100 100 100 100 100 100 100 100 100 100 100 100 100 100 100 100 84 98 58 73 36 5 13 58 68 82 96 100 100 95 96 100 100 100 100 100 100 100 100 100 100 100 100
100 100 100 100 100 100 100 100 100 100 100 100 100 100 100 100 100 100 100 100 100 100 100 100 100 100 100 97 83 100 100 100 100 100 100 100 100 100 100 100 100 100 100
100 100 100 100 100 100 100 100 100 100 100 100 100 100 100 100 100 100 100 100 100 100 100 65 85 89 99 100 100 100 100 100 100 100 100 100 100 100 100 100 100 100 100
100 100 100 100 100 100 100 100 100 100 100 100 100 100 100 100 100 100 100 100 100 100 100 100 100 100 100 100 100 100 100 100 100 100 100 100 100 100 100 100 100 100 100
100 86 100 100 100 100 100 100 100 100 100 100 100 100 100 100 100 100 100 100 100 100 100 100 100 100 100 100 100 100 100 100 100 100 100 100 100 100 100 100 100 100 100
100 95 100 100 100 100 100 100 100 100 100 100 100 100 100 100 100 100 100 100 100 100 100 100 100 100 100 100 100 100 100 100 100 100 100 100 100 100 100 100 100 100 100
100 100 100 100 100 100 100 100 100 100 100 100 100 100 100 100 100 100 100 100 100 100 100 100 100 100 100 100 100 100 100 100 100 100 100 100 100 100 100 100 100 100 100
100 100 100 100 100 100 100 100 100 100 100 100 100 100 100 100 100 100 100 100 100 100 100 100 100 100 100 100 100 100 100 100 100 100 100 100 100 100 100 100 100 100 100
100 100 100 100 100 100 100 100 100 100 84 72 76 77 100 100 100 100 100 100 100 100 100 100 100 100 100 100 100 100 100 100 100 100 100 100 100 100 100 100 100 100 100
100 100 100 100 100 100 99 95 96 98 95 98 96 100 99 100 100 100 100 100 100 100 100 100 100 100 100 100 100 100 100 100 100 100 100 100 100 100 100 100 100 100 100
100 100 100 100 100 100 100 100 96 97 100 100 100 100 100 100 100 100 100 100 100 100 100 100 100 100 100 100 100 100 100 100 100 100 100 100 100 100 100 100 100 100 100
100 100 100 100 100 100 94 98 100 100 100 100 96 67 100 100 100 100 100 100 100 100 100 100 100 100 100 100 100 100 100 100 100 100 100 100 100 100 100 100 100 100 100
99 84 71 93 98 100 96 100 100 100 100 100 100 100 99 77 87 100 100 100 100 100 100 100 100 100 100 100 100 100 100 100 100 100 100 100 100 100 100 100 100 89 91
96 95 96 79 86 100 100 100 100 100 100 100 100 100 100 100 100 100 100 100 100 100 100 100 100 100 100 100 100 100 100 100 98 100 100 100 100 88 44 90 97 22 11
99 96 100 99 100 100 100 100 100 100 100 100 100 100 100 100 100 100 100 100 100 100 100 100 100 100 100 100 100 100 100 99 100 100 79 77 64 27 17 10 24 40 25
86 97 100 100 100 100 100 100 100 100 100 100 100 100 100 100 100 100 100 100 100 99 100 100 100 100 98 100 100 100 79 67 35 77 12 5 5 54 89 33 33 50 88
96 100 100 100 100 100 100 100 100 100 100 100 100 100 100 100 100 100 100 100 100 100 100 100 96 100 100 100 99 100 100 100 100 99 99 74 31 15 7 51 72 100 73
100 100 100 100 100 100 100 100 100 100 100 100 100 100 100 100 100 100 100 84 75 66 73 96 100 98 99 89 92 50 32 61 61 68 25 39 78 99 99 92 80 34 28
94 99 100 100 100 100 100 100 100 100 100 100 100 100 100 92 94 98 47 20 19 57 77 81 53 32 5 13 7 54 75 44 5 5 47 9 58 32 28 71 42 92 74

GFSGL_prec_cloud_093.txt.gz
Cloud_Cover
100 100 97 7 4 7 0 0 0 0 3 28 35 38 33 84 100 100 100 100 100 100 100 100 100 99 100 100 100 100 100 100 100 100 100 100 100 100 100 100 100 100 100
100 100 100 50 5 5 3 0 0 0 0 0 25 63 44 13 18 87 100 100 100 100 100 100 100 99 100 100 100 100 100 100 100 100 100 100 100 100 100 100 100 100 100
100 100 100 90 15 5 2 5 5 2 0 0 1 19 11 0 0 0 0 5 39 91 97 100 100 100 100 100 100 98 100 100 100 100 100 100 100 100 100 100 100 100 100
100 100 100 100 37 27 26 5 3 17 4 5 5 5 5 5 0 1 3 0 4 5 5 5 6 25 48 67 64 63 46 46 84 100 100 100 100 87 99 97 91 90 68
100 100 100 100 73 39 30 17 16 56 100 99 44 4 5 12 21 11 5 5 4 1 5 5 5 5 5 5 5 8 100 100 100 100 100 100 100 100 76 86 84 100 99
100 100 100 100 100 100 100 100 78 70 55 90 100 100 65 21 100 100 100 93 82 5 41 5 5 5 5 5 5 5 36 94 100 100 100 100 100 100 84 100 80 99 100
100 100 100 100 100 100 100 100 100 100 100 86 63 81 99 100 100 100 100 100 98 44 13 49 30 32 5 31 30 47 30 95 100 100 100 99 15 24 99 100 100 100 100
100 100 100 100 100 100 100 100 100 100 100 100 100 100 100 100 89 82 100 66 60 76 70 100 100 98 84 52 26 14 14 66 99 100 100 99 100 100 100 100 100 100 100
100 100 100 100 100 100 100 100 100 100 100 100 100 100 100 100 100 100 100 100 100 100 100 100 100 100 90 100 100 100 100 100 100 100 100 100 100 100 100 100 100 100 100
100 100 100 100 100 100 100 100 100 100 100 100 100 100 100 100 100 100 100 100 100 100 100 100 100 100 100 100 100 100 100 100 100 100 100 100 100 100 100 100 100 100 100
100 100 100 100 100 100 100 100 100 100 100 100 100 100 100 100 100 100 100 100 100 100 100 100 100 100 100 100 100 100 100 100 100 100 100 100 100 100 100 100 100 100 100
99 57 86 100 100 100 100 100 100 100 100 100 100 100 100 100 100 100 100 100 100 100 100 100 100 100 100 98 100 100 100 100 100 100 100 100 100 100 100 100 100 100 100
100 100 100 100 100 100 100 100 100 100 100 100 100 100 100 100 100 100 100 100 100 100 100 100 100 100 100 100 100 100 100 100 100 100 100 100 100 100 100 100 100 100 100
100 90 99 100 100 100 100 100 100 100 100 100 100 100 100 100 100 100 100 100 100 100 100 100 100 100 100 100 100 100 100 100 100 100 100 100 100 100 100 100 100 100 100
100 100 100 98 94 100 100 100 100 100 98 100 100 100 100 100 100 100 100 100 100 100 100 100 100 100 100 100 100 100 100 100 100 100 100 100 100 100 100 100 100 100 100
100 100 100 100 100 99 99 100 100 100 100 100 100 100 100 100 100 100 100 100 91 90 68 98 100 100 100 100 100 100 100 100 100 100 100 100 100 100 100 100 100 100 100
100 100 100 100 100 100 100 100 100 100 100 100 100 100 100 100 100 100 93 87 81 91 63 100 100 100 100 100 100 100 100 100 100 100 100 100 100 100 100 100 100 100 100
100 97 99 98 100 100 100 100 100 100 100 99 100 100 100 100 100 100 100 77 49 79 83 100 100 100 100 100 100 100 100 100 100 100 100 100 100 100 100 100 100 100 100
96 100 99 100 95 96 97 92 89 92 100 100 98 93 97 100 100 100 100 99 96 99 100 100 100 100 100 100 100 100 100 100 100 100 100 100 100 100 100 100 100 100 100
100 90 83 92 87 86 90 88 93 100 95 100 100 100 100 100 100 99 97 100 100 100 100 100 100 100 100 100 100 100 100 100 100 100 100 100 100 100 100 100 100 100 100
100 87 89 87 90 96 95 98 95 88 98 100 100 100 100 100 100 100 100 100 100 100 100 100 100 100 100 100 100 100 100 100 100 100 100 100 100 100 100 100 100 99 18
98 100 93 98 91 86 94 100 100 100 100 100 100 100 100 100 100 100 100 100 100 100 100 100 100 100 100 100 100 100 100 100 100 100 100 100 100 100 100 94 85 56 23
80 81 98 100 99 85 91 93 94 99 100 100 100 100 100 100 100 100 100 100 100 100 100 100 100 100 100 100 100 100 48 65 75 89 27 34 13 58 67 67 43 36 86
85 89 97 98 85 88 97 100 100 100 100 97 96 100 100 100 100 100 100 100 100 99 100 100 100 100 100 100 100 96 28 7 5 5 5 7 5 12 27 5 69 95 61
86 79 87 96 90 92 94 98 100 100 100 100 100 100 100 99 94 100 100 100 100 98 81 64 52 55 78 58 91 70 100 100 84 37 5 5 28 37 16 9 52 7 36
97 100 100 100 100 100 100 100 100 85 95 100 100 100 100 100 100 100 100 100 100 100 100 100 90 70 83 58 68 94 50 23 33 100 63 9 9 14 11 38 29 93 58

GFSGL_prec_cloud_096.txt.gz
Cloud_Cover
100 100 100 100 96 96 24 2 19 76 79 96 100 100 95 96 90 100 100 99 100 100 100 100 100 100 100 100 100 100 100 100 100 100 100 100 100 100 100 100 100 100 100
100 100 100 100 100 100 98 14 0 1 33 0 30 90 100 100 97 100 100 100 100 100 100 100 100 100 100 100 100 100 100 100 100 100 100 100 100 100 100 100 100 100 100
100 100 100 100 100 100 100 61 5 5 5 11 18 50 50 98 100 100 100 60 11 45 88 100 100 100 100 100 100 100 100 100 100 100 100 100 90 100 100 100 100 98 100
100 100 100 100 100 100 100 100 5 33 16 30 40 31 32 47 100 100 100 59 7 4 5 6 86 100 100 100 47 6 42 86 98 100 100 97 82 100 100 100 100 95 69
100 100 100 100 100 100 100 98 95 18 66 16 4 5 7 99 84 90 81 76 55 100 69 34 24 22 49 31 46 27 100 100 100 100 100 100 78 77 100 100 100 100 98
100 100 100 100 100 100 96 71 32 17 5 6 9 59 50 5 5 14 73 86 94 100 100 100 100 100 5 16 39 97 100 63 72 99 100 100 100 100 100 100 100 100 100
100 100 100 100 100 100 100 100 100 67 44 26 76 41 74 70 75 96 78 84 56 29 100 100 100 85 100 100 100 100 41 48 20 14 17 59 100 100 100 100 98 100 100
100 100 100 100 100 100 100 100 100 100 100 99 98 86 96 100 100 100 100 100 96 87 70 71 21 5 48 93 88 98 92 94 85 66 68 97 100 100 100 100 85 100 100
100 100 100 100 100 100 100 100 100 100 100 100 100 100 100 100 100 100 100 100 100 100 100 100 100 100 100 100 100 100 100 100 100 100 100 100 100 100 100 100 100 100 100
100 100 100 100 100 100 100 100 100 100 100 100 100 100 100 100 100 100 100 100 100 100 100 100 100 100 100 100 100 100 100 100 100 100 100 100 100 100 100 100 100 100 100
100 100 100 100 100 100 100 100 100 100 100 100 100 100 100 100 100 100 100 100 100 100 100 100 100 100 100 100 100 100 100 100 100 100 100 100 100 100 100 100 100 100 100
100 100 100 100 100 100 100 100 100 100 100 100 100 100 100 100 100 100 100 100 100 100 100 100 100 100 100 100 100 100 100 100 100 100 100 100 100 100 100 100 100 100 100
100 100 100 100 100 100 100 100 100 100 100 100 100 100 100 100 100 100 100 100 100 100 100 100 100 100 100 100 100 100 100 100 100 100 100 100 100 100 100 100 100 100 100
100 100 100 100 100 100 100 100 100 100 100 100 100 100 100 98 99 100 80 88 94 86 97 100 100 100 100 100 100 100 100 100 100 100 100 100 100 100 100 100 100 100 100
100 100 100 100 100 93 100 100 100 100 100 100 100 100 100 100 100 100 100 100 100 100 100 100 100 100 100 100 100 100 100 100 100 100 100 100 100 100 100 100 100 100 100
100 100 100 100 100 99 98 100 100 100 100 100 99 93 100 100 100 100 100 96 93 97 100 100 100 100 100 100 100 100 100 94 100 98 100 100 100 100 100 100 100 100 100
100 100 100 100 100 100 100 100 83 96 100 100 100 100 100 100 100 100 100 100 100 100 96 100 100 100 100 100 100 100 100 100 69 68 83 87 93 100 100 100 100 100 100
88 96 88 99 100 95 95 92 76 75 100 100 100 100 100 100 100 99 89 98 93 83 99 100 100 100 100 100 100 98 74 81 100 100 99 100 100 100 100 100 100 100 100
99 97 99 100 99 100 94 98 100 100 100 100 100 92 100 99 100 100 93 82 91 94 100 100 100 100 100 100 100 98 99 98 100 100 100 94 100 100 100 100 100 100 100
91 100 100 100 100 100 100 100 100 97 100 100 100 100 92 100 73 97 95 97 100 100 100 100 100 100 100 100 100 100 100 100 100 100 100 100 100 100 100 100 100 100 100
84 87 84 82 91 99 100 100 100 99 100 100 100 100 69 72 100 100 100 100 94 98 100 100 100 100 100 100 100 100 100 100 100 100 100 100 100 100 100 100 100 100 100
94 88 85 90 97 98 100 99 96 98 96 99 92 70 62 70 87 82 92 87 89 66 97 100 100 100 100 100 100 100 100 100 100 95 100 100 100 100 100 100 100 88 96
100 97 100 100 100 100 97 96 89 95 93 89 80 76 79 98 96 92 77 77 95 99 92 94 100 100 100 100 100 100 100 97 91 78 76 100 100 100 100 98 89 49 28
100 100 100 96 96 92 87 90 90 95 98 94 98 99 100 97 100 100 89 48 86 100 100 100 98 97 98 96 85 84 93 96 99 100 98 100 100 100 100 26 30 12 12
100 100 100 100 93 90 94 82 92 100 100 98 95 88 94 97 95 89 82 84 91 100 100 100 100 100 100 100 100 100 100 100 94 77 49 22 6 5 6 5 23 12 5
97 100 100 100 100 100 100 100 99 99 100 93 93 100 99 98 95 100 100 100 99 100 100 100 100 100 100 100 100 100 100 100 83 67 72 10 6 30 35 19 19 53 47

GFSGL_prec_cloud_099.txt.gz
Cloud_Cover
100 100 85 62 29 100 86 48 54 100 100 100 100 99 100 100 100 100 100 100 100 100 100 100 100 100 100 100 93 84 100 100 100 100 100 100 100 100 100 100 100 100 100
100 100 100 67 41 30 100 100 100 57 100 100 100 100 100 100 100 100 100 100 100 100 100 100 100 100 100 100 100 96 100 100 100 100 100 100 100 100 100 100 100 100 100
100 100 100 99 63 47 100 100 100 100 90 52 63 96 100 100 100 100 100 98 100 100 100 100 100 100 100 100 100 100 100 100 100 100 97 94 100 100 100 85 100 100 96
100 100 100 100 100 100 100 100 100 100 100 76 27 25 60 85 100 100 100 100 100 100 100 99 99 100 100 100 100 100 81 100 100 100 54 5 27 13 31 14 18 49 36
100 100 100 100 100 100 100 100 100 100 100 100 60 80 24 27 55 69 89 100 100 100 100 80 15 26 76 76 100 100 100 100 100 100 100 54 11 22 38 12 32 9 33
100 100 100 100 100 100 100 100 93 93 98 100 96 22 15 7 5 6 20 34 67 100 93 14 52 81 99 98 78 78 70 82 100 100 93 48 38 68 54 83 62 100 98
100 100 100 100 100 100 100 100 100 95 80 100 100 90 23 21 81 63 28 41 53 83 86 71 89 97 98 100 93 62 87 91 100 79 100 100 100 100 100 100 94 52 31
100 100 100 100 100 100 100 100 100 100 100 100 100 100 98 100 100 96 97 100 100 100 100 100 87 98 93 84 75 88 99 100 99 100 100 100 100 100 100 100 100 100 100
100 100 100 100 100 100 100 100 100 100 100 100 100 100 100 100 100 100 100 100 100 100 100 100 100 100 100 100 100 100 100 100 100 100 100 100 100 100 100 100 100 100 100
100 100 100 100 100 100 100 100 100 100 100 100 100 100 100 100 100 100 100 100 100 100 100 100 100 100 100 100 100 100 100 100 100 100 100 100 100 100 100 100 100 100 100
100 100 100 100 100 100 100 100 100 100 100 100 100 100 100 100 100 100 100 100 100 100 100 100 100 100 100 100 100 100 100 100 100 100 100 100 100 100 100 100 100 100 100
100 100 100 100 100 100 100 100 100 100 100 100 100 100 100 100 100 99 99 100 100 100 100 100 100 100 100 100 100 100 100 100 100 100 100 100 100 100 100 100 100 100 100
100 100 100 100 100 100 100 100 100 100 100 100 100 100 100 100 100 100 100 100 100 99 100 100 100 92 100 100 100 100 100 100 100 100 100 100 100 100 100 100 100 100 100
100 100 100 100 100 100 100 100 100 100 100 100 100 100 100 100 100 100 100 100 100 98 95 93 94 82 88 100 96 98 100 96 100 100 100 100 100 100 100 100 100 100 100
100 100 100 100 100 100 100 100 100 100 100 100 100 100 100 100 100 96 88 94 88 81 81 77 83 90 97 98 100 100 100 100 99 100 100 100 100 100 100 100 98 77 83
100 100 100 100 100 100 100 100 100 100 100 100 98 100 100 100 100 99 97 95 56 89 54 92 99 100 100 100 100 100 100 100 100 99 90 100 100 69 40 49 48 36 55
100 100 100 89 100 100 100 99 100 99 100 100 100 100 100 100 100 100 98 58 6 89 85 100 100 100 100 100 100 100 95 75 96 100 96 95 90 93 88 84 73 70 90
100 100 100 100 100 100 100 100 100 100 100 100 100 100 100 100 99 99 58 64 77 79 100 100 100 100 98 91 86 59 58 72 91 90 77 84 100 100 100 100 94 84 94
99 100 100 100 100 100 100 100 100 100 100 100 100 99 100 100 100 100 100 98 100 100 100 100 100 99 95 75 84 87 89 96 95 98 99 100 100 100 100 100 100 100 100
98 100 100 100 100 100 100 100 100 100 100 100 100 100 100 100 97 100 100 100 100 100 100 100 96 99 96 78 90 72 57 99 100 100 100 100 100 100 100 100 100 100 100
100 100 93 100 100 100 100 100 100 100 100 100 100 100 100 100 100 100 100 100 100 100 100 100 100 100 93 91 100 74 28 24 34 92 86 98 99 100 100 100 100 100 96
100 100 100 100 100 100 100 100 100 100 100 100 100 100 100 100 98 98 94 100 100 100 100 100 99 97 92 73 35 25 5 43 57 61 82 64 64 92 96 98 99 98 95
100 100 100 100 100 100 100 100 100 96 88 98 98 99 95 97 100 99 100 100 100 100 100 100 97 86 79 90 88 70 20 30 72 90 99 100 100 99 97 85 56 68 69
100 100 100 100 100 100 100 100 100 100 100 100 100 100 100 100 100 100 100 100 100 100 100 100 93 69 72 100 100 100 99 100 100 82 75 86 98 93 100 88 99 82 98
100 100 99 99 100 100 100 100 100 100 100 98 100 100 100 100 100 100 100 100 100 100 100 100 100 100 97 94 86 92 28 15 54 65 99 96 85 79 63 96 83 100 100
98 100 100 100 100 100 100 100 100 100 100 100 100 100 100 100 100 100 100 100 100 100 99 99 96 98 100 100 100 53 5 5 54 50 92 100 100 100 100 100 94 100 100

GFSGL_prec_cloud_102.txt.gz
Cloud_Cover
100 100 90 90 89 44 27 39 63 75 59 88 100 100 100 100 100 100 100 100 100 100 100 100 100 100 100 100 100 100 100 100 100 100 100 100 100 100 100 100 100 100 100
100 100 99 100 99 42 26 51 99 99 42 100 100 90 100 100 100 100 100 100 100 100 100 100 100 100 100 100 100 100 100 100 100 100 100 100 100 100 100 97 91 90 95
100 100 100 100 83 34 100 76 100 100 100 97 100 100 100 100 87 83 99 85 100 100 100 100 100 100 100 100 100 100 100 100 100 100 100 99 100 94 85 64 70 31 24
100 100 100 100 99 70 100 100 100 100 100 100 100 100 100 100 79 90 92 86 70 95 82 49 61 93 97 100 100 100 100 100 100 100 97 77 99 65 87 29 49 5 46
100 100 100 100 100 100 100 100 100 100 100 100 100 100 100 96 75 73 70 66 47 48 90 74 48 5 1 18 62 48 98 98 100 100 100 38 96 100 100 80 22 33 52
100 100 100 100 100 100 100 100 100 100 100 100 100 100 100 100 100 73 84 100 100 100 100 84 100 100 100 79 12 8 34 96 100 100 100 99 100 100 94 100 94 8 70
100 100 100 100 100 100 100 100 100 100 100 100 100 100 100 100 100 82 69 100 100 100 100 81 57 100 100 100 95 52 54 58 40 67 69 78 83 92 93 73 66 77 100
100 100 100 100 100 100 100 100 100 100 100 100 100 100 100 100 100 100 100 100 100 100 100 100 100 100 100 100 100 100 100 100 100 100 100 100 100 100 100 100 100 100 100
100 100 100 100 100 100 100 100 100 100 100 100 100 100 100 100 100 100 100 100 100 100 100 100 100 100 100 100 100 100 100 100 100 100 100 100 100 100 100 100 100 100 100
100 100 100 100 100 100 100 100 100 100 100 100 100 100 100 100 100 100 100 100 100 100 100 100 100 100 100 100 100 100 100 100 100 100 100 100 100 100 100 100 100 100 100
100 100 100 100 100 100 100 100 100 100 100 100 100 100 100 100 100 100 100 100 100 100 100 100 100 100 100 100 100 100 100 100 100 100 100 100 100 100 100 100 100 100 100
100 100 100 100 100 100 100 100 100 100 100 100 100 100 100 100 100 100 100 100 100 100 100 100 100 100 100 100 100 100 100 100 100 100 100 100 100 100 100 100 100 100 100
100 100 100 100 100 100 100 100 100 100 100 100 100 100 100 100 100 100 100 100 100 100 100 100 100 100 100 98 100 100 100 100 100 100 100 100 100 100 100 100 97 90 99
100 100 100 100 100 100 100 100 100 100 100 100 100 100 100 100 100 100 100 100 100 100 100 100 99 100 100 100 100 96 100 100 100 100 100 100 100 100 100 99 96 96 55
100 100 100 100 100 100 100 100 100 100 100 100 100 100 100 100 100 100 100 100 100 100 100 100 100 100 100 100 100 100 100 100 100 100 100 100 96 92 52 25 6 5 5
100 100 100 100 100 100 100 100 100 100 100 100 100 100 100 100 100 94 100 100 100 100 97 100 100 100 100 100 100 100 99 100 95 95 82 23 44 16 5 5 5 5 5
100 100 100 100 100 100 100 100 100 100 100 100 100 100 100 100 100 99 99 93 93 94 100 100 100 100 100 99 95 88 75 23 6 69 13 94 21 82 73 53 66 47 11
100 100 100 100 100 100 100 100 100 100 100 100 100 100 100 100 100 100 100 90 84 94 100 100 100 99 90 69 22 76 96 63 17 8 33 68 68 12 18 69 80 96 50
100 100 100 100 100 100 100 100 100 100 100 100 100 100 100 100 100 100 98 98 100 100 98 97 100 93 72 78 97 82 74 52 80 96 68 64 96 32 13 30 50 45 53
100 100 100 100 100 100 100 100 100 100 100 100 100 100 100 100 100 100 100 100 100 100 94 68 84 98 97 92 99 90 67 58 24 18 94 100 100 91 90 78 83 69 5
100 100 100 100 100 100 100 100 100 100 100 100 100 100 100 100 100 100 100 100 100 100 100 100 100 100 99 97 90 87 81 90 77 91 100 94 100 99 97 91 91 43 5
100 100 100 100 100 100 100 100 100 100 100 100 100 96 98 100 100 100 100 100 100 100 100 100 100 100 100 100 100 100 86 93 93 100 96 68 98 100 99 97 100 100 88
100 100 100 100 100 100 100 100 100 100 100 100 100 100 100 100 100 100 100 100 100 100 100 100 100 100 100 100 100 100 100 100 100 90 100 100 100 100 100 100 100 100 100
100 100 100 100 100 100 100 100 80 71 99 100 100 100 100 100 100 100 100 100 100 100 100 100 100 81 100 100 100 100 100 100 100 97 94 100 100 85 100 100 100 100 100
100 100 100 100 100 100 100 100 100 100 100 100 100 100 100 100 100 100 100 100 100 100 100 100 100 100 100 100 100 100 76 95 85 65 100 100 100 100 99 100 100 100 100
100 100 100 100 100 100 100 100 100 100 100 100 100 100 100 100 100 100 100 100 100 100 100 100 100 100 100 100 98 100 100 96 69 51 92 100 100 100 100 100 100 100 100

GFSGL_prec_cloud_105.txt.gz
Cloud_Cover
62 100 100 100 100 98 67 12 50 85 100 100 83 90 90 86 100 100 100 100 100 100 100 100 100 100 100 100 100 100 100 100 100 100 100 100 100 100 100 100 100 100 100
100 100 100 100 100 100 73 64 100 100 100 100 84 42 100 100 100 100 95 100 100 100 100 100 100 100 100 100 100 100 100 100 100 100 100 100 100 100 100 100 100 100 100
100 100 100 100 100 100 100 84 100 100 100 100 92 99 100 100 85 99 100 100 100 100 100 100 100 100 100 100 100 100 100 100 100 100 100 100 100 100 100 100 100 100 100
100 100 100 100 100 100 100 99 100 100 100 100 100 100 100 100 100 100 100 100 100 100 95 97 100 84 38 82 100 100 100 100 100 100 100 100 100 100 88 75 90 78 17
100 100 100 100 100 100 100 100 100 100 100 100 91 100 97 100 100 100 100 100 100 100 100 100 100 100 100 100 100 91 74 67 77 94 96 23 14 100 59 32 47 7 92
100 100 100 100 100 100 100 100 100 100 100 100 100 100 100 100 100 100 100 100 100 100 100 100 100 38 37 6 5 5 30 67 73 99 99 99 25 51 46 62 44 56 63
100 100 100 100 100 100 100 100 100 100 100 100 100 100 100 100 100 100 100 100 100 97 100 100 100 98 100 100 100 100 100 100 100 100 100 100 100 98 98 100 100 100 100
100 100 100 100 100 100 100 100 100 100 100 100 100 100 100 100 100 100 100 99 100 100 100 100 100 100 100 100 100 100 100 100 100 100 100 100 100 98 100 100 100 100 100
100 100 100 100 100 100 100 100 100 100 100 100 100 100 100 100 100 100 100 100 100 100 100 100 100 100 100 100 100 100 100 100 100 100 100 100 100 100 100 100 100 100 100
100 100 100 100 100 100 100 100 100 100 100 100 100 100 100 100 100 100 100 100 100 100 100 100 100 100 100 99 100 100 100 100 100 100 100 100 100 100 100 100 100 100 100
100 100 100 100 100 100 100 100 100 100 100 100 100 100 100 100 100 100 100 100 100 100 100 100 100 100 100 100 100 100 100 100 100 100 100 100 100 100 100 100 100 100 100
100 100 100 100 100 100 100 100 100 100 100 100 100 100 100 100 100 100 100 100 100 100 100 100 100 100 100 100 100 100 100 100 100 100 100 100 100 100 100 100 100 100 100
100 100 100 100 100 100 100 100 100 100 100 100 100 100 100 100 100 100 100 100 100 100 100 100 100 100 100 100 100 100 100 100 100 100 100 100 100 100 100 100 86 90 100
100 100 100 100 100 100 100 100 100 100 100 100 100 100 100 100 100 100 100 100 100 100 100 91 100 100 100 100 100 100 100 100 100 100 100 100 100 100 100 98 96 90 70
100 100 100 100 100 100 100 100 100 100 100 100 100 100 100 100 100 100 100 100 100 100 100 100 100 100 100 100 100 100 100 100 100 100 100 100 100 96 49 16 23 17 5
100 100 100 100 100 100 100 100 100 100 100 100 100 100 100 100 100 100 100 100 100 100 100 100 100 100 100 100 100 100 100 100 100 96 99 94 60 42 46 25 5 5 62
100 100 100 100 100 100 100 100 100 100 100 100 100 100 100 100 100 100 100 100 100 100 100 100 100 100 100 100 100 98 100 87 86 100 98 100 86 8 19 61 73 5 24
100 100 100 100 100 100 100 100 100 100 100 100 100 100 100 100 100 100 100 100 100 100 100 100 100 100 99 98 96 100 100 99 82 83 94 100 92 76 32 5 20 79 18
100 100 100 100 100 99 100 100 100 100 100 100 100 100 100 100 100 100 100 100 100 100 100 100 100 100 100 100 100 100 100 89 91 100 100 100 100 98 87 98 88 8 5
100 100 100 100 100 100 100 100 100 100 100 100 100 100 100 100 100 100 100 100 100 100 100 100 100 100 100 100 100 100 100 99 100 100 100 100 100 100 100 100 76 90 57
100 100 100 100 100 100 100 100 100 100 100 100 100 100 100 100 100 100 100 100 100 100 100 100 100 100 100 100 100 100 100 100 100 100 100 100 100 100 100 100 100 100 74
100 100 100 100 100 100 100 100 100 100 100 100 100 93 98 100 100 100 100 100 100 100 100 100 100 100 100 100 100 100 100 100 100 100 100 100 100 100 100 100 100 100 100
100 100 100 100 100 100 100 100 100 100 100 100 100 100 100 100 100 100 100 100 100 100 100 100 100 100 100 100 100 100 100 100 100 96 100 100 100 79 100 100 100 100 100
100 100 100 100 100 100 100 100 95 82 100 100 100 100 100 100 100 100 100 100 100 100 100 100 100 92 96 100 100 100 100 100 100 100 99 100 100 100 100 100 100 100 100
100 100 100 100 100 100 100 100 100 100 100 100 100 100 100 100 100 100 100 100 100 100 100 100 100 100 100 100 100 100 100 100 100 52 100 100 100 97 100 100 100 100 100
100 100 100 100 100 100 100 100 100 100 100 100 100 100 100 100 100 100 100 100 100 100 100 100 100 100 89 100 96 100 100 100 99 86 71 100 100 100 100 100 100 100 100

GFSGL_prec_cloud_111.txt.gz
Cloud_Cover
100 6 40 5 29 81 100 100 100 100 14 51 6 60 95 100 84 100 100 100 100 100 100 100 100 100 100 100 100 100 100 100 100 100 100 100 100 100 100 100 100 100 100
96 100 95 100 97 82 100 100 100 100 23 12 4 1 89 100 100 100 100 100 100 100 100 100 100 100 100 100 100 100 100 100 100 100 100 100 100 100 100 100 100 100 100
98 59 100 100 100 100 100 100 100 100 71 90 26 17 100 100 100 100 100 100 100 89 100 100 100 100 100 100 100 100 100 100 100 100 100 100 100 100 100 100 100 100 100
100 100 99 100 52 100 100 100 100 100 100 100 94 100 100 100 100 100 100 100 100 100 100 100 100 84 100 100 100 100 100 100 100 100 100 100 100 100 100 100 100 100 100
100 100 100 100 100 100 100 98 100 100 100 100 100 100 100 100 100 100 100 100 100 100 100 100 100 100 100 100 100 100 100 100 100 100 100 100 100 100 96 100 66 98 100
100 100 100 100 100 100 61 100 100 100 100 100 100 100 100 100 100 100 100 100 100 100 100 100 100 100 100 100 82 100 100 100 100 100 100 100 100 100 91 84 100 100 100
100 100 100 100 100 100 100 100 100 100 100 100 100 100 100 100 100 100 100 100 100 100 100 100 100 100 100 100 94 100 100 100 100 100 100 100 96 70 92 97 100 100 97
100 100 100 100 100 100 100 100 100 100 100 100 100 100 100 100 100 100 100 100 100 100 100 100 100 100 100 94 100 100 100 100 100 100 87 98 100 100 100 100 100 100 100
100 100 100 100 100 100 100 100 100 100 100 100 100 100 100 100 100 100 100 100 100 100 100 100 100 100 100 100 100 100 100 100 100 100 100 100 100 100 100 100 100 100 100
100 100 100 100 100 100 100 100 100 100 100 100 100 100 100 100 100 100 100 100 100 100 100 100 100 100 100 100 100 100 100 100 100 100 100 100 100 100 100 100 100 100 100
100 100 100 100 100 100 100 100 100 100 100 100 100 100 100 100 100 100 100 100 100 100 100 100 100 100 100 100 100 100 100 100 100 100 100 100 100 100 100 100 100 100 99
100 100 100 100 100 100 100 100 100 100 100 100 100 100 100 100 100 100 100 100 100 100 100 100 100 100 100 100 100 100 100 100 100 100 100 100 100 100 99 99 98 100 100
100 100 100 100 100 100 100 100 100 100 100 100 100 100 100 100 100 100 100 100 100 100 100 100 100 100 100 100 100 100 100 100 100 100 100 100 100 100 100 100 100 100 100
100 100 100 100 100 100 100 100 100 100 100 100 100 100 100 100 100 100 100 100 100 100 100 100 100 100 100 100 100 100 100 100 100 100 100 100 100 100 100 100 100 100 100
100 100 100 100 100 100 100 100 100 100 100 100 100 100 100 100 100 100 100 100 100 100 100 100 100 100 100 100 100 100 100 100 100 100 100 100 100 100 100 100 94 86 60
100 100 100 100 100 100 100 100 100 100 100 100 100 100 100 100 100 100 100 100 100 100 100 100 100 100 100 100 100 100 100 100 100 100 100 88 100 100 100 100 98 100 98
100 100 92 99 100 100 100 100 100 100 100 100 100 100 100 100 100 100 100 100 100 100 100 100 100 100 100 100 100 100 100 100 100 100 100 100 100 100 100 100 100 100 100
100 100 100 99 100 100 100 100 100 100 100 100 100 100 100 100 100 100 100 100 100 100 100 100 100 100 100 100 100 100 100 100 100 100 100 100 100 100 100 100 100 100 100
76 99 100 100 98 87 100 100 100 100 100 100 100 100 100 100 100 100 100 100 100 100 100 100 100 100 100 100 100 100 100 100 100 100 100 100 100 100 100 100 100 100 100
99 100 99 100 100 100 96 98 100 100 100 100 100 100 100 100 100 100 100 100 100 100 100 100 100 100 100 100 100 100 100 100 100 100 100 100 100 100 100 100 100 100 100
100 64 96 100 100 95 96 96 58 68 90 100 100 100 100 100 100 100 100 100 100 100 100 100 100 100 100 100 100 100 97 100 100 100 100 100 100 100 97 15 84 97 100
82 66 45 96 81 98 100 100 100 93 75 79 76 92 98 76 87 99 100 100 100 100 100 100 100 100 100 100 100 100 100 100 100 100 95 66 70 60 87 39 85 39 45
20 64 28 83 80 65 68 100 95 83 90 99 84 78 75 80 96 100 97 96 78 79 75 100 100 100 100 100 90 88 100 100 100 92 88 97 40 23 18 34 70 21 30
69 86 74 88 55 54 81 81 74 83 76 62 65 73 82 78 73 68 86 74 32 46 50 42 7 53 57 25 16 7 5 10 5 5 26 84 84 9 8 60 14 56 95
56 69 92 85 93 100 100 100 94 69 86 95 92 89 100 100 100 100 93 86 96 85 74 64 54 97 41 35 57 5 21 81 63 49 47 79 92 47 87 70 44 30 26
41 42 74 95 99 100 100 99 100 89 90 88 78 80 77 78 100 93 60 79 82 92 67 8 35 83 86 69 16 72 82 51 5 7 83 63 34 75 12 29 33 8 5

GFSGL_prec_cloud_114.txt.gz
Cloud_Cover
100 100 53 5 86 93 97 100 100 100 100 100 100 100 100 100 97 100 100 93 100 100 96 100 100 100 100 100 100 100 100 100 100 100 100 100 100 100 100 100 100 100 100
100 100 100 70 70 74 100 100 100 100 100 100 100 100 100 100 100 100 100 100 100 100 100 100 100 100 100 100 100 100 100 100 100 100 100 100 100 100 100 100 100 100 100
100 100 100 100 100 98 100 100 100 100 100 100 100 100 100 100 100 100 100 100 100 100 100 100 100 100 100 100 100 100 100 100 100 100 100 100 100 100 100 100 100 100 100
100 100 100 100 100 100 86 93 100 100 100 100 100 100 100 100 100 100 100 100 100 100 100 100 100 100 100 100 100 100 100 100 100 100 100 100 100 100 100 100 100 100 100
100 100 100 100 100 100 100 58 100 100 100 100 100 100 100 100 100 100 100 100 100 100 100 100 100 100 100 99 98 100 100 100 100 100 100 100 100 100 100 100 100 100 100
100 100 100 100 100 100 100 100 100 100 100 100 100 100 100 100 100 100 100 100 100 100 100 100 100 100 100 100 100 100 100 100 100 100 100 100 100 97 100 100 100 100 100
100 100 100 100 100 100 100 100 100 100 100 100 100 100 100 100 100 100 100 100 100 100 100 100 100 100 100 100 100 100 100 100 100 100 100 100 99 100 100 100 100 64 82
100 100 100 100 100 100 100 100 100 100 100 100 100 100 100 100 100 100 96 100 100 100 100 100 100 100 100 100 100 100 100 100 100 100 100 100 100 100 100 75 57 95 100
100 100 100 100 100 100 100 100 100 100 100 100 100 100 100 100 100 100 100 100 100 100 100 100 100 100 100 100 100 100 100 100 100 100 100 100 100 100 100 100 100 100 100
100 100 100 100 100 100 100 100 100 100 100 100 100 100 100 100 100 100 100 100 100 100 100 100 100 100 100 100 100 100 100 100 100 100 100 100 100 100 100 100 100 100 100
100 100 100 100 100 100 100 100 100 100 100 100 100 100 100 100 100 100 100 100 100 100 100 100 100 100 100 100 100 100 100 100 100 100 100 100 100 100 100 100 100 100 100
96 100 100 92 100 100 100 100 100 100 100 100 100 100 100 100 100 100 100 100 100 100 100 100 100 100 100 100 100 100 100 100 100 100 100 100 100 100 100 100 100 100 100
88 93 97 100 100 100 100 100 100 100 100 100 100 100 100 100 100 100 100 100 100 100 100 100 100 100 100 100 100 100 100 100 100 100 100 100 100 100 100 100 97 100 100
89 93 100 100 88 100 100 98 100 100 100 100 100 100 100 100 100 100 100 100 100 100 100 100 100 100 100 100 100 100 100 100 100 100 100 100 99 100 100 100 100 100 100
72 87 93 100 100 100 100 100 100 100 100 100 100 100 100 100 100 100 100 100 100 100 100 100 100 100 100 100 100 100 100 100 100 100 100 100 100 100 100 100 100 100 100
93 97 92 99 100 100 100 100 100 100 100 100 100 100 100 100 100 100 100 100 100 100 100 100 100 100 100 100 100 100 100 100 100 100 100 100 100 100 100 100 100 100 100
84 96 82 82 99 100 100 100 100 100 100 100 100 100 100 100 100 100 100 100 100 100 100 100 100 100 100 100 100 100 100 100 100 100 100 100 100 100 100 100 100 100 100
84 79 88 95 91 79 76 94 100 100 100 100 100 100 100 100 100 100 100 100 100 100 100 100 100 100 100 100 100 100 100 100 100 100 100 100 100 100 100 100 100 100 100
90 87 72 78 87 75 51 47 66 100 100 100 100 100 100 100 100 100 100 100 100 100 100 100 100 100 100 100 100 100 100 100 100 100 100 100 100 100 100 100 100 100 100
79 22 22 72 70 81 75 67 85 73 100 100 100 100 93 100 100 100 100 100 100 100 100 100 100 100 100 100 100 100 100 100 100 100 100 100 100 100 100 100 100 100 100
100 86 93 58 78 75 81 81 70 84 90 83 94 98 98 100 100 100 100 100 100 100 100 100 100 100 100 100 100 100 100 100 100 100 100 100 100 100 100 100 100 100 100
66 62 54 89 64 62 82 92 91 77 88 85 96 100 100 100 98 100 100 100 100 95 100 100 100 100 100 100 100 100 100 100 100 100 100 100 100 100 100 100 100 100 100
80 88 79 78 95 83 76 100 99 90 85 93 96 97 99 100 100 100 100 100 100 100 100 100 100 98 100 100 100 100 100 100 100 100 100 100 100 100 99 100 95 100 66
33 84 97 100 100 93 88 98 90 89 95 100 100 100 100 100 100 100 100 100 100 99 100 100 100 92 83 91 76 76 70 67 56 58 82 100 96 67 50 47 41 23 55
32 52 71 86 100 100 100 98 97 90 94 99 97 100 100 100 100 100 100 100 100 100 100 100 100 100 100 96 98 100 100 98 60 60 73 28 6 5 10 43 91 71 73
55 43 73 45 74 93 100 100 100 100 99 97 98 95 99 100 100 100 100 100 100 100 100 100 99 98 86 88 87 80 84 97 80 73 64 76 61 15 5 6 11 8 37

GFSGL_prec_cloud_117.txt.gz
Cloud_Cover
100 100 100 100 84 64 89 83 100 100 90 100 99 100 100 100 100 100 100 40 100 100 100 100 100 100 100 100 100 100 100 100 100 100 100 100 100 100 100 100 100 100 100
100 100 100 100 100 100 100 30 36 53 56 78 100 100 100 100 100 99 64 88 100 100 100 100 100 97 100 100 100 100 100 100 100 100 100 100 100 100 100 100 100 100 100
100 100 100 100 100 100 100 100 92 72 65 92 100 100 100 100 100 100 59 100 100 100 100 100 100 100 100 100 100 100 100 100 100 100 100 100 100 100 100 100 100 100 100
100 100 100 100 100 100 100 100 100 94 98 100 100 100 100 100 100 100 97 100 100 100 100 100 100 100 100 100 100 100 100 100 100 100 100 100 100 100 100 100 100 100 100
100 100 100 100 100 100 100 100 100 100 100 100 100 100 100 100 100 100 100 100 100 100 100 100 100 100 100 99 93 100 100 100 100 100 100 100 100 100 100 100 100 100 100
100 100 100 100 100 100 100 100 100 100 100 100 100 100 100 100 100 100 99 100 100 100 100 100 100 100 90 100 100 95 100 100 100 100 100 100 100 100 100 100 100 100 100
100 100 100 100 100 100 100 100 100 100 100 100 100 100 100 100 100 100 100 100 100 100 100 100 100 100 100 100 100 100 100 100 100 100 100 100 100 100 98 100 100 100 100
74 98 100 100 100 100 99 100 100 100 100 100 100 100 100 100 100 100 100 100 100 100 100 100 100 100 100 100 100 100 100 100 100 100 100 100 100 93 100 100 100 100 100
100 100 97 99 100 100 99 100 100 100 100 100 100 100 100 100 100 100 100 100 100 100 100 100 100 100 100 100 100 100 100 100 100 100 100 100 100 100 100 97 100 100 100
100 100 100 100 100 100 100 100 100 100 100 100 100 100 100 100 100 100 100 100 100 100 100 100 100 100 100 100 100 100 100 100 100 100 100 100 100 100 100 100 100 100 100
100 100 100 100 100 100 100 100 100 100 100 100 100 100 100 100 100 100 100 100 100 100 100 100 100 100 100 100 100 100 100 100 100 100 100 100 100 100 100 100 100 100 100
100 100 100 100 81 90 97 100 100 100 100 100 100 100 100 100 100 100 100 100 100 100 100 100 100 100 100 100 100 100 100 100 100 100 100 100 100 100 100 100 100 100 100
100 100 100 100 100 80 92 100 100 100 100 100 100 100 100 100 100 100 100 100 100 100 100 100 100 100 100 100 100 100 100 100 100 100 100 100 100 100 100 100 100 100 100
100 100 100 100 100 100 100 100 100 100 99 100 100 98 100 100 100 100 100 100 100 100 100 100 100 100 100 100 100 100 100 100 100 100 100 100 100 100 100 100 100 100 100
100 100 100 100 100 28 90 100 100 100 100 100 99 96 100 100 100 100 100 100 100 100 100 100 100 100 100 100 100 100 100 100 100 100 100 100 100 100 100 100 100 100 100
100 100 100 100 99 14 8 64 97 100 100 100 100 100 100 100 100 100 100 100 100 100 100 100 100 100 100 100 100 100 100 100 100 100 100 100 100 100 100 100 100 100 100
99 91 86 93 96 88 70 68 78 57 76 100 100 99 100 100 100 100 100 100 100 100 100 100 100 100 100 100 100 100 100 100 100 100 100 100 100 100 100 100 100 100 100
38 82 100 98 100 79 80 80 78 99 87 79 100 96 100 100 100 100 100 100 100 100 100 100 100 100 100 100 100 100 100 100 100 100 100 100 100 100 100 100 100 100 100
98 68 75 78 78 73 66 63 66 79 84 93 93 91 92 97 94 94 92 100 100 100 100 100 100 100 100 100 100 100 100 100 100 100 100 100 100 100 100 100 100 100 100
38 60 77 73 73 74 59 62 60 69 76 85 90 100 99 100 100 100 100 100 100 100 100 100 100 100 100 100 100 100 100 100 100 100 100 100 100 100 100 100 100 100 100
87 64 97 6 66 84 92 75 72 76 89 94 100 94 96 80 100 100 100 100 100 100 100 100 100 100 100 100 100 100 100 100 100 100 100 100 100 100 100 100 100 100 100
80 85 72 96 62 82 89 100 100 94 84 84 89 56 48 88 98 92 96 99 100 100 100 100 100 100 100 100 100 100 100 100 100 100 100 100 100 100 100 100 100 100 100
62 65 76 75 82 83 88 86 87 82 67 66 68 78 64 83 85 84 87 100 100 100 97 92 99 100 100 100 100 100 97 100 100 100 100 100 100 100 100 100 100 100 100
15 59 67 100 100 97 90 91 96 90 80 80 63 54 65 96 99 100 100 78 90 97 100 100 99 91 91 96 97 100 100 100 100 97 100 87 70 48 26 26 58 88 80
54 62 52 89 90 100 100 100 84 83 85 83 89 86 99 91 78 93 94 80 97 100 100 100 92 92 98 100 100 93 100 100 100 100 82 72 59 13 16 7 50 5 47
5 42 99 89 99 97 96 100 100 100 96 88 96 96 98 99 99 88 84 84 92 88 84 83 96 100 99 95 97 100 100 100 99 100 76 74 32 45 9 25 15 49 10

GFSGL_prec_cloud_123.txt.gz
Cloud_Cover
100 100 100 100 100 100 100 100 100 100 100 100 100 100 100 100 100 100 100 100 100 100 100 100 100 100 100 100 100 100 100 100 100 97 100 100 100 100 100 100 100 100 100
100 100 100 100 100 100 100 100 100 100 100 100 100 100 100 100 100 100 100 100 100 100 100 100 100 100 74 95 98 100 100 99 100 100 100 100 100 100 100 100 100 100 100
100 100 100 100 100 100 100 100 100 100 100 100 100 100 100 100 100 100 100 100 100 100 100 100 100 100 95 84 100 100 100 100 100 100 100 100 100 100 100 100 100 100 100
100 100 100 100 100 100 100 100 100 100 100 100 100 100 100 100 100 100 100 100 100 100 100 100 100 100 98 82 100 100 100 100 100 100 100 100 100 100 100 100 100 100 100
100 100 99 100 100 100 100 100 100 100 100 100 100 100 100 100 100 100 100 100 100 100 100 100 100 100 99 60 89 100 100 100 100 100 100 100 100 100 100 100 100 100 100
76 100 94 99 97 100 96 100 100 100 100 100 100 100 100 100 100 100 100 100 100 100 100 100 100 100 100 100 100 99 99 100 100 100 100 100 100 100 100 100 100 100 100
100 100 100 98 92 100 100 100 100 100 100 100 100 100 100 100 100 100 100 100 100 100 100 100 100 100 100 100 100 100 100 100 100 93 100 100 100 99 100 100 100 100 100
100 100 100 100 100 95 99 100 100 100 98 100 100 100 100 100 100 100 100 100 100 100 100 100 100 100 100 100 100 100 100 100 100 100 100 100 97 93 99 100 100 100 100
100 100 100 100 100 100 100 100 100 100 100 100 100 100 100 100 100 100 100 100 100 100 100 100 100 100 100 100 100 100 100 100 100 100 100 100 100 100 100 100 100 100 100
100 100 100 100 100 100 100 100 100 100 100 100 100 100 100 100 100 100 100 100 100 100 100 100 100 100 100 100 100 100 100 100 100 100 100 100 100 100 100 100 100 100 100
100 100 100 100 100 100 100 100 100 100 100 100 100 100 100 100 100 100 100 100 100 100 100 100 100 100 100 100 100 100 100 100 100 100 100 100 100 100 100 100 100 100 100
100 100 100 99 100 100 100 100 100 100 100 100 100 100 100 100 100 100 100 100 100 100 100 100 100 100 100 100 100 100 100 100 100 100 100 100 100 100 100 100 100 100 100
90 100 98 80 80 99 100 100 100 100 100 96 100 100 100 100 100 99 82 98 100 100 100 100 100 100 100 100 100 100 100 100 100 100 100 100 100 100 100 100 100 100 100
95 100 96 99 90 87 93 100 100 100 100 100 100 100 99 100 100 100 100 97 92 100 100 100 100 100 100 100 100 100 100 100 100 100 100 100 100 100 100 100 100 100 100
99 97 99 100 84 49 92 96 100 100 100 100 100 100 100 100 100 100 100 100 90 99 100 100 100 100 100 100 100 100 100 100 100 100 100 100 100 100 100 100 100 100 100
87 100 97 100 98 55 60 86 52 98 100 100 100 100 100 100 100 98 100 100 48 68 92 100 100 100 100 100 100 100 100 100 100 100 100 100 100 100 100 100 100 100 100
100 100 95 93 94 78 86 100 96 51 13 84 100 100 100 100 100 100 88 100 100 34 94 100 100 100 100 100 100 100 100 100 100 100 100 100 100 100 100 100 100 100 100
100 64 92 100 99 99 100 98 100 100 95 79 28 20 94 100 100 97 37 84 93 100 100 100 100 100 100 100 100 100 100 100 100 100 100 100 100 100 100 100 100 100 100
96 99 98 89 100 88 100 100 100 99 95 83 26 5 5 53 82 87 100 100 100 100 100 100 100 100 100 100 100 100 100 100 100 100 99 100 100 100 100 100 100 100 100
74 66 51 100 100 100 100 100 100 100 100 100 88 94 40 6 63 100 100 100 100 100 100 100 100 100 100 100 100 100 100 100 96 87 94 100 100 100 100 100 100 100 100
35 75 57 100 100 100 100 100 100 100 100 100 100 44 29 59 100 100 100 100 100 100 100 100 100 100 100 100 100 100 100 100 100 100 100 100 100 100 91 100 100 100 100
5 40 95 100 100 100 100 100 100 100 100 100 100 91 7 100 100 100 100 100 100 100 100 99 100 100 100 100 100 100 100 100 100 100 100 100 100 100 100 100 100 100 100
66 46 73 78 99 93 100 100 100 100 100 100 100 100 100 100 100 100 100 100 100 100 100 100 100 100 100 100 100 100 100 100 100 100 100 100 100 100 100 100 100 100 99
5 45 67 88 97 98 100 100 100 100 100 100 100 100 100 100 100 100 100 100 100 100 100 100 100 100 100 100 100 100 100 100 100 100 100 100 100 100 100 100 100 95 90
57 84 99 100 98 81 97 100 100 100 100 100 100 100 100 100 100 100 100 100 100 100 100 100 98 99 100 100 100 100 100 100 100 100 100 100 100 100 100 94 92 91 82
5 55 100 100 100 100 90 97 100 100 100 100 100 100 100 100 100 100 100 100 100 100 100 100 82 66 95 96 91 100 100 100 100 100 100 100 100 100 98 95 78 100 88

GFSGL_prec_cloud_126.txt.gz
Cloud_Cover
100 100 100 100 100 100 100 100 100 100 100 100 100 100 100 100 100 100 100 100 100 100 100 100 100 100 100 100 100 100 100 100 100 100 57 54 100 100 100 100 100 100 100
100 100 100 100 100 100 100 100 100 100 100 100 100 100 100 100 100 100 100 100 100 100 100 100 100 100 100 100 93 100 100 21 100 79 100 88 98 100 100 100 100 100 100
100 97 88 100 100 100 100 100 100 100 100 100 100 100 100 100 100 100 100 100 100 100 100 100 100 100 100 100 100 100 99 38 100 75 100 99 100 100 100 100 100 100 100
100 100 100 100 100 100 100 100 100 100 100 100 100 100 100 100 100 100 100 100 100 100 100 100 100 100 100 100 100 100 98 67 98 100 100 100 100 100 100 100 100 100 100
100 100 100 100 100 100 100 100 100 100 100 100 100 100 100 100 100 100 100 100 100 100 100 100 100 100 100 100 100 100 91 100 100 100 100 100 100 100 100 100 100 100 100
100 100 100 100 100 100 100 100 100 100 100 100 100 100 100 100 100 100 100 100 100 100 100 100 100 100 100 100 100 100 100 100 100 100 100 100 100 100 100 100 100 100 100
100 100 100 100 100 100 100 100 100 100 100 100 100 100 100 100 100 100 100 100 100 100 100 100 100 100 100 100 100 100 100 100 100 100 100 100 100 69 92 100 100 100 100
100 100 100 100 100 100 100 100 100 100 100 100 100 100 100 100 100 100 100 100 100 100 100 100 100 100 100 100 100 100 100 100 100 100 100 100 94 98 93 100 83 100 100
100 100 100 100 100 100 100 100 100 100 100 100 100 100 100 100 100 100 100 100 100 100 100 100 100 100 100 100 100 100 100 100 100 100 100 100 100 100 100 100 100 100 100
100 100 100 100 100 100 100 100 100 100 100 100 100 100 99 100 100 100 99 100 100 100 100 100 100 100 100 100 100 100 100 100 100 100 100 100 100 100 100 100 100 100 100
100 100 100 100 100 100 100 100 100 100 100 100 100 100 100 100 100 100 100 100 100 100 100 100 100 100 100 100 100 100 100 100 100 100 100 100 100 100 100 100 100 100 100
100 100 100 100 100 100 100 100 100 100 100 100 100 100 100 100 100 100 100 100 100 100 100 100 100 100 100 100 100 100 100 100 100 100 100 100 100 100 100 100 100 100 100
83 100 100 100 100 100 100 100 100 93 100 100 100 100 100 100 100 100 100 100 100 100 100 100 100 100 100 100 100 100 100 100 100 100 100 100 100 100 100 100 100 100 100
100 80 32 5 5 20 82 93 100 99 96 100 100 100 100 100 100 100 81 98 100 100 100 100 100 100 100 100 100 100 100 100 100 100 100 100 100 100 100 100 100 100 100
55 5 5 5 5 5 83 82 97 100 100 100 100 100 100 100 100 100 96 95 91 89 100 100 100 100 100 100 100 100 100 100 100 100 100 100 100 100 100 100 100 100 100
57 31 12 15 14 10 21 70 87 18 99 100 100 100 100 100 100 100 100 89 90 84 100 100 100 100 100 100 100 100 100 100 100 100 100 100 100 100 100 100 100 100 100
48 8 5 25 56 82 98 100 100 100 100 100 89 100 100 100 100 100 99 100 65 38 91 100 100 100 100 100 100 100 100 100 100 100 100 100 100 100 100 100 100 100 100
96 89 96 100 100 100 100 100 100 100 100 100 100 92 90 100 100 100 100 98 93 95 100 100 100 100 100 100 100 100 100 100 100 100 100 100 100 100 100 100 100 100 100
32 14 83 100 100 100 100 100 100 100 100 100 100 90 84 100 100 100 100 100 100 100 100 100 100 100 100 100 100 100 100 100 100 100 100 100 100 100 100 100 100 100 100
44 68 54 100 100 100 100 100 100 100 100 100 100 100 100 99 100 100 100 100 100 100 100 100 100 100 100 100 100 100 100 100 100 100 100 100 100 100 100 100 100 100 100
79 85 24 100 100 100 100 100 100 100 100 100 100 90 24 100 100 100 100 100 100 100 100 100 100 100 100 100 100 100 100 100 100 100 100 100 100 100 100 100 100 100 100
96 90 96 100 100 100 100 100 100 100 100 100 100 100 92 100 100 100 100 100 100 100 100 100 100 100 100 100 100 100 100 100 100 100 100 100 100 100 100 100 100 100 100
100 100 100 99 100 100 100 100 100 100 100 100 100 100 100 100 100 100 100 100 100 100 100 100 100 100 100 100 100 100 100 100 100 100 100 100 100 100 100 100 100 100 100
100 100 100 100 100 100 100 100 100 100 100 100 100 100 100 100 100 100 100 100 100 100 100 100 100 100 100 100 100 100 100 100 100 100 100 100 100 100 100 100 100 100 100
100 100 100 100 100 100 100 100 100 100 100 100 100 100 100 100 100 100 100 100 100 100 100 100 100 100 100 100 100 100 100 100 100 100 100 100 100 100 100 100 100 100 100
100 100 100 100 100 100 100 100 100 100 100 100 100 100 100 100 100 100 100 100 100 100 100 100 100 100 100 100 86 96 100 100 100 100 100 100 100 100 100 100 100 100 100